<?xml version="1.0" encoding="UTF-8" standalone="no" ?>
<gpx xmlns="http://www.topografix.com/GPX/1/1" xmlns:xsi="http://www.w3.org/2001/XMLSchema-instance" xsi:schemaLocation="http://www.topografix.com/GPX/1/1 http://www.topografix.com/GPX/1/1/gpx.xsd" version="1.1" creator="VisuGPX - https://www.visugpx.com">
  <metadata>
    <name>bois de lassoux</name>
    <desc><![CDATA[depart du parking du bois de lassoux,suivre le balisage jaune en toute securite]]></desc>
  </metadata>
  <trk>
    <name><![CDATA[bois de lassoux_1]]></name>
    <trkseg>
      <trkpt lat="46.24014" lon="2.47973">
        <ele>382</ele>
        <time>2017-04-17T13:12:23Z</time>
      </trkpt>
      <trkpt lat="46.24009" lon="2.48012">
        <ele>389</ele>
        <time>2017-04-17T13:13:00Z</time>
      </trkpt>
      <trkpt lat="46.24008" lon="2.48018">
        <ele>389</ele>
        <time>2017-04-17T13:13:04Z</time>
      </trkpt>
      <trkpt lat="46.24009" lon="2.48023">
        <ele>389</ele>
        <time>2017-04-17T13:13:07Z</time>
      </trkpt>
      <trkpt lat="46.24008" lon="2.48028">
        <ele>389</ele>
        <time>2017-04-17T13:13:10Z</time>
      </trkpt>
      <trkpt lat="46.24007" lon="2.48034">
        <ele>389</ele>
        <time>2017-04-17T13:13:13Z</time>
      </trkpt>
      <trkpt lat="46.24006" lon="2.4804">
        <ele>389</ele>
        <time>2017-04-17T13:13:16Z</time>
      </trkpt>
      <trkpt lat="46.24004" lon="2.48046">
        <ele>389</ele>
        <time>2017-04-17T13:13:19Z</time>
      </trkpt>
      <trkpt lat="46.24001" lon="2.48052">
        <ele>389</ele>
        <time>2017-04-17T13:13:22Z</time>
      </trkpt>
      <trkpt lat="46.23998" lon="2.48053">
        <ele>389</ele>
        <time>2017-04-17T13:13:25Z</time>
      </trkpt>
      <trkpt lat="46.23997" lon="2.48057">
        <ele>389</ele>
        <time>2017-04-17T13:13:28Z</time>
      </trkpt>
      <trkpt lat="46.23996" lon="2.48063">
        <ele>389</ele>
        <time>2017-04-17T13:13:31Z</time>
      </trkpt>
      <trkpt lat="46.23994" lon="2.48069">
        <ele>389</ele>
        <time>2017-04-17T13:13:34Z</time>
      </trkpt>
      <trkpt lat="46.23993" lon="2.48076">
        <ele>389</ele>
        <time>2017-04-17T13:13:38Z</time>
      </trkpt>
      <trkpt lat="46.2399" lon="2.48082">
        <ele>389</ele>
        <time>2017-04-17T13:13:41Z</time>
      </trkpt>
      <trkpt lat="46.23987" lon="2.48086">
        <ele>389</ele>
        <time>2017-04-17T13:13:44Z</time>
      </trkpt>
      <trkpt lat="46.23983" lon="2.48089">
        <ele>389</ele>
        <time>2017-04-17T13:13:47Z</time>
      </trkpt>
      <trkpt lat="46.2398" lon="2.48094">
        <ele>389</ele>
        <time>2017-04-17T13:13:51Z</time>
      </trkpt>
      <trkpt lat="46.23977" lon="2.48098">
        <ele>389</ele>
        <time>2017-04-17T13:13:55Z</time>
      </trkpt>
      <trkpt lat="46.23975" lon="2.48103">
        <ele>389</ele>
        <time>2017-04-17T13:13:59Z</time>
      </trkpt>
      <trkpt lat="46.23974" lon="2.48105">
        <ele>389</ele>
        <time>2017-04-17T13:14:03Z</time>
      </trkpt>
      <trkpt lat="46.2397" lon="2.48108">
        <ele>388</ele>
        <time>2017-04-17T13:14:07Z</time>
      </trkpt>
      <trkpt lat="46.23965" lon="2.48114">
        <ele>388</ele>
        <time>2017-04-17T13:14:11Z</time>
      </trkpt>
      <trkpt lat="46.23962" lon="2.48117">
        <ele>388</ele>
        <time>2017-04-17T13:14:14Z</time>
      </trkpt>
      <trkpt lat="46.2396" lon="2.48121">
        <ele>388</ele>
        <time>2017-04-17T13:14:17Z</time>
      </trkpt>
      <trkpt lat="46.23957" lon="2.48126">
        <ele>388</ele>
        <time>2017-04-17T13:14:20Z</time>
      </trkpt>
      <trkpt lat="46.23954" lon="2.48132">
        <ele>388</ele>
        <time>2017-04-17T13:14:24Z</time>
      </trkpt>
      <trkpt lat="46.23952" lon="2.48136">
        <ele>388</ele>
        <time>2017-04-17T13:14:27Z</time>
      </trkpt>
      <trkpt lat="46.23949" lon="2.4814">
        <ele>388</ele>
        <time>2017-04-17T13:14:30Z</time>
      </trkpt>
      <trkpt lat="46.23947" lon="2.48145">
        <ele>388</ele>
        <time>2017-04-17T13:14:33Z</time>
      </trkpt>
      <trkpt lat="46.23945" lon="2.48151">
        <ele>388</ele>
        <time>2017-04-17T13:14:36Z</time>
      </trkpt>
      <trkpt lat="46.23943" lon="2.48157">
        <ele>388</ele>
        <time>2017-04-17T13:14:40Z</time>
      </trkpt>
      <trkpt lat="46.23941" lon="2.48163">
        <ele>388</ele>
        <time>2017-04-17T13:14:43Z</time>
      </trkpt>
      <trkpt lat="46.23936" lon="2.48168">
        <ele>388</ele>
        <time>2017-04-17T13:14:47Z</time>
      </trkpt>
      <trkpt lat="46.23934" lon="2.48173">
        <ele>388</ele>
        <time>2017-04-17T13:14:50Z</time>
      </trkpt>
      <trkpt lat="46.23931" lon="2.48178">
        <ele>388</ele>
        <time>2017-04-17T13:14:53Z</time>
      </trkpt>
      <trkpt lat="46.23929" lon="2.48183">
        <ele>388</ele>
        <time>2017-04-17T13:14:56Z</time>
      </trkpt>
      <trkpt lat="46.23927" lon="2.48188">
        <ele>388</ele>
        <time>2017-04-17T13:15:00Z</time>
      </trkpt>
      <trkpt lat="46.23926" lon="2.48193">
        <ele>388</ele>
        <time>2017-04-17T13:15:03Z</time>
      </trkpt>
      <trkpt lat="46.23922" lon="2.48199">
        <ele>388</ele>
        <time>2017-04-17T13:15:07Z</time>
      </trkpt>
      <trkpt lat="46.2392" lon="2.48203">
        <ele>388</ele>
        <time>2017-04-17T13:15:10Z</time>
      </trkpt>
      <trkpt lat="46.23916" lon="2.48208">
        <ele>388</ele>
        <time>2017-04-17T13:15:14Z</time>
      </trkpt>
      <trkpt lat="46.23912" lon="2.48213">
        <ele>389</ele>
        <time>2017-04-17T13:15:18Z</time>
      </trkpt>
      <trkpt lat="46.23909" lon="2.48218">
        <ele>390</ele>
        <time>2017-04-17T13:15:21Z</time>
      </trkpt>
      <trkpt lat="46.23902" lon="2.48223">
        <ele>390</ele>
        <time>2017-04-17T13:15:25Z</time>
      </trkpt>
      <trkpt lat="46.23897" lon="2.48228">
        <ele>390</ele>
        <time>2017-04-17T13:15:29Z</time>
      </trkpt>
      <trkpt lat="46.23892" lon="2.48233">
        <ele>390</ele>
        <time>2017-04-17T13:15:32Z</time>
      </trkpt>
      <trkpt lat="46.23889" lon="2.48237">
        <ele>390</ele>
        <time>2017-04-17T13:15:35Z</time>
      </trkpt>
      <trkpt lat="46.23885" lon="2.4824">
        <ele>390</ele>
        <time>2017-04-17T13:15:38Z</time>
      </trkpt>
      <trkpt lat="46.23882" lon="2.48244">
        <ele>390</ele>
        <time>2017-04-17T13:15:42Z</time>
      </trkpt>
      <trkpt lat="46.23879" lon="2.48248">
        <ele>392</ele>
        <time>2017-04-17T13:15:46Z</time>
      </trkpt>
      <trkpt lat="46.23875" lon="2.48254">
        <ele>393</ele>
        <time>2017-04-17T13:15:50Z</time>
      </trkpt>
      <trkpt lat="46.23871" lon="2.4826">
        <ele>394</ele>
        <time>2017-04-17T13:15:54Z</time>
      </trkpt>
      <trkpt lat="46.23867" lon="2.48264">
        <ele>395</ele>
        <time>2017-04-17T13:15:57Z</time>
      </trkpt>
      <trkpt lat="46.23862" lon="2.48269">
        <ele>396</ele>
        <time>2017-04-17T13:16:00Z</time>
      </trkpt>
      <trkpt lat="46.23858" lon="2.48272">
        <ele>397</ele>
        <time>2017-04-17T13:16:03Z</time>
      </trkpt>
      <trkpt lat="46.23856" lon="2.48276">
        <ele>397</ele>
        <time>2017-04-17T13:16:06Z</time>
      </trkpt>
      <trkpt lat="46.23851" lon="2.4828">
        <ele>397</ele>
        <time>2017-04-17T13:16:10Z</time>
      </trkpt>
      <trkpt lat="46.2385" lon="2.48279">
        <ele>398</ele>
        <time>2017-04-17T13:16:15Z</time>
      </trkpt>
      <trkpt lat="46.23848" lon="2.48275">
        <ele>398</ele>
        <time>2017-04-17T13:16:20Z</time>
      </trkpt>
      <trkpt lat="46.23846" lon="2.48274">
        <ele>398</ele>
        <time>2017-04-17T13:16:23Z</time>
      </trkpt>
      <trkpt lat="46.23846" lon="2.48273">
        <ele>399</ele>
        <time>2017-04-17T13:16:27Z</time>
      </trkpt>
      <trkpt lat="46.23844" lon="2.48272">
        <ele>399</ele>
        <time>2017-04-17T13:16:32Z</time>
      </trkpt>
      <trkpt lat="46.23841" lon="2.48276">
        <ele>399</ele>
        <time>2017-04-17T13:16:35Z</time>
      </trkpt>
      <trkpt lat="46.23838" lon="2.48281">
        <ele>399</ele>
        <time>2017-04-17T13:16:38Z</time>
      </trkpt>
      <trkpt lat="46.23835" lon="2.48284">
        <ele>399</ele>
        <time>2017-04-17T13:16:41Z</time>
      </trkpt>
      <trkpt lat="46.23831" lon="2.48289">
        <ele>399</ele>
        <time>2017-04-17T13:16:44Z</time>
      </trkpt>
      <trkpt lat="46.23829" lon="2.48293">
        <ele>399</ele>
        <time>2017-04-17T13:16:47Z</time>
      </trkpt>
      <trkpt lat="46.23825" lon="2.48297">
        <ele>399</ele>
        <time>2017-04-17T13:16:50Z</time>
      </trkpt>
      <trkpt lat="46.23821" lon="2.48301">
        <ele>399</ele>
        <time>2017-04-17T13:16:53Z</time>
      </trkpt>
      <trkpt lat="46.23818" lon="2.48305">
        <ele>399</ele>
        <time>2017-04-17T13:16:56Z</time>
      </trkpt>
      <trkpt lat="46.23814" lon="2.48309">
        <ele>399</ele>
        <time>2017-04-17T13:16:59Z</time>
      </trkpt>
      <trkpt lat="46.2381" lon="2.48314">
        <ele>399</ele>
        <time>2017-04-17T13:17:03Z</time>
      </trkpt>
      <trkpt lat="46.23806" lon="2.48318">
        <ele>399</ele>
        <time>2017-04-17T13:17:06Z</time>
      </trkpt>
      <trkpt lat="46.23803" lon="2.4832">
        <ele>399</ele>
        <time>2017-04-17T13:17:09Z</time>
      </trkpt>
      <trkpt lat="46.23804" lon="2.48322">
        <ele>399</ele>
        <time>2017-04-17T13:17:16Z</time>
      </trkpt>
      <trkpt lat="46.23804" lon="2.48323">
        <ele>396</ele>
        <time>2017-04-17T13:17:24Z</time>
      </trkpt>
      <trkpt lat="46.23803" lon="2.48324">
        <ele>395</ele>
        <time>2017-04-17T13:17:28Z</time>
      </trkpt>
      <trkpt lat="46.23798" lon="2.48326">
        <ele>395</ele>
        <time>2017-04-17T13:17:31Z</time>
      </trkpt>
      <trkpt lat="46.23793" lon="2.4833">
        <ele>395</ele>
        <time>2017-04-17T13:17:34Z</time>
      </trkpt>
      <trkpt lat="46.23788" lon="2.48334">
        <ele>395</ele>
        <time>2017-04-17T13:17:37Z</time>
      </trkpt>
      <trkpt lat="46.23783" lon="2.48337">
        <ele>395</ele>
        <time>2017-04-17T13:17:40Z</time>
      </trkpt>
      <trkpt lat="46.23779" lon="2.4834">
        <ele>395</ele>
        <time>2017-04-17T13:17:43Z</time>
      </trkpt>
      <trkpt lat="46.23775" lon="2.48343">
        <ele>395</ele>
        <time>2017-04-17T13:17:46Z</time>
      </trkpt>
      <trkpt lat="46.23771" lon="2.48347">
        <ele>395</ele>
        <time>2017-04-17T13:17:49Z</time>
      </trkpt>
      <trkpt lat="46.23767" lon="2.48349">
        <ele>395</ele>
        <time>2017-04-17T13:17:52Z</time>
      </trkpt>
      <trkpt lat="46.23763" lon="2.48351">
        <ele>395</ele>
        <time>2017-04-17T13:17:55Z</time>
      </trkpt>
      <trkpt lat="46.23759" lon="2.48354">
        <ele>395</ele>
        <time>2017-04-17T13:17:58Z</time>
      </trkpt>
      <trkpt lat="46.23755" lon="2.48357">
        <ele>395</ele>
        <time>2017-04-17T13:18:01Z</time>
      </trkpt>
      <trkpt lat="46.2375" lon="2.48359">
        <ele>395</ele>
        <time>2017-04-17T13:18:04Z</time>
      </trkpt>
      <trkpt lat="46.23746" lon="2.48362">
        <ele>395</ele>
        <time>2017-04-17T13:18:07Z</time>
      </trkpt>
      <trkpt lat="46.23743" lon="2.48364">
        <ele>395</ele>
        <time>2017-04-17T13:18:10Z</time>
      </trkpt>
      <trkpt lat="46.23738" lon="2.48367">
        <ele>395</ele>
        <time>2017-04-17T13:18:13Z</time>
      </trkpt>
      <trkpt lat="46.23735" lon="2.48368">
        <ele>395</ele>
        <time>2017-04-17T13:18:16Z</time>
      </trkpt>
      <trkpt lat="46.2373" lon="2.48369">
        <ele>395</ele>
        <time>2017-04-17T13:18:20Z</time>
      </trkpt>
      <trkpt lat="46.23726" lon="2.48375">
        <ele>395</ele>
        <time>2017-04-17T13:18:24Z</time>
      </trkpt>
      <trkpt lat="46.23723" lon="2.48378">
        <ele>395</ele>
        <time>2017-04-17T13:18:27Z</time>
      </trkpt>
      <trkpt lat="46.23719" lon="2.4838">
        <ele>395</ele>
        <time>2017-04-17T13:18:30Z</time>
      </trkpt>
      <trkpt lat="46.23714" lon="2.48383">
        <ele>395</ele>
        <time>2017-04-17T13:18:33Z</time>
      </trkpt>
      <trkpt lat="46.23709" lon="2.48383">
        <ele>395</ele>
        <time>2017-04-17T13:18:36Z</time>
      </trkpt>
      <trkpt lat="46.23705" lon="2.48385">
        <ele>395</ele>
        <time>2017-04-17T13:18:39Z</time>
      </trkpt>
      <trkpt lat="46.237" lon="2.48387">
        <ele>395</ele>
        <time>2017-04-17T13:18:42Z</time>
      </trkpt>
      <trkpt lat="46.23695" lon="2.48389">
        <ele>395</ele>
        <time>2017-04-17T13:18:45Z</time>
      </trkpt>
      <trkpt lat="46.23691" lon="2.48391">
        <ele>394</ele>
        <time>2017-04-17T13:18:48Z</time>
      </trkpt>
      <trkpt lat="46.23687" lon="2.48392">
        <ele>394</ele>
        <time>2017-04-17T13:18:51Z</time>
      </trkpt>
      <trkpt lat="46.23684" lon="2.48394">
        <ele>394</ele>
        <time>2017-04-17T13:18:54Z</time>
      </trkpt>
      <trkpt lat="46.2368" lon="2.48395">
        <ele>394</ele>
        <time>2017-04-17T13:18:57Z</time>
      </trkpt>
      <trkpt lat="46.23676" lon="2.48396">
        <ele>394</ele>
        <time>2017-04-17T13:19:00Z</time>
      </trkpt>
      <trkpt lat="46.23671" lon="2.48397">
        <ele>394</ele>
        <time>2017-04-17T13:19:03Z</time>
      </trkpt>
      <trkpt lat="46.23666" lon="2.48398">
        <ele>394</ele>
        <time>2017-04-17T13:19:06Z</time>
      </trkpt>
      <trkpt lat="46.23661" lon="2.48399">
        <ele>394</ele>
        <time>2017-04-17T13:19:09Z</time>
      </trkpt>
      <trkpt lat="46.23657" lon="2.48399">
        <ele>394</ele>
        <time>2017-04-17T13:19:12Z</time>
      </trkpt>
      <trkpt lat="46.23654" lon="2.484">
        <ele>393</ele>
        <time>2017-04-17T13:19:15Z</time>
      </trkpt>
      <trkpt lat="46.2365" lon="2.48403">
        <ele>393</ele>
        <time>2017-04-17T13:19:18Z</time>
      </trkpt>
      <trkpt lat="46.23646" lon="2.48406">
        <ele>393</ele>
        <time>2017-04-17T13:19:21Z</time>
      </trkpt>
      <trkpt lat="46.23641" lon="2.4841">
        <ele>393</ele>
        <time>2017-04-17T13:19:25Z</time>
      </trkpt>
      <trkpt lat="46.23637" lon="2.48414">
        <ele>393</ele>
        <time>2017-04-17T13:19:29Z</time>
      </trkpt>
      <trkpt lat="46.23634" lon="2.48418">
        <ele>393</ele>
        <time>2017-04-17T13:19:32Z</time>
      </trkpt>
      <trkpt lat="46.23632" lon="2.48423">
        <ele>393</ele>
        <time>2017-04-17T13:19:35Z</time>
      </trkpt>
      <trkpt lat="46.2363" lon="2.48427">
        <ele>393</ele>
        <time>2017-04-17T13:19:38Z</time>
      </trkpt>
      <trkpt lat="46.23626" lon="2.48431">
        <ele>393</ele>
        <time>2017-04-17T13:19:41Z</time>
      </trkpt>
      <trkpt lat="46.23624" lon="2.48436">
        <ele>393</ele>
        <time>2017-04-17T13:19:44Z</time>
      </trkpt>
      <trkpt lat="46.23622" lon="2.48443">
        <ele>394</ele>
        <time>2017-04-17T13:19:48Z</time>
      </trkpt>
      <trkpt lat="46.2362" lon="2.48448">
        <ele>395</ele>
        <time>2017-04-17T13:19:51Z</time>
      </trkpt>
      <trkpt lat="46.23618" lon="2.48451">
        <ele>396</ele>
        <time>2017-04-17T13:19:54Z</time>
      </trkpt>
      <trkpt lat="46.23615" lon="2.48455">
        <ele>397</ele>
        <time>2017-04-17T13:19:57Z</time>
      </trkpt>
      <trkpt lat="46.23611" lon="2.48458">
        <ele>399</ele>
        <time>2017-04-17T13:20:00Z</time>
      </trkpt>
      <trkpt lat="46.23607" lon="2.48461">
        <ele>400</ele>
        <time>2017-04-17T13:20:03Z</time>
      </trkpt>
      <trkpt lat="46.23603" lon="2.48463">
        <ele>400</ele>
        <time>2017-04-17T13:20:06Z</time>
      </trkpt>
      <trkpt lat="46.23598" lon="2.48464">
        <ele>400</ele>
        <time>2017-04-17T13:20:09Z</time>
      </trkpt>
      <trkpt lat="46.23594" lon="2.48466">
        <ele>400</ele>
        <time>2017-04-17T13:20:12Z</time>
      </trkpt>
      <trkpt lat="46.23589" lon="2.48468">
        <ele>400</ele>
        <time>2017-04-17T13:20:15Z</time>
      </trkpt>
      <trkpt lat="46.23585" lon="2.4847">
        <ele>400</ele>
        <time>2017-04-17T13:20:18Z</time>
      </trkpt>
      <trkpt lat="46.23582" lon="2.48471">
        <ele>400</ele>
        <time>2017-04-17T13:20:21Z</time>
      </trkpt>
      <trkpt lat="46.2358" lon="2.48472">
        <ele>400</ele>
        <time>2017-04-17T13:20:24Z</time>
      </trkpt>
      <trkpt lat="46.23577" lon="2.48472">
        <ele>400</ele>
        <time>2017-04-17T13:20:27Z</time>
      </trkpt>
      <trkpt lat="46.23573" lon="2.48475">
        <ele>403</ele>
        <time>2017-04-17T13:20:31Z</time>
      </trkpt>
      <trkpt lat="46.23569" lon="2.48478">
        <ele>406</ele>
        <time>2017-04-17T13:20:35Z</time>
      </trkpt>
      <trkpt lat="46.23566" lon="2.48482">
        <ele>407</ele>
        <time>2017-04-17T13:20:39Z</time>
      </trkpt>
      <trkpt lat="46.23563" lon="2.48483">
        <ele>407</ele>
        <time>2017-04-17T13:20:43Z</time>
      </trkpt>
      <trkpt lat="46.23559" lon="2.48484">
        <ele>407</ele>
        <time>2017-04-17T13:20:47Z</time>
      </trkpt>
      <trkpt lat="46.23555" lon="2.48485">
        <ele>407</ele>
        <time>2017-04-17T13:20:50Z</time>
      </trkpt>
      <trkpt lat="46.2355" lon="2.48486">
        <ele>407</ele>
        <time>2017-04-17T13:20:53Z</time>
      </trkpt>
      <trkpt lat="46.23546" lon="2.48489">
        <ele>407</ele>
        <time>2017-04-17T13:20:56Z</time>
      </trkpt>
      <trkpt lat="46.23542" lon="2.48493">
        <ele>406</ele>
        <time>2017-04-17T13:20:59Z</time>
      </trkpt>
      <trkpt lat="46.23537" lon="2.48495">
        <ele>406</ele>
        <time>2017-04-17T13:21:02Z</time>
      </trkpt>
      <trkpt lat="46.23532" lon="2.48497">
        <ele>406</ele>
        <time>2017-04-17T13:21:05Z</time>
      </trkpt>
      <trkpt lat="46.23527" lon="2.48498">
        <ele>406</ele>
        <time>2017-04-17T13:21:08Z</time>
      </trkpt>
      <trkpt lat="46.23523" lon="2.485">
        <ele>405</ele>
        <time>2017-04-17T13:21:11Z</time>
      </trkpt>
      <trkpt lat="46.23518" lon="2.48503">
        <ele>403</ele>
        <time>2017-04-17T13:21:14Z</time>
      </trkpt>
      <trkpt lat="46.23513" lon="2.48505">
        <ele>402</ele>
        <time>2017-04-17T13:21:17Z</time>
      </trkpt>
      <trkpt lat="46.23509" lon="2.48507">
        <ele>398</ele>
        <time>2017-04-17T13:21:21Z</time>
      </trkpt>
      <trkpt lat="46.23507" lon="2.48507">
        <ele>395</ele>
        <time>2017-04-17T13:21:24Z</time>
      </trkpt>
      <trkpt lat="46.23502" lon="2.48507">
        <ele>393</ele>
        <time>2017-04-17T13:21:27Z</time>
      </trkpt>
      <trkpt lat="46.23497" lon="2.48508">
        <ele>393</ele>
        <time>2017-04-17T13:21:30Z</time>
      </trkpt>
      <trkpt lat="46.23491" lon="2.48509">
        <ele>393</ele>
        <time>2017-04-17T13:21:33Z</time>
      </trkpt>
      <trkpt lat="46.23486" lon="2.4851">
        <ele>391</ele>
        <time>2017-04-17T13:21:36Z</time>
      </trkpt>
      <trkpt lat="46.23481" lon="2.48511">
        <ele>390</ele>
        <time>2017-04-17T13:21:39Z</time>
      </trkpt>
      <trkpt lat="46.23476" lon="2.48516">
        <ele>390</ele>
        <time>2017-04-17T13:21:42Z</time>
      </trkpt>
      <trkpt lat="46.23471" lon="2.4852">
        <ele>390</ele>
        <time>2017-04-17T13:21:45Z</time>
      </trkpt>
      <trkpt lat="46.23465" lon="2.48523">
        <ele>390</ele>
        <time>2017-04-17T13:21:49Z</time>
      </trkpt>
      <trkpt lat="46.23461" lon="2.48525">
        <ele>390</ele>
        <time>2017-04-17T13:21:52Z</time>
      </trkpt>
      <trkpt lat="46.23457" lon="2.48528">
        <ele>390</ele>
        <time>2017-04-17T13:21:56Z</time>
      </trkpt>
      <trkpt lat="46.23453" lon="2.4853">
        <ele>390</ele>
        <time>2017-04-17T13:21:59Z</time>
      </trkpt>
      <trkpt lat="46.23449" lon="2.48532">
        <ele>390</ele>
        <time>2017-04-17T13:22:02Z</time>
      </trkpt>
      <trkpt lat="46.23443" lon="2.48535">
        <ele>390</ele>
        <time>2017-04-17T13:22:05Z</time>
      </trkpt>
      <trkpt lat="46.23439" lon="2.48538">
        <ele>390</ele>
        <time>2017-04-17T13:22:08Z</time>
      </trkpt>
      <trkpt lat="46.23435" lon="2.48539">
        <ele>390</ele>
        <time>2017-04-17T13:22:11Z</time>
      </trkpt>
      <trkpt lat="46.23431" lon="2.48541">
        <ele>390</ele>
        <time>2017-04-17T13:22:14Z</time>
      </trkpt>
      <trkpt lat="46.23427" lon="2.48542">
        <ele>390</ele>
        <time>2017-04-17T13:22:17Z</time>
      </trkpt>
      <trkpt lat="46.23423" lon="2.48542">
        <ele>390</ele>
        <time>2017-04-17T13:22:20Z</time>
      </trkpt>
      <trkpt lat="46.23419" lon="2.48545">
        <ele>390</ele>
        <time>2017-04-17T13:22:23Z</time>
      </trkpt>
      <trkpt lat="46.23414" lon="2.48547">
        <ele>391</ele>
        <time>2017-04-17T13:22:26Z</time>
      </trkpt>
      <trkpt lat="46.2341" lon="2.48549">
        <ele>393</ele>
        <time>2017-04-17T13:22:30Z</time>
      </trkpt>
      <trkpt lat="46.23405" lon="2.48551">
        <ele>395</ele>
        <time>2017-04-17T13:22:33Z</time>
      </trkpt>
      <trkpt lat="46.234" lon="2.48553">
        <ele>397</ele>
        <time>2017-04-17T13:22:36Z</time>
      </trkpt>
      <trkpt lat="46.23395" lon="2.48556">
        <ele>398</ele>
        <time>2017-04-17T13:22:39Z</time>
      </trkpt>
      <trkpt lat="46.23389" lon="2.48558">
        <ele>398</ele>
        <time>2017-04-17T13:22:42Z</time>
      </trkpt>
      <trkpt lat="46.23384" lon="2.48561">
        <ele>398</ele>
        <time>2017-04-17T13:22:45Z</time>
      </trkpt>
      <trkpt lat="46.23379" lon="2.48564">
        <ele>398</ele>
        <time>2017-04-17T13:22:48Z</time>
      </trkpt>
      <trkpt lat="46.23374" lon="2.48566">
        <ele>395</ele>
        <time>2017-04-17T13:22:51Z</time>
      </trkpt>
      <trkpt lat="46.23371" lon="2.48569">
        <ele>394</ele>
        <time>2017-04-17T13:22:54Z</time>
      </trkpt>
      <trkpt lat="46.23367" lon="2.48571">
        <ele>394</ele>
        <time>2017-04-17T13:22:57Z</time>
      </trkpt>
      <trkpt lat="46.23363" lon="2.48572">
        <ele>394</ele>
        <time>2017-04-17T13:23:00Z</time>
      </trkpt>
      <trkpt lat="46.2336" lon="2.48572">
        <ele>394</ele>
        <time>2017-04-17T13:23:03Z</time>
      </trkpt>
      <trkpt lat="46.23356" lon="2.48573">
        <ele>394</ele>
        <time>2017-04-17T13:23:06Z</time>
      </trkpt>
      <trkpt lat="46.23352" lon="2.48574">
        <ele>393</ele>
        <time>2017-04-17T13:23:09Z</time>
      </trkpt>
      <trkpt lat="46.23347" lon="2.48576">
        <ele>393</ele>
        <time>2017-04-17T13:23:13Z</time>
      </trkpt>
      <trkpt lat="46.23344" lon="2.48577">
        <ele>393</ele>
        <time>2017-04-17T13:23:16Z</time>
      </trkpt>
      <trkpt lat="46.23339" lon="2.4858">
        <ele>393</ele>
        <time>2017-04-17T13:23:20Z</time>
      </trkpt>
      <trkpt lat="46.23334" lon="2.48582">
        <ele>393</ele>
        <time>2017-04-17T13:23:24Z</time>
      </trkpt>
      <trkpt lat="46.2333" lon="2.48584">
        <ele>393</ele>
        <time>2017-04-17T13:23:27Z</time>
      </trkpt>
      <trkpt lat="46.23325" lon="2.48586">
        <ele>393</ele>
        <time>2017-04-17T13:23:30Z</time>
      </trkpt>
      <trkpt lat="46.2332" lon="2.48587">
        <ele>393</ele>
        <time>2017-04-17T13:23:33Z</time>
      </trkpt>
      <trkpt lat="46.23315" lon="2.48588">
        <ele>393</ele>
        <time>2017-04-17T13:23:36Z</time>
      </trkpt>
      <trkpt lat="46.2331" lon="2.4859">
        <ele>393</ele>
        <time>2017-04-17T13:23:39Z</time>
      </trkpt>
      <trkpt lat="46.23306" lon="2.48591">
        <ele>393</ele>
        <time>2017-04-17T13:23:42Z</time>
      </trkpt>
      <trkpt lat="46.23301" lon="2.48593">
        <ele>393</ele>
        <time>2017-04-17T13:23:45Z</time>
      </trkpt>
      <trkpt lat="46.23296" lon="2.48596">
        <ele>393</ele>
        <time>2017-04-17T13:23:48Z</time>
      </trkpt>
      <trkpt lat="46.23291" lon="2.48599">
        <ele>393</ele>
        <time>2017-04-17T13:23:51Z</time>
      </trkpt>
      <trkpt lat="46.23288" lon="2.48601">
        <ele>393</ele>
        <time>2017-04-17T13:23:54Z</time>
      </trkpt>
      <trkpt lat="46.23283" lon="2.48604">
        <ele>393</ele>
        <time>2017-04-17T13:23:57Z</time>
      </trkpt>
      <trkpt lat="46.23278" lon="2.48605">
        <ele>391</ele>
        <time>2017-04-17T13:24:00Z</time>
      </trkpt>
      <trkpt lat="46.23274" lon="2.48609">
        <ele>388</ele>
        <time>2017-04-17T13:24:03Z</time>
      </trkpt>
      <trkpt lat="46.23271" lon="2.48613">
        <ele>385</ele>
        <time>2017-04-17T13:24:07Z</time>
      </trkpt>
      <trkpt lat="46.23269" lon="2.48619">
        <ele>383</ele>
        <time>2017-04-17T13:24:11Z</time>
      </trkpt>
      <trkpt lat="46.23269" lon="2.48624">
        <ele>382</ele>
        <time>2017-04-17T13:24:15Z</time>
      </trkpt>
      <trkpt lat="46.2327" lon="2.4863">
        <ele>381</ele>
        <time>2017-04-17T13:24:18Z</time>
      </trkpt>
      <trkpt lat="46.23272" lon="2.48635">
        <ele>379</ele>
        <time>2017-04-17T13:24:21Z</time>
      </trkpt>
      <trkpt lat="46.23273" lon="2.48641">
        <ele>377</ele>
        <time>2017-04-17T13:24:25Z</time>
      </trkpt>
      <trkpt lat="46.23276" lon="2.48645">
        <ele>375</ele>
        <time>2017-04-17T13:24:29Z</time>
      </trkpt>
      <trkpt lat="46.23277" lon="2.48647">
        <ele>374</ele>
        <time>2017-04-17T13:24:32Z</time>
      </trkpt>
      <trkpt lat="46.23279" lon="2.48649">
        <ele>374</ele>
        <time>2017-04-17T13:24:36Z</time>
      </trkpt>
      <trkpt lat="46.23283" lon="2.48654">
        <ele>373</ele>
        <time>2017-04-17T13:24:40Z</time>
      </trkpt>
      <trkpt lat="46.23285" lon="2.48657">
        <ele>373</ele>
        <time>2017-04-17T13:24:43Z</time>
      </trkpt>
      <trkpt lat="46.23289" lon="2.48662">
        <ele>373</ele>
        <time>2017-04-17T13:24:47Z</time>
      </trkpt>
      <trkpt lat="46.23294" lon="2.48666">
        <ele>373</ele>
        <time>2017-04-17T13:24:51Z</time>
      </trkpt>
      <trkpt lat="46.23297" lon="2.4867">
        <ele>372</ele>
        <time>2017-04-17T13:24:54Z</time>
      </trkpt>
      <trkpt lat="46.23299" lon="2.48675">
        <ele>372</ele>
        <time>2017-04-17T13:24:57Z</time>
      </trkpt>
      <trkpt lat="46.23299" lon="2.48681">
        <ele>372</ele>
        <time>2017-04-17T13:25:00Z</time>
      </trkpt>
      <trkpt lat="46.23302" lon="2.48686">
        <ele>372</ele>
        <time>2017-04-17T13:25:03Z</time>
      </trkpt>
      <trkpt lat="46.23302" lon="2.48695">
        <ele>372</ele>
        <time>2017-04-17T13:25:06Z</time>
      </trkpt>
      <trkpt lat="46.23303" lon="2.48702">
        <ele>372</ele>
        <time>2017-04-17T13:25:10Z</time>
      </trkpt>
      <trkpt lat="46.23305" lon="2.48707">
        <ele>371</ele>
        <time>2017-04-17T13:25:13Z</time>
      </trkpt>
      <trkpt lat="46.23306" lon="2.48714">
        <ele>370</ele>
        <time>2017-04-17T13:25:16Z</time>
      </trkpt>
      <trkpt lat="46.23307" lon="2.48721">
        <ele>370</ele>
        <time>2017-04-17T13:25:19Z</time>
      </trkpt>
      <trkpt lat="46.23309" lon="2.48727">
        <ele>370</ele>
        <time>2017-04-17T13:25:22Z</time>
      </trkpt>
      <trkpt lat="46.23312" lon="2.4873">
        <ele>370</ele>
        <time>2017-04-17T13:25:25Z</time>
      </trkpt>
      <trkpt lat="46.23317" lon="2.4873">
        <ele>370</ele>
        <time>2017-04-17T13:25:28Z</time>
      </trkpt>
      <trkpt lat="46.23321" lon="2.48732">
        <ele>370</ele>
        <time>2017-04-17T13:25:31Z</time>
      </trkpt>
      <trkpt lat="46.23325" lon="2.48737">
        <ele>370</ele>
        <time>2017-04-17T13:25:34Z</time>
      </trkpt>
      <trkpt lat="46.23326" lon="2.48742">
        <ele>370</ele>
        <time>2017-04-17T13:25:37Z</time>
      </trkpt>
      <trkpt lat="46.23328" lon="2.48747">
        <ele>370</ele>
        <time>2017-04-17T13:25:40Z</time>
      </trkpt>
      <trkpt lat="46.23329" lon="2.48753">
        <ele>370</ele>
        <time>2017-04-17T13:25:43Z</time>
      </trkpt>
      <trkpt lat="46.23331" lon="2.48759">
        <ele>370</ele>
        <time>2017-04-17T13:25:46Z</time>
      </trkpt>
      <trkpt lat="46.23332" lon="2.48764">
        <ele>370</ele>
        <time>2017-04-17T13:25:49Z</time>
      </trkpt>
      <trkpt lat="46.23334" lon="2.48769">
        <ele>370</ele>
        <time>2017-04-17T13:25:52Z</time>
      </trkpt>
      <trkpt lat="46.23335" lon="2.48775">
        <ele>370</ele>
        <time>2017-04-17T13:25:55Z</time>
      </trkpt>
      <trkpt lat="46.23337" lon="2.4878">
        <ele>370</ele>
        <time>2017-04-17T13:25:58Z</time>
      </trkpt>
      <trkpt lat="46.23338" lon="2.48786">
        <ele>370</ele>
        <time>2017-04-17T13:26:01Z</time>
      </trkpt>
      <trkpt lat="46.23339" lon="2.48792">
        <ele>370</ele>
        <time>2017-04-17T13:26:04Z</time>
      </trkpt>
      <trkpt lat="46.2334" lon="2.48797">
        <ele>370</ele>
        <time>2017-04-17T13:26:07Z</time>
      </trkpt>
      <trkpt lat="46.23341" lon="2.48803">
        <ele>370</ele>
        <time>2017-04-17T13:26:10Z</time>
      </trkpt>
      <trkpt lat="46.23343" lon="2.48808">
        <ele>370</ele>
        <time>2017-04-17T13:26:13Z</time>
      </trkpt>
      <trkpt lat="46.23344" lon="2.48814">
        <ele>370</ele>
        <time>2017-04-17T13:26:16Z</time>
      </trkpt>
      <trkpt lat="46.23345" lon="2.48819">
        <ele>370</ele>
        <time>2017-04-17T13:26:19Z</time>
      </trkpt>
      <trkpt lat="46.23346" lon="2.48825">
        <ele>370</ele>
        <time>2017-04-17T13:26:22Z</time>
      </trkpt>
      <trkpt lat="46.23347" lon="2.4883">
        <ele>370</ele>
        <time>2017-04-17T13:26:25Z</time>
      </trkpt>
      <trkpt lat="46.23349" lon="2.48835">
        <ele>370</ele>
        <time>2017-04-17T13:26:28Z</time>
      </trkpt>
      <trkpt lat="46.2335" lon="2.4884">
        <ele>370</ele>
        <time>2017-04-17T13:26:31Z</time>
      </trkpt>
      <trkpt lat="46.23352" lon="2.48844">
        <ele>370</ele>
        <time>2017-04-17T13:26:34Z</time>
      </trkpt>
      <trkpt lat="46.23354" lon="2.48849">
        <ele>370</ele>
        <time>2017-04-17T13:26:37Z</time>
      </trkpt>
      <trkpt lat="46.23356" lon="2.48854">
        <ele>370</ele>
        <time>2017-04-17T13:26:40Z</time>
      </trkpt>
      <trkpt lat="46.23359" lon="2.48859">
        <ele>369</ele>
        <time>2017-04-17T13:26:44Z</time>
      </trkpt>
      <trkpt lat="46.23361" lon="2.48864">
        <ele>368</ele>
        <time>2017-04-17T13:26:47Z</time>
      </trkpt>
      <trkpt lat="46.23363" lon="2.48868">
        <ele>368</ele>
        <time>2017-04-17T13:26:50Z</time>
      </trkpt>
      <trkpt lat="46.23365" lon="2.48872">
        <ele>368</ele>
        <time>2017-04-17T13:26:53Z</time>
      </trkpt>
      <trkpt lat="46.23368" lon="2.48878">
        <ele>367</ele>
        <time>2017-04-17T13:26:57Z</time>
      </trkpt>
      <trkpt lat="46.2337" lon="2.48882">
        <ele>366</ele>
        <time>2017-04-17T13:27:00Z</time>
      </trkpt>
      <trkpt lat="46.23371" lon="2.48886">
        <ele>365</ele>
        <time>2017-04-17T13:27:03Z</time>
      </trkpt>
      <trkpt lat="46.23373" lon="2.4889">
        <ele>365</ele>
        <time>2017-04-17T13:27:06Z</time>
      </trkpt>
      <trkpt lat="46.23375" lon="2.48896">
        <ele>364</ele>
        <time>2017-04-17T13:27:10Z</time>
      </trkpt>
      <trkpt lat="46.23377" lon="2.489">
        <ele>362</ele>
        <time>2017-04-17T13:27:14Z</time>
      </trkpt>
      <trkpt lat="46.2338" lon="2.489">
        <ele>361</ele>
        <time>2017-04-17T13:27:17Z</time>
      </trkpt>
      <trkpt lat="46.23383" lon="2.48898">
        <ele>361</ele>
        <time>2017-04-17T13:27:21Z</time>
      </trkpt>
      <trkpt lat="46.23384" lon="2.489">
        <ele>361</ele>
        <time>2017-04-17T13:27:35Z</time>
      </trkpt>
      <trkpt lat="46.23383" lon="2.48905">
        <ele>361</ele>
        <time>2017-04-17T13:27:39Z</time>
      </trkpt>
      <trkpt lat="46.23381" lon="2.4891">
        <ele>360</ele>
        <time>2017-04-17T13:27:42Z</time>
      </trkpt>
      <trkpt lat="46.23381" lon="2.48916">
        <ele>360</ele>
        <time>2017-04-17T13:27:45Z</time>
      </trkpt>
      <trkpt lat="46.23381" lon="2.48921">
        <ele>360</ele>
        <time>2017-04-17T13:27:48Z</time>
      </trkpt>
      <trkpt lat="46.23382" lon="2.48928">
        <ele>360</ele>
        <time>2017-04-17T13:27:51Z</time>
      </trkpt>
      <trkpt lat="46.23382" lon="2.48934">
        <ele>359</ele>
        <time>2017-04-17T13:27:54Z</time>
      </trkpt>
      <trkpt lat="46.23383" lon="2.4894">
        <ele>359</ele>
        <time>2017-04-17T13:27:57Z</time>
      </trkpt>
      <trkpt lat="46.23383" lon="2.48946">
        <ele>358</ele>
        <time>2017-04-17T13:28:00Z</time>
      </trkpt>
      <trkpt lat="46.23384" lon="2.48952">
        <ele>358</ele>
        <time>2017-04-17T13:28:03Z</time>
      </trkpt>
      <trkpt lat="46.23384" lon="2.48958">
        <ele>358</ele>
        <time>2017-04-17T13:28:06Z</time>
      </trkpt>
      <trkpt lat="46.23385" lon="2.48964">
        <ele>358</ele>
        <time>2017-04-17T13:28:09Z</time>
      </trkpt>
      <trkpt lat="46.23385" lon="2.48971">
        <ele>358</ele>
        <time>2017-04-17T13:28:12Z</time>
      </trkpt>
      <trkpt lat="46.23385" lon="2.48976">
        <ele>358</ele>
        <time>2017-04-17T13:28:15Z</time>
      </trkpt>
      <trkpt lat="46.23386" lon="2.48982">
        <ele>357</ele>
        <time>2017-04-17T13:28:18Z</time>
      </trkpt>
      <trkpt lat="46.23384" lon="2.48987">
        <ele>356</ele>
        <time>2017-04-17T13:28:21Z</time>
      </trkpt>
      <trkpt lat="46.23384" lon="2.48994">
        <ele>355</ele>
        <time>2017-04-17T13:28:24Z</time>
      </trkpt>
      <trkpt lat="46.23384" lon="2.48998">
        <ele>355</ele>
        <time>2017-04-17T13:28:27Z</time>
      </trkpt>
      <trkpt lat="46.23383" lon="2.49004">
        <ele>355</ele>
        <time>2017-04-17T13:28:30Z</time>
      </trkpt>
      <trkpt lat="46.23384" lon="2.49009">
        <ele>355</ele>
        <time>2017-04-17T13:28:33Z</time>
      </trkpt>
      <trkpt lat="46.23383" lon="2.49016">
        <ele>355</ele>
        <time>2017-04-17T13:28:36Z</time>
      </trkpt>
      <trkpt lat="46.23383" lon="2.49022">
        <ele>355</ele>
        <time>2017-04-17T13:28:39Z</time>
      </trkpt>
      <trkpt lat="46.23383" lon="2.49028">
        <ele>355</ele>
        <time>2017-04-17T13:28:42Z</time>
      </trkpt>
      <trkpt lat="46.23383" lon="2.49034">
        <ele>355</ele>
        <time>2017-04-17T13:28:45Z</time>
      </trkpt>
      <trkpt lat="46.23383" lon="2.4904">
        <ele>355</ele>
        <time>2017-04-17T13:28:48Z</time>
      </trkpt>
      <trkpt lat="46.23383" lon="2.49047">
        <ele>357</ele>
        <time>2017-04-17T13:28:51Z</time>
      </trkpt>
      <trkpt lat="46.23383" lon="2.49055">
        <ele>358</ele>
        <time>2017-04-17T13:28:54Z</time>
      </trkpt>
      <trkpt lat="46.23382" lon="2.4906">
        <ele>358</ele>
        <time>2017-04-17T13:28:57Z</time>
      </trkpt>
      <trkpt lat="46.2338" lon="2.49066">
        <ele>359</ele>
        <time>2017-04-17T13:29:00Z</time>
      </trkpt>
      <trkpt lat="46.23377" lon="2.49072">
        <ele>359</ele>
        <time>2017-04-17T13:29:03Z</time>
      </trkpt>
      <trkpt lat="46.23375" lon="2.49078">
        <ele>359</ele>
        <time>2017-04-17T13:29:06Z</time>
      </trkpt>
      <trkpt lat="46.23372" lon="2.49085">
        <ele>361</ele>
        <time>2017-04-17T13:29:10Z</time>
      </trkpt>
      <trkpt lat="46.2337" lon="2.49089">
        <ele>362</ele>
        <time>2017-04-17T13:29:13Z</time>
      </trkpt>
      <trkpt lat="46.23368" lon="2.49093">
        <ele>363</ele>
        <time>2017-04-17T13:29:16Z</time>
      </trkpt>
      <trkpt lat="46.23365" lon="2.49098">
        <ele>363</ele>
        <time>2017-04-17T13:29:19Z</time>
      </trkpt>
      <trkpt lat="46.23362" lon="2.49104">
        <ele>364</ele>
        <time>2017-04-17T13:29:22Z</time>
      </trkpt>
      <trkpt lat="46.23358" lon="2.49107">
        <ele>364</ele>
        <time>2017-04-17T13:29:25Z</time>
      </trkpt>
      <trkpt lat="46.23355" lon="2.49111">
        <ele>364</ele>
        <time>2017-04-17T13:29:28Z</time>
      </trkpt>
      <trkpt lat="46.23352" lon="2.49117">
        <ele>364</ele>
        <time>2017-04-17T13:29:31Z</time>
      </trkpt>
      <trkpt lat="46.23349" lon="2.4912">
        <ele>364</ele>
        <time>2017-04-17T13:29:34Z</time>
      </trkpt>
      <trkpt lat="46.23346" lon="2.49128">
        <ele>364</ele>
        <time>2017-04-17T13:29:37Z</time>
      </trkpt>
      <trkpt lat="46.23341" lon="2.49134">
        <ele>364</ele>
        <time>2017-04-17T13:29:40Z</time>
      </trkpt>
      <trkpt lat="46.23339" lon="2.49139">
        <ele>364</ele>
        <time>2017-04-17T13:29:44Z</time>
      </trkpt>
      <trkpt lat="46.23334" lon="2.49146">
        <ele>364</ele>
        <time>2017-04-17T13:29:49Z</time>
      </trkpt>
      <trkpt lat="46.23331" lon="2.49151">
        <ele>363</ele>
        <time>2017-04-17T13:29:52Z</time>
      </trkpt>
      <trkpt lat="46.23328" lon="2.49155">
        <ele>362</ele>
        <time>2017-04-17T13:29:55Z</time>
      </trkpt>
      <trkpt lat="46.23324" lon="2.49158">
        <ele>361</ele>
        <time>2017-04-17T13:29:58Z</time>
      </trkpt>
      <trkpt lat="46.23321" lon="2.49164">
        <ele>361</ele>
        <time>2017-04-17T13:30:01Z</time>
      </trkpt>
      <trkpt lat="46.23317" lon="2.49167">
        <ele>361</ele>
        <time>2017-04-17T13:30:04Z</time>
      </trkpt>
      <trkpt lat="46.23314" lon="2.4917">
        <ele>361</ele>
        <time>2017-04-17T13:30:07Z</time>
      </trkpt>
      <trkpt lat="46.2331" lon="2.49174">
        <ele>361</ele>
        <time>2017-04-17T13:30:10Z</time>
      </trkpt>
      <trkpt lat="46.23306" lon="2.4918">
        <ele>361</ele>
        <time>2017-04-17T13:30:13Z</time>
      </trkpt>
      <trkpt lat="46.23302" lon="2.49184">
        <ele>361</ele>
        <time>2017-04-17T13:30:16Z</time>
      </trkpt>
      <trkpt lat="46.23299" lon="2.49189">
        <ele>361</ele>
        <time>2017-04-17T13:30:21Z</time>
      </trkpt>
      <trkpt lat="46.23295" lon="2.49195">
        <ele>361</ele>
        <time>2017-04-17T13:30:24Z</time>
      </trkpt>
      <trkpt lat="46.23293" lon="2.49201">
        <ele>361</ele>
        <time>2017-04-17T13:30:27Z</time>
      </trkpt>
      <trkpt lat="46.23291" lon="2.49206">
        <ele>362</ele>
        <time>2017-04-17T13:30:31Z</time>
      </trkpt>
      <trkpt lat="46.23289" lon="2.49213">
        <ele>363</ele>
        <time>2017-04-17T13:30:34Z</time>
      </trkpt>
      <trkpt lat="46.23287" lon="2.49218">
        <ele>364</ele>
        <time>2017-04-17T13:30:37Z</time>
      </trkpt>
      <trkpt lat="46.23285" lon="2.49223">
        <ele>365</ele>
        <time>2017-04-17T13:30:40Z</time>
      </trkpt>
      <trkpt lat="46.23283" lon="2.49228">
        <ele>366</ele>
        <time>2017-04-17T13:30:43Z</time>
      </trkpt>
      <trkpt lat="46.23282" lon="2.49233">
        <ele>366</ele>
        <time>2017-04-17T13:30:47Z</time>
      </trkpt>
      <trkpt lat="46.2328" lon="2.49241">
        <ele>366</ele>
        <time>2017-04-17T13:30:50Z</time>
      </trkpt>
      <trkpt lat="46.23279" lon="2.49246">
        <ele>366</ele>
        <time>2017-04-17T13:30:53Z</time>
      </trkpt>
      <trkpt lat="46.23277" lon="2.49252">
        <ele>366</ele>
        <time>2017-04-17T13:30:56Z</time>
      </trkpt>
      <trkpt lat="46.23275" lon="2.49257">
        <ele>366</ele>
        <time>2017-04-17T13:30:59Z</time>
      </trkpt>
      <trkpt lat="46.23274" lon="2.49264">
        <ele>366</ele>
        <time>2017-04-17T13:31:02Z</time>
      </trkpt>
      <trkpt lat="46.23274" lon="2.4927">
        <ele>366</ele>
        <time>2017-04-17T13:31:05Z</time>
      </trkpt>
      <trkpt lat="46.23275" lon="2.49275">
        <ele>366</ele>
        <time>2017-04-17T13:31:08Z</time>
      </trkpt>
      <trkpt lat="46.23277" lon="2.49278">
        <ele>365</ele>
        <time>2017-04-17T13:31:12Z</time>
      </trkpt>
      <trkpt lat="46.2328" lon="2.49281">
        <ele>363</ele>
        <time>2017-04-17T13:31:15Z</time>
      </trkpt>
      <trkpt lat="46.23283" lon="2.49284">
        <ele>361</ele>
        <time>2017-04-17T13:31:19Z</time>
      </trkpt>
      <trkpt lat="46.23285" lon="2.49288">
        <ele>361</ele>
        <time>2017-04-17T13:31:23Z</time>
      </trkpt>
      <trkpt lat="46.23288" lon="2.49289">
        <ele>361</ele>
        <time>2017-04-17T13:31:26Z</time>
      </trkpt>
      <trkpt lat="46.23292" lon="2.49291">
        <ele>359</ele>
        <time>2017-04-17T13:31:30Z</time>
      </trkpt>
      <trkpt lat="46.23296" lon="2.49293">
        <ele>358</ele>
        <time>2017-04-17T13:31:33Z</time>
      </trkpt>
      <trkpt lat="46.23299" lon="2.49293">
        <ele>358</ele>
        <time>2017-04-17T13:31:36Z</time>
      </trkpt>
      <trkpt lat="46.23302" lon="2.49292">
        <ele>357</ele>
        <time>2017-04-17T13:31:39Z</time>
      </trkpt>
      <trkpt lat="46.23307" lon="2.49292">
        <ele>357</ele>
        <time>2017-04-17T13:31:42Z</time>
      </trkpt>
      <trkpt lat="46.23312" lon="2.49293">
        <ele>357</ele>
        <time>2017-04-17T13:31:45Z</time>
      </trkpt>
      <trkpt lat="46.23317" lon="2.49292">
        <ele>357</ele>
        <time>2017-04-17T13:31:48Z</time>
      </trkpt>
      <trkpt lat="46.23322" lon="2.49289">
        <ele>357</ele>
        <time>2017-04-17T13:31:51Z</time>
      </trkpt>
      <trkpt lat="46.23326" lon="2.49286">
        <ele>357</ele>
        <time>2017-04-17T13:31:54Z</time>
      </trkpt>
      <trkpt lat="46.2333" lon="2.49282">
        <ele>357</ele>
        <time>2017-04-17T13:31:58Z</time>
      </trkpt>
      <trkpt lat="46.23335" lon="2.49279">
        <ele>356</ele>
        <time>2017-04-17T13:32:01Z</time>
      </trkpt>
      <trkpt lat="46.23338" lon="2.49277">
        <ele>355</ele>
        <time>2017-04-17T13:32:04Z</time>
      </trkpt>
      <trkpt lat="46.23342" lon="2.49275">
        <ele>354</ele>
        <time>2017-04-17T13:32:07Z</time>
      </trkpt>
      <trkpt lat="46.23346" lon="2.49275">
        <ele>352</ele>
        <time>2017-04-17T13:32:11Z</time>
      </trkpt>
      <trkpt lat="46.23353" lon="2.49274">
        <ele>350</ele>
        <time>2017-04-17T13:32:14Z</time>
      </trkpt>
      <trkpt lat="46.23358" lon="2.49274">
        <ele>348</ele>
        <time>2017-04-17T13:32:17Z</time>
      </trkpt>
      <trkpt lat="46.23361" lon="2.49274">
        <ele>345</ele>
        <time>2017-04-17T13:32:20Z</time>
      </trkpt>
      <trkpt lat="46.23365" lon="2.49273">
        <ele>342</ele>
        <time>2017-04-17T13:32:23Z</time>
      </trkpt>
      <trkpt lat="46.23368" lon="2.49272">
        <ele>340</ele>
        <time>2017-04-17T13:32:26Z</time>
      </trkpt>
      <trkpt lat="46.23373" lon="2.49272">
        <ele>337</ele>
        <time>2017-04-17T13:32:29Z</time>
      </trkpt>
      <trkpt lat="46.23377" lon="2.49275">
        <ele>335</ele>
        <time>2017-04-17T13:32:32Z</time>
      </trkpt>
      <trkpt lat="46.23382" lon="2.49278">
        <ele>334</ele>
        <time>2017-04-17T13:32:35Z</time>
      </trkpt>
      <trkpt lat="46.23386" lon="2.49282">
        <ele>334</ele>
        <time>2017-04-17T13:32:38Z</time>
      </trkpt>
      <trkpt lat="46.23389" lon="2.49289">
        <ele>334</ele>
        <time>2017-04-17T13:32:42Z</time>
      </trkpt>
      <trkpt lat="46.23393" lon="2.49293">
        <ele>334</ele>
        <time>2017-04-17T13:32:45Z</time>
      </trkpt>
      <trkpt lat="46.23398" lon="2.49298">
        <ele>334</ele>
        <time>2017-04-17T13:32:48Z</time>
      </trkpt>
      <trkpt lat="46.23404" lon="2.49303">
        <ele>336</ele>
        <time>2017-04-17T13:32:51Z</time>
      </trkpt>
      <trkpt lat="46.23409" lon="2.49308">
        <ele>336</ele>
        <time>2017-04-17T13:32:54Z</time>
      </trkpt>
      <trkpt lat="46.23412" lon="2.49311">
        <ele>336</ele>
        <time>2017-04-17T13:32:57Z</time>
      </trkpt>
      <trkpt lat="46.23416" lon="2.49314">
        <ele>336</ele>
        <time>2017-04-17T13:33:00Z</time>
      </trkpt>
      <trkpt lat="46.2342" lon="2.49319">
        <ele>336</ele>
        <time>2017-04-17T13:33:03Z</time>
      </trkpt>
      <trkpt lat="46.23423" lon="2.49323">
        <ele>337</ele>
        <time>2017-04-17T13:33:06Z</time>
      </trkpt>
      <trkpt lat="46.23427" lon="2.49328">
        <ele>337</ele>
        <time>2017-04-17T13:33:09Z</time>
      </trkpt>
      <trkpt lat="46.23431" lon="2.49332">
        <ele>337</ele>
        <time>2017-04-17T13:33:12Z</time>
      </trkpt>
      <trkpt lat="46.23433" lon="2.49337">
        <ele>337</ele>
        <time>2017-04-17T13:33:15Z</time>
      </trkpt>
      <trkpt lat="46.23435" lon="2.49342">
        <ele>337</ele>
        <time>2017-04-17T13:33:18Z</time>
      </trkpt>
      <trkpt lat="46.23437" lon="2.49347">
        <ele>337</ele>
        <time>2017-04-17T13:33:21Z</time>
      </trkpt>
      <trkpt lat="46.23441" lon="2.49352">
        <ele>336</ele>
        <time>2017-04-17T13:33:24Z</time>
      </trkpt>
      <trkpt lat="46.23443" lon="2.49358">
        <ele>336</ele>
        <time>2017-04-17T13:33:27Z</time>
      </trkpt>
      <trkpt lat="46.23444" lon="2.49365">
        <ele>334</ele>
        <time>2017-04-17T13:33:30Z</time>
      </trkpt>
      <trkpt lat="46.23445" lon="2.49372">
        <ele>333</ele>
        <time>2017-04-17T13:33:33Z</time>
      </trkpt>
      <trkpt lat="46.23448" lon="2.49379">
        <ele>333</ele>
        <time>2017-04-17T13:33:37Z</time>
      </trkpt>
      <trkpt lat="46.23451" lon="2.49384">
        <ele>333</ele>
        <time>2017-04-17T13:33:40Z</time>
      </trkpt>
      <trkpt lat="46.23454" lon="2.49391">
        <ele>333</ele>
        <time>2017-04-17T13:33:43Z</time>
      </trkpt>
      <trkpt lat="46.23456" lon="2.49397">
        <ele>333</ele>
        <time>2017-04-17T13:33:46Z</time>
      </trkpt>
      <trkpt lat="46.23457" lon="2.49403">
        <ele>333</ele>
        <time>2017-04-17T13:33:49Z</time>
      </trkpt>
      <trkpt lat="46.2346" lon="2.49406">
        <ele>333</ele>
        <time>2017-04-17T13:33:52Z</time>
      </trkpt>
      <trkpt lat="46.23463" lon="2.49413">
        <ele>333</ele>
        <time>2017-04-17T13:33:55Z</time>
      </trkpt>
      <trkpt lat="46.23465" lon="2.49417">
        <ele>333</ele>
        <time>2017-04-17T13:33:58Z</time>
      </trkpt>
      <trkpt lat="46.23467" lon="2.49423">
        <ele>333</ele>
        <time>2017-04-17T13:34:03Z</time>
      </trkpt>
      <trkpt lat="46.2347" lon="2.49425">
        <ele>333</ele>
        <time>2017-04-17T13:34:06Z</time>
      </trkpt>
      <trkpt lat="46.23475" lon="2.49428">
        <ele>333</ele>
        <time>2017-04-17T13:34:09Z</time>
      </trkpt>
      <trkpt lat="46.23479" lon="2.49431">
        <ele>333</ele>
        <time>2017-04-17T13:34:12Z</time>
      </trkpt>
      <trkpt lat="46.23482" lon="2.49436">
        <ele>332</ele>
        <time>2017-04-17T13:34:15Z</time>
      </trkpt>
      <trkpt lat="46.23486" lon="2.49441">
        <ele>330</ele>
        <time>2017-04-17T13:34:18Z</time>
      </trkpt>
      <trkpt lat="46.23492" lon="2.49446">
        <ele>328</ele>
        <time>2017-04-17T13:34:21Z</time>
      </trkpt>
      <trkpt lat="46.23495" lon="2.49451">
        <ele>327</ele>
        <time>2017-04-17T13:34:24Z</time>
      </trkpt>
      <trkpt lat="46.23497" lon="2.49455">
        <ele>327</ele>
        <time>2017-04-17T13:34:27Z</time>
      </trkpt>
      <trkpt lat="46.235" lon="2.49462">
        <ele>327</ele>
        <time>2017-04-17T13:34:30Z</time>
      </trkpt>
      <trkpt lat="46.23504" lon="2.49465">
        <ele>327</ele>
        <time>2017-04-17T13:34:33Z</time>
      </trkpt>
      <trkpt lat="46.23508" lon="2.49469">
        <ele>327</ele>
        <time>2017-04-17T13:34:36Z</time>
      </trkpt>
      <trkpt lat="46.23512" lon="2.49475">
        <ele>328</ele>
        <time>2017-04-17T13:34:40Z</time>
      </trkpt>
      <trkpt lat="46.23514" lon="2.4948">
        <ele>328</ele>
        <time>2017-04-17T13:34:43Z</time>
      </trkpt>
      <trkpt lat="46.23515" lon="2.49486">
        <ele>328</ele>
        <time>2017-04-17T13:34:46Z</time>
      </trkpt>
      <trkpt lat="46.23516" lon="2.49492">
        <ele>328</ele>
        <time>2017-04-17T13:34:49Z</time>
      </trkpt>
      <trkpt lat="46.23514" lon="2.49499">
        <ele>328</ele>
        <time>2017-04-17T13:34:52Z</time>
      </trkpt>
      <trkpt lat="46.23515" lon="2.49504">
        <ele>328</ele>
        <time>2017-04-17T13:34:55Z</time>
      </trkpt>
      <trkpt lat="46.23516" lon="2.49511">
        <ele>328</ele>
        <time>2017-04-17T13:34:58Z</time>
      </trkpt>
      <trkpt lat="46.23516" lon="2.49519">
        <ele>328</ele>
        <time>2017-04-17T13:35:01Z</time>
      </trkpt>
      <trkpt lat="46.23515" lon="2.49525">
        <ele>328</ele>
        <time>2017-04-17T13:35:04Z</time>
      </trkpt>
      <trkpt lat="46.23515" lon="2.49531">
        <ele>328</ele>
        <time>2017-04-17T13:35:07Z</time>
      </trkpt>
      <trkpt lat="46.23512" lon="2.49539">
        <ele>328</ele>
        <time>2017-04-17T13:35:11Z</time>
      </trkpt>
      <trkpt lat="46.23512" lon="2.49547">
        <ele>327</ele>
        <time>2017-04-17T13:35:14Z</time>
      </trkpt>
      <trkpt lat="46.23513" lon="2.49555">
        <ele>327</ele>
        <time>2017-04-17T13:35:17Z</time>
      </trkpt>
      <trkpt lat="46.23513" lon="2.49562">
        <ele>327</ele>
        <time>2017-04-17T13:35:20Z</time>
      </trkpt>
      <trkpt lat="46.23513" lon="2.49566">
        <ele>327</ele>
        <time>2017-04-17T13:35:23Z</time>
      </trkpt>
      <trkpt lat="46.23516" lon="2.49572">
        <ele>325</ele>
        <time>2017-04-17T13:35:27Z</time>
      </trkpt>
      <trkpt lat="46.23518" lon="2.49575">
        <ele>325</ele>
        <time>2017-04-17T13:35:31Z</time>
      </trkpt>
      <trkpt lat="46.23519" lon="2.49577">
        <ele>325</ele>
        <time>2017-04-17T13:35:34Z</time>
      </trkpt>
      <trkpt lat="46.2352" lon="2.4958">
        <ele>325</ele>
        <time>2017-04-17T13:35:38Z</time>
      </trkpt>
      <trkpt lat="46.23523" lon="2.49584">
        <ele>325</ele>
        <time>2017-04-17T13:35:42Z</time>
      </trkpt>
      <trkpt lat="46.23526" lon="2.49587">
        <ele>325</ele>
        <time>2017-04-17T13:35:46Z</time>
      </trkpt>
      <trkpt lat="46.23526" lon="2.49593">
        <ele>324</ele>
        <time>2017-04-17T13:35:49Z</time>
      </trkpt>
      <trkpt lat="46.23523" lon="2.49598">
        <ele>322</ele>
        <time>2017-04-17T13:35:52Z</time>
      </trkpt>
      <trkpt lat="46.23521" lon="2.49604">
        <ele>321</ele>
        <time>2017-04-17T13:35:55Z</time>
      </trkpt>
      <trkpt lat="46.2352" lon="2.4961">
        <ele>319</ele>
        <time>2017-04-17T13:35:58Z</time>
      </trkpt>
      <trkpt lat="46.23519" lon="2.49619">
        <ele>317</ele>
        <time>2017-04-17T13:36:01Z</time>
      </trkpt>
      <trkpt lat="46.23518" lon="2.49626">
        <ele>317</ele>
        <time>2017-04-17T13:36:04Z</time>
      </trkpt>
      <trkpt lat="46.23518" lon="2.49633">
        <ele>317</ele>
        <time>2017-04-17T13:36:07Z</time>
      </trkpt>
      <trkpt lat="46.23515" lon="2.4964">
        <ele>317</ele>
        <time>2017-04-17T13:36:10Z</time>
      </trkpt>
      <trkpt lat="46.23514" lon="2.49647">
        <ele>317</ele>
        <time>2017-04-17T13:36:13Z</time>
      </trkpt>
      <trkpt lat="46.23512" lon="2.49653">
        <ele>317</ele>
        <time>2017-04-17T13:36:16Z</time>
      </trkpt>
      <trkpt lat="46.2351" lon="2.49657">
        <ele>316</ele>
        <time>2017-04-17T13:36:19Z</time>
      </trkpt>
      <trkpt lat="46.23508" lon="2.49662">
        <ele>316</ele>
        <time>2017-04-17T13:36:22Z</time>
      </trkpt>
      <trkpt lat="46.23505" lon="2.49669">
        <ele>316</ele>
        <time>2017-04-17T13:36:25Z</time>
      </trkpt>
      <trkpt lat="46.23503" lon="2.49675">
        <ele>316</ele>
        <time>2017-04-17T13:36:28Z</time>
      </trkpt>
      <trkpt lat="46.235" lon="2.49681">
        <ele>316</ele>
        <time>2017-04-17T13:36:32Z</time>
      </trkpt>
      <trkpt lat="46.23499" lon="2.49688">
        <ele>315</ele>
        <time>2017-04-17T13:36:35Z</time>
      </trkpt>
      <trkpt lat="46.23497" lon="2.49694">
        <ele>315</ele>
        <time>2017-04-17T13:36:38Z</time>
      </trkpt>
      <trkpt lat="46.23496" lon="2.49699">
        <ele>314</ele>
        <time>2017-04-17T13:36:41Z</time>
      </trkpt>
      <trkpt lat="46.23494" lon="2.49705">
        <ele>313</ele>
        <time>2017-04-17T13:36:44Z</time>
      </trkpt>
      <trkpt lat="46.23493" lon="2.49711">
        <ele>312</ele>
        <time>2017-04-17T13:36:47Z</time>
      </trkpt>
      <trkpt lat="46.23492" lon="2.49716">
        <ele>312</ele>
        <time>2017-04-17T13:36:50Z</time>
      </trkpt>
      <trkpt lat="46.23491" lon="2.49723">
        <ele>312</ele>
        <time>2017-04-17T13:36:53Z</time>
      </trkpt>
      <trkpt lat="46.23491" lon="2.49729">
        <ele>312</ele>
        <time>2017-04-17T13:36:56Z</time>
      </trkpt>
      <trkpt lat="46.23489" lon="2.49735">
        <ele>312</ele>
        <time>2017-04-17T13:36:59Z</time>
      </trkpt>
      <trkpt lat="46.23488" lon="2.49742">
        <ele>312</ele>
        <time>2017-04-17T13:37:02Z</time>
      </trkpt>
      <trkpt lat="46.23487" lon="2.49748">
        <ele>312</ele>
        <time>2017-04-17T13:37:05Z</time>
      </trkpt>
      <trkpt lat="46.23487" lon="2.49754">
        <ele>312</ele>
        <time>2017-04-17T13:37:08Z</time>
      </trkpt>
      <trkpt lat="46.23487" lon="2.4976">
        <ele>311</ele>
        <time>2017-04-17T13:37:11Z</time>
      </trkpt>
      <trkpt lat="46.23486" lon="2.49766">
        <ele>311</ele>
        <time>2017-04-17T13:37:14Z</time>
      </trkpt>
      <trkpt lat="46.23485" lon="2.49773">
        <ele>311</ele>
        <time>2017-04-17T13:37:17Z</time>
      </trkpt>
      <trkpt lat="46.23485" lon="2.4978">
        <ele>310</ele>
        <time>2017-04-17T13:37:20Z</time>
      </trkpt>
      <trkpt lat="46.23484" lon="2.49787">
        <ele>310</ele>
        <time>2017-04-17T13:37:23Z</time>
      </trkpt>
      <trkpt lat="46.23484" lon="2.49794">
        <ele>309</ele>
        <time>2017-04-17T13:37:26Z</time>
      </trkpt>
      <trkpt lat="46.23483" lon="2.498">
        <ele>309</ele>
        <time>2017-04-17T13:37:29Z</time>
      </trkpt>
      <trkpt lat="46.23483" lon="2.49806">
        <ele>308</ele>
        <time>2017-04-17T13:37:32Z</time>
      </trkpt>
      <trkpt lat="46.23484" lon="2.49813">
        <ele>308</ele>
        <time>2017-04-17T13:37:35Z</time>
      </trkpt>
      <trkpt lat="46.23485" lon="2.4982">
        <ele>308</ele>
        <time>2017-04-17T13:37:38Z</time>
      </trkpt>
      <trkpt lat="46.23486" lon="2.49827">
        <ele>308</ele>
        <time>2017-04-17T13:37:41Z</time>
      </trkpt>
      <trkpt lat="46.23485" lon="2.49833">
        <ele>308</ele>
        <time>2017-04-17T13:37:44Z</time>
      </trkpt>
      <trkpt lat="46.23486" lon="2.49839">
        <ele>308</ele>
        <time>2017-04-17T13:37:47Z</time>
      </trkpt>
      <trkpt lat="46.23486" lon="2.49846">
        <ele>308</ele>
        <time>2017-04-17T13:37:50Z</time>
      </trkpt>
      <trkpt lat="46.23486" lon="2.49851">
        <ele>308</ele>
        <time>2017-04-17T13:37:53Z</time>
      </trkpt>
      <trkpt lat="46.23486" lon="2.49857">
        <ele>308</ele>
        <time>2017-04-17T13:37:56Z</time>
      </trkpt>
      <trkpt lat="46.23488" lon="2.49864">
        <ele>308</ele>
        <time>2017-04-17T13:37:59Z</time>
      </trkpt>
      <trkpt lat="46.23489" lon="2.49869">
        <ele>306</ele>
        <time>2017-04-17T13:38:02Z</time>
      </trkpt>
      <trkpt lat="46.23492" lon="2.49874">
        <ele>305</ele>
        <time>2017-04-17T13:38:05Z</time>
      </trkpt>
      <trkpt lat="46.23493" lon="2.4988">
        <ele>304</ele>
        <time>2017-04-17T13:38:08Z</time>
      </trkpt>
      <trkpt lat="46.23495" lon="2.49885">
        <ele>304</ele>
        <time>2017-04-17T13:38:11Z</time>
      </trkpt>
      <trkpt lat="46.23498" lon="2.49892">
        <ele>304</ele>
        <time>2017-04-17T13:38:14Z</time>
      </trkpt>
      <trkpt lat="46.23499" lon="2.49898">
        <ele>304</ele>
        <time>2017-04-17T13:38:17Z</time>
      </trkpt>
      <trkpt lat="46.235" lon="2.49905">
        <ele>304</ele>
        <time>2017-04-17T13:38:20Z</time>
      </trkpt>
      <trkpt lat="46.23502" lon="2.49911">
        <ele>304</ele>
        <time>2017-04-17T13:38:23Z</time>
      </trkpt>
      <trkpt lat="46.23504" lon="2.49917">
        <ele>304</ele>
        <time>2017-04-17T13:38:26Z</time>
      </trkpt>
      <trkpt lat="46.23507" lon="2.49922">
        <ele>304</ele>
        <time>2017-04-17T13:38:29Z</time>
      </trkpt>
      <trkpt lat="46.23508" lon="2.49929">
        <ele>304</ele>
        <time>2017-04-17T13:38:32Z</time>
      </trkpt>
      <trkpt lat="46.2351" lon="2.49935">
        <ele>304</ele>
        <time>2017-04-17T13:38:35Z</time>
      </trkpt>
      <trkpt lat="46.2351" lon="2.4994">
        <ele>304</ele>
        <time>2017-04-17T13:38:38Z</time>
      </trkpt>
      <trkpt lat="46.23511" lon="2.49947">
        <ele>304</ele>
        <time>2017-04-17T13:38:41Z</time>
      </trkpt>
      <trkpt lat="46.23511" lon="2.49953">
        <ele>304</ele>
        <time>2017-04-17T13:38:44Z</time>
      </trkpt>
      <trkpt lat="46.2351" lon="2.49958">
        <ele>304</ele>
        <time>2017-04-17T13:38:47Z</time>
      </trkpt>
      <trkpt lat="46.2351" lon="2.49964">
        <ele>304</ele>
        <time>2017-04-17T13:38:50Z</time>
      </trkpt>
      <trkpt lat="46.2351" lon="2.4997">
        <ele>304</ele>
        <time>2017-04-17T13:38:53Z</time>
      </trkpt>
      <trkpt lat="46.23512" lon="2.49978">
        <ele>304</ele>
        <time>2017-04-17T13:38:56Z</time>
      </trkpt>
      <trkpt lat="46.23512" lon="2.49983">
        <ele>304</ele>
        <time>2017-04-17T13:38:59Z</time>
      </trkpt>
      <trkpt lat="46.23513" lon="2.49989">
        <ele>304</ele>
        <time>2017-04-17T13:39:02Z</time>
      </trkpt>
      <trkpt lat="46.23513" lon="2.49997">
        <ele>304</ele>
        <time>2017-04-17T13:39:05Z</time>
      </trkpt>
      <trkpt lat="46.23513" lon="2.50004">
        <ele>304</ele>
        <time>2017-04-17T13:39:08Z</time>
      </trkpt>
      <trkpt lat="46.23514" lon="2.50009">
        <ele>304</ele>
        <time>2017-04-17T13:39:11Z</time>
      </trkpt>
      <trkpt lat="46.23515" lon="2.50016">
        <ele>304</ele>
        <time>2017-04-17T13:39:14Z</time>
      </trkpt>
      <trkpt lat="46.23515" lon="2.50022">
        <ele>304</ele>
        <time>2017-04-17T13:39:17Z</time>
      </trkpt>
      <trkpt lat="46.23516" lon="2.50028">
        <ele>304</ele>
        <time>2017-04-17T13:39:20Z</time>
      </trkpt>
      <trkpt lat="46.23517" lon="2.50036">
        <ele>304</ele>
        <time>2017-04-17T13:39:23Z</time>
      </trkpt>
      <trkpt lat="46.23517" lon="2.50043">
        <ele>304</ele>
        <time>2017-04-17T13:39:26Z</time>
      </trkpt>
      <trkpt lat="46.23518" lon="2.50049">
        <ele>303</ele>
        <time>2017-04-17T13:39:30Z</time>
      </trkpt>
      <trkpt lat="46.23521" lon="2.50055">
        <ele>303</ele>
        <time>2017-04-17T13:39:33Z</time>
      </trkpt>
      <trkpt lat="46.23523" lon="2.50061">
        <ele>303</ele>
        <time>2017-04-17T13:39:36Z</time>
      </trkpt>
      <trkpt lat="46.23524" lon="2.50067">
        <ele>303</ele>
        <time>2017-04-17T13:39:39Z</time>
      </trkpt>
      <trkpt lat="46.23526" lon="2.50074">
        <ele>302</ele>
        <time>2017-04-17T13:39:42Z</time>
      </trkpt>
      <trkpt lat="46.23528" lon="2.5008">
        <ele>301</ele>
        <time>2017-04-17T13:39:45Z</time>
      </trkpt>
      <trkpt lat="46.23529" lon="2.50087">
        <ele>300</ele>
        <time>2017-04-17T13:39:49Z</time>
      </trkpt>
      <trkpt lat="46.23531" lon="2.50093">
        <ele>300</ele>
        <time>2017-04-17T13:39:52Z</time>
      </trkpt>
      <trkpt lat="46.23537" lon="2.50098">
        <ele>300</ele>
        <time>2017-04-17T13:39:56Z</time>
      </trkpt>
      <trkpt lat="46.23539" lon="2.50102">
        <ele>300</ele>
        <time>2017-04-17T13:39:59Z</time>
      </trkpt>
      <trkpt lat="46.23542" lon="2.50104">
        <ele>300</ele>
        <time>2017-04-17T13:40:02Z</time>
      </trkpt>
      <trkpt lat="46.23546" lon="2.50107">
        <ele>300</ele>
        <time>2017-04-17T13:40:06Z</time>
      </trkpt>
      <trkpt lat="46.23546" lon="2.50112">
        <ele>300</ele>
        <time>2017-04-17T13:40:09Z</time>
      </trkpt>
      <trkpt lat="46.23547" lon="2.50115">
        <ele>300</ele>
        <time>2017-04-17T13:40:13Z</time>
      </trkpt>
      <trkpt lat="46.23551" lon="2.50119">
        <ele>300</ele>
        <time>2017-04-17T13:40:16Z</time>
      </trkpt>
      <trkpt lat="46.23553" lon="2.50123">
        <ele>300</ele>
        <time>2017-04-17T13:40:19Z</time>
      </trkpt>
      <trkpt lat="46.23557" lon="2.50127">
        <ele>298</ele>
        <time>2017-04-17T13:40:23Z</time>
      </trkpt>
      <trkpt lat="46.23557" lon="2.50128">
        <ele>298</ele>
        <time>2017-04-17T13:40:26Z</time>
      </trkpt>
      <trkpt lat="46.23558" lon="2.50127">
        <ele>296</ele>
        <time>2017-04-17T13:40:31Z</time>
      </trkpt>
      <trkpt lat="46.23559" lon="2.50126">
        <ele>295</ele>
        <time>2017-04-17T13:40:39Z</time>
      </trkpt>
      <trkpt lat="46.23562" lon="2.50127">
        <ele>295</ele>
        <time>2017-04-17T13:40:43Z</time>
      </trkpt>
      <trkpt lat="46.23566" lon="2.50128">
        <ele>296</ele>
        <time>2017-04-17T13:40:46Z</time>
      </trkpt>
      <trkpt lat="46.23569" lon="2.50129">
        <ele>305</ele>
        <time>2017-04-17T13:40:56Z</time>
      </trkpt>
      <trkpt lat="46.23569" lon="2.50127">
        <ele>308</ele>
        <time>2017-04-17T13:41:04Z</time>
      </trkpt>
      <trkpt lat="46.23569" lon="2.50126">
        <ele>308</ele>
        <time>2017-04-17T13:41:09Z</time>
      </trkpt>
      <trkpt lat="46.23573" lon="2.50127">
        <ele>308</ele>
        <time>2017-04-17T13:41:12Z</time>
      </trkpt>
      <trkpt lat="46.23576" lon="2.50128">
        <ele>311</ele>
        <time>2017-04-17T13:41:15Z</time>
      </trkpt>
      <trkpt lat="46.2358" lon="2.50128">
        <ele>315</ele>
        <time>2017-04-17T13:41:19Z</time>
      </trkpt>
      <trkpt lat="46.23583" lon="2.50129">
        <ele>319</ele>
        <time>2017-04-17T13:41:23Z</time>
      </trkpt>
      <trkpt lat="46.23581" lon="2.50128">
        <ele>321</ele>
        <time>2017-04-17T13:41:36Z</time>
      </trkpt>
      <trkpt lat="46.23581" lon="2.50126">
        <ele>321</ele>
        <time>2017-04-17T13:41:39Z</time>
      </trkpt>
      <trkpt lat="46.23581" lon="2.50124">
        <ele>319</ele>
        <time>2017-04-17T13:41:42Z</time>
      </trkpt>
      <trkpt lat="46.23582" lon="2.50122">
        <ele>315</ele>
        <time>2017-04-17T13:41:47Z</time>
      </trkpt>
      <trkpt lat="46.2358" lon="2.5012">
        <ele>313</ele>
        <time>2017-04-17T13:41:52Z</time>
      </trkpt>
      <trkpt lat="46.23579" lon="2.5012">
        <ele>311</ele>
        <time>2017-04-17T13:41:55Z</time>
      </trkpt>
      <trkpt lat="46.2358" lon="2.50121">
        <ele>308</ele>
        <time>2017-04-17T13:42:02Z</time>
      </trkpt>
      <trkpt lat="46.23582" lon="2.50121">
        <ele>307</ele>
        <time>2017-04-17T13:42:05Z</time>
      </trkpt>
      <trkpt lat="46.23584" lon="2.50121">
        <ele>307</ele>
        <time>2017-04-17T13:42:08Z</time>
      </trkpt>
      <trkpt lat="46.23585" lon="2.5012">
        <ele>307</ele>
        <time>2017-04-17T13:42:11Z</time>
      </trkpt>
      <trkpt lat="46.23586" lon="2.5012">
        <ele>307</ele>
        <time>2017-04-17T13:42:14Z</time>
      </trkpt>
      <trkpt lat="46.23588" lon="2.50121">
        <ele>307</ele>
        <time>2017-04-17T13:42:22Z</time>
      </trkpt>
      <trkpt lat="46.23589" lon="2.50122">
        <ele>307</ele>
        <time>2017-04-17T13:42:25Z</time>
      </trkpt>
      <trkpt lat="46.23593" lon="2.5012">
        <ele>307</ele>
        <time>2017-04-17T13:42:29Z</time>
      </trkpt>
      <trkpt lat="46.23596" lon="2.50118">
        <ele>307</ele>
        <time>2017-04-17T13:42:33Z</time>
      </trkpt>
      <trkpt lat="46.23599" lon="2.50116">
        <ele>307</ele>
        <time>2017-04-17T13:42:36Z</time>
      </trkpt>
      <trkpt lat="46.23602" lon="2.50113">
        <ele>308</ele>
        <time>2017-04-17T13:42:39Z</time>
      </trkpt>
      <trkpt lat="46.23605" lon="2.50109">
        <ele>310</ele>
        <time>2017-04-17T13:42:42Z</time>
      </trkpt>
      <trkpt lat="46.23607" lon="2.50107">
        <ele>313</ele>
        <time>2017-04-17T13:42:45Z</time>
      </trkpt>
      <trkpt lat="46.23611" lon="2.50102">
        <ele>314</ele>
        <time>2017-04-17T13:42:48Z</time>
      </trkpt>
      <trkpt lat="46.23613" lon="2.50099">
        <ele>315</ele>
        <time>2017-04-17T13:42:52Z</time>
      </trkpt>
      <trkpt lat="46.23617" lon="2.50095">
        <ele>316</ele>
        <time>2017-04-17T13:42:56Z</time>
      </trkpt>
      <trkpt lat="46.23619" lon="2.50093">
        <ele>317</ele>
        <time>2017-04-17T13:42:59Z</time>
      </trkpt>
      <trkpt lat="46.23624" lon="2.5009">
        <ele>319</ele>
        <time>2017-04-17T13:43:02Z</time>
      </trkpt>
      <trkpt lat="46.23627" lon="2.50088">
        <ele>322</ele>
        <time>2017-04-17T13:43:05Z</time>
      </trkpt>
      <trkpt lat="46.2363" lon="2.50084">
        <ele>326</ele>
        <time>2017-04-17T13:43:09Z</time>
      </trkpt>
      <trkpt lat="46.23634" lon="2.5008">
        <ele>328</ele>
        <time>2017-04-17T13:43:13Z</time>
      </trkpt>
      <trkpt lat="46.23638" lon="2.50077">
        <ele>330</ele>
        <time>2017-04-17T13:43:16Z</time>
      </trkpt>
      <trkpt lat="46.23642" lon="2.50076">
        <ele>331</ele>
        <time>2017-04-17T13:43:19Z</time>
      </trkpt>
      <trkpt lat="46.23645" lon="2.50074">
        <ele>333</ele>
        <time>2017-04-17T13:43:22Z</time>
      </trkpt>
      <trkpt lat="46.23645" lon="2.50072">
        <ele>334</ele>
        <time>2017-04-17T13:43:27Z</time>
      </trkpt>
      <trkpt lat="46.23644" lon="2.50071">
        <ele>334</ele>
        <time>2017-04-17T13:43:30Z</time>
      </trkpt>
      <trkpt lat="46.23643" lon="2.50073">
        <ele>330</ele>
        <time>2017-04-17T13:43:34Z</time>
      </trkpt>
      <trkpt lat="46.23647" lon="2.50076">
        <ele>329</ele>
        <time>2017-04-17T13:43:37Z</time>
      </trkpt>
      <trkpt lat="46.23649" lon="2.50081">
        <ele>329</ele>
        <time>2017-04-17T13:43:40Z</time>
      </trkpt>
      <trkpt lat="46.23652" lon="2.50085">
        <ele>331</ele>
        <time>2017-04-17T13:43:43Z</time>
      </trkpt>
      <trkpt lat="46.23657" lon="2.50088">
        <ele>332</ele>
        <time>2017-04-17T13:43:47Z</time>
      </trkpt>
      <trkpt lat="46.23658" lon="2.50094">
        <ele>332</ele>
        <time>2017-04-17T13:43:50Z</time>
      </trkpt>
      <trkpt lat="46.23658" lon="2.50101">
        <ele>330</ele>
        <time>2017-04-17T13:43:53Z</time>
      </trkpt>
      <trkpt lat="46.23657" lon="2.50107">
        <ele>326</ele>
        <time>2017-04-17T13:43:57Z</time>
      </trkpt>
      <trkpt lat="46.23656" lon="2.50113">
        <ele>324</ele>
        <time>2017-04-17T13:44:00Z</time>
      </trkpt>
      <trkpt lat="46.23654" lon="2.5012">
        <ele>324</ele>
        <time>2017-04-17T13:44:04Z</time>
      </trkpt>
      <trkpt lat="46.23654" lon="2.50127">
        <ele>323</ele>
        <time>2017-04-17T13:44:07Z</time>
      </trkpt>
      <trkpt lat="46.23653" lon="2.50133">
        <ele>322</ele>
        <time>2017-04-17T13:44:10Z</time>
      </trkpt>
      <trkpt lat="46.23653" lon="2.50139">
        <ele>321</ele>
        <time>2017-04-17T13:44:14Z</time>
      </trkpt>
      <trkpt lat="46.23655" lon="2.50141">
        <ele>321</ele>
        <time>2017-04-17T13:44:17Z</time>
      </trkpt>
      <trkpt lat="46.23658" lon="2.50137">
        <ele>319</ele>
        <time>2017-04-17T13:44:21Z</time>
      </trkpt>
      <trkpt lat="46.23661" lon="2.50134">
        <ele>319</ele>
        <time>2017-04-17T13:44:25Z</time>
      </trkpt>
      <trkpt lat="46.23663" lon="2.5013">
        <ele>318</ele>
        <time>2017-04-17T13:44:28Z</time>
      </trkpt>
      <trkpt lat="46.23666" lon="2.50126">
        <ele>318</ele>
        <time>2017-04-17T13:44:32Z</time>
      </trkpt>
      <trkpt lat="46.2367" lon="2.50122">
        <ele>318</ele>
        <time>2017-04-17T13:44:36Z</time>
      </trkpt>
      <trkpt lat="46.23674" lon="2.50117">
        <ele>317</ele>
        <time>2017-04-17T13:44:40Z</time>
      </trkpt>
      <trkpt lat="46.23678" lon="2.50113">
        <ele>316</ele>
        <time>2017-04-17T13:44:44Z</time>
      </trkpt>
      <trkpt lat="46.23681" lon="2.50109">
        <ele>316</ele>
        <time>2017-04-17T13:44:47Z</time>
      </trkpt>
      <trkpt lat="46.23685" lon="2.50106">
        <ele>316</ele>
        <time>2017-04-17T13:44:50Z</time>
      </trkpt>
      <trkpt lat="46.23689" lon="2.50104">
        <ele>316</ele>
        <time>2017-04-17T13:44:53Z</time>
      </trkpt>
      <trkpt lat="46.23692" lon="2.50101">
        <ele>316</ele>
        <time>2017-04-17T13:44:56Z</time>
      </trkpt>
      <trkpt lat="46.23695" lon="2.50099">
        <ele>316</ele>
        <time>2017-04-17T13:44:59Z</time>
      </trkpt>
      <trkpt lat="46.23699" lon="2.50096">
        <ele>316</ele>
        <time>2017-04-17T13:45:02Z</time>
      </trkpt>
      <trkpt lat="46.23703" lon="2.50095">
        <ele>316</ele>
        <time>2017-04-17T13:45:05Z</time>
      </trkpt>
      <trkpt lat="46.23706" lon="2.50093">
        <ele>316</ele>
        <time>2017-04-17T13:45:08Z</time>
      </trkpt>
      <trkpt lat="46.2371" lon="2.50092">
        <ele>316</ele>
        <time>2017-04-17T13:45:11Z</time>
      </trkpt>
      <trkpt lat="46.23714" lon="2.50091">
        <ele>316</ele>
        <time>2017-04-17T13:45:15Z</time>
      </trkpt>
      <trkpt lat="46.23718" lon="2.50091">
        <ele>316</ele>
        <time>2017-04-17T13:45:18Z</time>
      </trkpt>
      <trkpt lat="46.23722" lon="2.50089">
        <ele>316</ele>
        <time>2017-04-17T13:45:21Z</time>
      </trkpt>
      <trkpt lat="46.23727" lon="2.50089">
        <ele>316</ele>
        <time>2017-04-17T13:45:25Z</time>
      </trkpt>
      <trkpt lat="46.2373" lon="2.5009">
        <ele>318</ele>
        <time>2017-04-17T13:45:28Z</time>
      </trkpt>
      <trkpt lat="46.23735" lon="2.50088">
        <ele>322</ele>
        <time>2017-04-17T13:45:32Z</time>
      </trkpt>
      <trkpt lat="46.23739" lon="2.50085">
        <ele>325</ele>
        <time>2017-04-17T13:45:36Z</time>
      </trkpt>
      <trkpt lat="46.23742" lon="2.50084">
        <ele>326</ele>
        <time>2017-04-17T13:45:39Z</time>
      </trkpt>
      <trkpt lat="46.23745" lon="2.50083">
        <ele>327</ele>
        <time>2017-04-17T13:45:42Z</time>
      </trkpt>
      <trkpt lat="46.23748" lon="2.50081">
        <ele>327</ele>
        <time>2017-04-17T13:45:45Z</time>
      </trkpt>
      <trkpt lat="46.23752" lon="2.50082">
        <ele>328</ele>
        <time>2017-04-17T13:45:48Z</time>
      </trkpt>
      <trkpt lat="46.23756" lon="2.50082">
        <ele>329</ele>
        <time>2017-04-17T13:45:51Z</time>
      </trkpt>
      <trkpt lat="46.2376" lon="2.50084">
        <ele>331</ele>
        <time>2017-04-17T13:45:55Z</time>
      </trkpt>
      <trkpt lat="46.23764" lon="2.50085">
        <ele>333</ele>
        <time>2017-04-17T13:45:59Z</time>
      </trkpt>
      <trkpt lat="46.23768" lon="2.50085">
        <ele>334</ele>
        <time>2017-04-17T13:46:02Z</time>
      </trkpt>
      <trkpt lat="46.23772" lon="2.50086">
        <ele>334</ele>
        <time>2017-04-17T13:46:05Z</time>
      </trkpt>
      <trkpt lat="46.23777" lon="2.50086">
        <ele>336</ele>
        <time>2017-04-17T13:46:09Z</time>
      </trkpt>
      <trkpt lat="46.23781" lon="2.50087">
        <ele>338</ele>
        <time>2017-04-17T13:46:12Z</time>
      </trkpt>
      <trkpt lat="46.23785" lon="2.50087">
        <ele>341</ele>
        <time>2017-04-17T13:46:16Z</time>
      </trkpt>
      <trkpt lat="46.23788" lon="2.50086">
        <ele>341</ele>
        <time>2017-04-17T13:46:19Z</time>
      </trkpt>
      <trkpt lat="46.23792" lon="2.50084">
        <ele>341</ele>
        <time>2017-04-17T13:46:22Z</time>
      </trkpt>
      <trkpt lat="46.23794" lon="2.50084">
        <ele>341</ele>
        <time>2017-04-17T13:46:25Z</time>
      </trkpt>
      <trkpt lat="46.23798" lon="2.50082">
        <ele>341</ele>
        <time>2017-04-17T13:46:29Z</time>
      </trkpt>
      <trkpt lat="46.23802" lon="2.50084">
        <ele>342</ele>
        <time>2017-04-17T13:46:32Z</time>
      </trkpt>
      <trkpt lat="46.23805" lon="2.50085">
        <ele>343</ele>
        <time>2017-04-17T13:46:35Z</time>
      </trkpt>
      <trkpt lat="46.23808" lon="2.50088">
        <ele>343</ele>
        <time>2017-04-17T13:46:38Z</time>
      </trkpt>
      <trkpt lat="46.23811" lon="2.50091">
        <ele>344</ele>
        <time>2017-04-17T13:46:41Z</time>
      </trkpt>
      <trkpt lat="46.23813" lon="2.50096">
        <ele>346</ele>
        <time>2017-04-17T13:46:44Z</time>
      </trkpt>
      <trkpt lat="46.23811" lon="2.50102">
        <ele>348</ele>
        <time>2017-04-17T13:46:48Z</time>
      </trkpt>
      <trkpt lat="46.23808" lon="2.50106">
        <ele>348</ele>
        <time>2017-04-17T13:46:51Z</time>
      </trkpt>
      <trkpt lat="46.23804" lon="2.5011">
        <ele>348</ele>
        <time>2017-04-17T13:46:54Z</time>
      </trkpt>
      <trkpt lat="46.238" lon="2.50113">
        <ele>348</ele>
        <time>2017-04-17T13:46:58Z</time>
      </trkpt>
      <trkpt lat="46.23797" lon="2.50115">
        <ele>348</ele>
        <time>2017-04-17T13:47:01Z</time>
      </trkpt>
      <trkpt lat="46.23794" lon="2.50116">
        <ele>348</ele>
        <time>2017-04-17T13:47:05Z</time>
      </trkpt>
      <trkpt lat="46.2379" lon="2.5012">
        <ele>348</ele>
        <time>2017-04-17T13:47:09Z</time>
      </trkpt>
      <trkpt lat="46.23785" lon="2.50123">
        <ele>347</ele>
        <time>2017-04-17T13:47:13Z</time>
      </trkpt>
      <trkpt lat="46.23782" lon="2.50126">
        <ele>347</ele>
        <time>2017-04-17T13:47:16Z</time>
      </trkpt>
      <trkpt lat="46.23779" lon="2.50128">
        <ele>347</ele>
        <time>2017-04-17T13:47:19Z</time>
      </trkpt>
      <trkpt lat="46.23775" lon="2.50131">
        <ele>346</ele>
        <time>2017-04-17T13:47:22Z</time>
      </trkpt>
      <trkpt lat="46.23772" lon="2.50133">
        <ele>345</ele>
        <time>2017-04-17T13:47:25Z</time>
      </trkpt>
      <trkpt lat="46.23767" lon="2.50135">
        <ele>344</ele>
        <time>2017-04-17T13:47:29Z</time>
      </trkpt>
      <trkpt lat="46.23764" lon="2.50137">
        <ele>343</ele>
        <time>2017-04-17T13:47:32Z</time>
      </trkpt>
      <trkpt lat="46.23761" lon="2.50139">
        <ele>341</ele>
        <time>2017-04-17T13:47:36Z</time>
      </trkpt>
      <trkpt lat="46.23758" lon="2.50142">
        <ele>340</ele>
        <time>2017-04-17T13:47:40Z</time>
      </trkpt>
      <trkpt lat="46.23754" lon="2.50145">
        <ele>339</ele>
        <time>2017-04-17T13:47:43Z</time>
      </trkpt>
      <trkpt lat="46.2375" lon="2.50146">
        <ele>338</ele>
        <time>2017-04-17T13:47:46Z</time>
      </trkpt>
      <trkpt lat="46.23746" lon="2.50149">
        <ele>338</ele>
        <time>2017-04-17T13:47:49Z</time>
      </trkpt>
      <trkpt lat="46.23742" lon="2.50154">
        <ele>338</ele>
        <time>2017-04-17T13:47:53Z</time>
      </trkpt>
      <trkpt lat="46.23738" lon="2.50157">
        <ele>338</ele>
        <time>2017-04-17T13:47:56Z</time>
      </trkpt>
      <trkpt lat="46.23735" lon="2.50161">
        <ele>338</ele>
        <time>2017-04-17T13:47:59Z</time>
      </trkpt>
      <trkpt lat="46.23732" lon="2.50165">
        <ele>338</ele>
        <time>2017-04-17T13:48:02Z</time>
      </trkpt>
      <trkpt lat="46.2373" lon="2.50171">
        <ele>338</ele>
        <time>2017-04-17T13:48:05Z</time>
      </trkpt>
      <trkpt lat="46.23728" lon="2.50176">
        <ele>338</ele>
        <time>2017-04-17T13:48:08Z</time>
      </trkpt>
      <trkpt lat="46.23726" lon="2.50182">
        <ele>338</ele>
        <time>2017-04-17T13:48:11Z</time>
      </trkpt>
      <trkpt lat="46.23724" lon="2.50187">
        <ele>339</ele>
        <time>2017-04-17T13:48:14Z</time>
      </trkpt>
      <trkpt lat="46.23723" lon="2.50192">
        <ele>339</ele>
        <time>2017-04-17T13:48:17Z</time>
      </trkpt>
      <trkpt lat="46.23722" lon="2.50197">
        <ele>339</ele>
        <time>2017-04-17T13:48:20Z</time>
      </trkpt>
      <trkpt lat="46.23722" lon="2.50202">
        <ele>339</ele>
        <time>2017-04-17T13:48:23Z</time>
      </trkpt>
      <trkpt lat="46.23723" lon="2.50207">
        <ele>339</ele>
        <time>2017-04-17T13:48:26Z</time>
      </trkpt>
      <trkpt lat="46.23724" lon="2.50212">
        <ele>339</ele>
        <time>2017-04-17T13:48:29Z</time>
      </trkpt>
      <trkpt lat="46.23727" lon="2.50218">
        <ele>340</ele>
        <time>2017-04-17T13:48:33Z</time>
      </trkpt>
      <trkpt lat="46.2373" lon="2.50223">
        <ele>341</ele>
        <time>2017-04-17T13:48:37Z</time>
      </trkpt>
      <trkpt lat="46.23734" lon="2.50227">
        <ele>342</ele>
        <time>2017-04-17T13:48:41Z</time>
      </trkpt>
      <trkpt lat="46.23737" lon="2.5023">
        <ele>342</ele>
        <time>2017-04-17T13:48:45Z</time>
      </trkpt>
      <trkpt lat="46.23742" lon="2.50232">
        <ele>343</ele>
        <time>2017-04-17T13:48:49Z</time>
      </trkpt>
      <trkpt lat="46.23744" lon="2.50234">
        <ele>343</ele>
        <time>2017-04-17T13:48:52Z</time>
      </trkpt>
      <trkpt lat="46.23748" lon="2.50235">
        <ele>344</ele>
        <time>2017-04-17T13:48:55Z</time>
      </trkpt>
      <trkpt lat="46.23752" lon="2.50238">
        <ele>344</ele>
        <time>2017-04-17T13:48:59Z</time>
      </trkpt>
      <trkpt lat="46.23756" lon="2.50241">
        <ele>345</ele>
        <time>2017-04-17T13:49:02Z</time>
      </trkpt>
      <trkpt lat="46.23759" lon="2.50245">
        <ele>345</ele>
        <time>2017-04-17T13:49:06Z</time>
      </trkpt>
      <trkpt lat="46.23762" lon="2.50248">
        <ele>345</ele>
        <time>2017-04-17T13:49:09Z</time>
      </trkpt>
      <trkpt lat="46.23766" lon="2.50252">
        <ele>345</ele>
        <time>2017-04-17T13:49:13Z</time>
      </trkpt>
      <trkpt lat="46.2377" lon="2.50256">
        <ele>345</ele>
        <time>2017-04-17T13:49:17Z</time>
      </trkpt>
      <trkpt lat="46.23773" lon="2.5026">
        <ele>346</ele>
        <time>2017-04-17T13:49:21Z</time>
      </trkpt>
      <trkpt lat="46.23777" lon="2.50265">
        <ele>346</ele>
        <time>2017-04-17T13:49:25Z</time>
      </trkpt>
      <trkpt lat="46.2378" lon="2.5027">
        <ele>347</ele>
        <time>2017-04-17T13:49:29Z</time>
      </trkpt>
      <trkpt lat="46.23782" lon="2.50274">
        <ele>348</ele>
        <time>2017-04-17T13:49:32Z</time>
      </trkpt>
      <trkpt lat="46.23785" lon="2.50279">
        <ele>349</ele>
        <time>2017-04-17T13:49:36Z</time>
      </trkpt>
      <trkpt lat="46.23788" lon="2.50283">
        <ele>349</ele>
        <time>2017-04-17T13:49:40Z</time>
      </trkpt>
      <trkpt lat="46.23791" lon="2.50286">
        <ele>350</ele>
        <time>2017-04-17T13:49:43Z</time>
      </trkpt>
      <trkpt lat="46.23794" lon="2.5029">
        <ele>351</ele>
        <time>2017-04-17T13:49:47Z</time>
      </trkpt>
      <trkpt lat="46.23798" lon="2.50295">
        <ele>351</ele>
        <time>2017-04-17T13:49:51Z</time>
      </trkpt>
      <trkpt lat="46.23801" lon="2.503">
        <ele>352</ele>
        <time>2017-04-17T13:49:55Z</time>
      </trkpt>
      <trkpt lat="46.23804" lon="2.50305">
        <ele>353</ele>
        <time>2017-04-17T13:49:59Z</time>
      </trkpt>
      <trkpt lat="46.23807" lon="2.50309">
        <ele>353</ele>
        <time>2017-04-17T13:50:03Z</time>
      </trkpt>
      <trkpt lat="46.2381" lon="2.50314">
        <ele>353</ele>
        <time>2017-04-17T13:50:07Z</time>
      </trkpt>
      <trkpt lat="46.23813" lon="2.50319">
        <ele>354</ele>
        <time>2017-04-17T13:50:11Z</time>
      </trkpt>
      <trkpt lat="46.23816" lon="2.50323">
        <ele>354</ele>
        <time>2017-04-17T13:50:15Z</time>
      </trkpt>
      <trkpt lat="46.2382" lon="2.50328">
        <ele>354</ele>
        <time>2017-04-17T13:50:19Z</time>
      </trkpt>
      <trkpt lat="46.23823" lon="2.50333">
        <ele>355</ele>
        <time>2017-04-17T13:50:23Z</time>
      </trkpt>
      <trkpt lat="46.23826" lon="2.50338">
        <ele>355</ele>
        <time>2017-04-17T13:50:27Z</time>
      </trkpt>
      <trkpt lat="46.2383" lon="2.50342">
        <ele>356</ele>
        <time>2017-04-17T13:50:31Z</time>
      </trkpt>
      <trkpt lat="46.23833" lon="2.50347">
        <ele>357</ele>
        <time>2017-04-17T13:50:35Z</time>
      </trkpt>
      <trkpt lat="46.23836" lon="2.50352">
        <ele>358</ele>
        <time>2017-04-17T13:50:39Z</time>
      </trkpt>
      <trkpt lat="46.2384" lon="2.50357">
        <ele>359</ele>
        <time>2017-04-17T13:50:43Z</time>
      </trkpt>
      <trkpt lat="46.23844" lon="2.50362">
        <ele>359</ele>
        <time>2017-04-17T13:50:47Z</time>
      </trkpt>
      <trkpt lat="46.23847" lon="2.50367">
        <ele>359</ele>
        <time>2017-04-17T13:50:51Z</time>
      </trkpt>
      <trkpt lat="46.23851" lon="2.50372">
        <ele>360</ele>
        <time>2017-04-17T13:50:55Z</time>
      </trkpt>
      <trkpt lat="46.23855" lon="2.50377">
        <ele>361</ele>
        <time>2017-04-17T13:50:59Z</time>
      </trkpt>
      <trkpt lat="46.23858" lon="2.50382">
        <ele>361</ele>
        <time>2017-04-17T13:51:03Z</time>
      </trkpt>
      <trkpt lat="46.23862" lon="2.50387">
        <ele>361</ele>
        <time>2017-04-17T13:51:07Z</time>
      </trkpt>
      <trkpt lat="46.23866" lon="2.50392">
        <ele>361</ele>
        <time>2017-04-17T13:51:11Z</time>
      </trkpt>
      <trkpt lat="46.23869" lon="2.50395">
        <ele>362</ele>
        <time>2017-04-17T13:51:14Z</time>
      </trkpt>
      <trkpt lat="46.23872" lon="2.50399">
        <ele>362</ele>
        <time>2017-04-17T13:51:17Z</time>
      </trkpt>
      <trkpt lat="46.23876" lon="2.50403">
        <ele>362</ele>
        <time>2017-04-17T13:51:21Z</time>
      </trkpt>
      <trkpt lat="46.2388" lon="2.50407">
        <ele>363</ele>
        <time>2017-04-17T13:51:25Z</time>
      </trkpt>
      <trkpt lat="46.23882" lon="2.50408">
        <ele>363</ele>
        <time>2017-04-17T13:51:41Z</time>
      </trkpt>
      <trkpt lat="46.23882" lon="2.50406">
        <ele>363</ele>
        <time>2017-04-17T13:51:51Z</time>
      </trkpt>
      <trkpt lat="46.23883" lon="2.50407">
        <ele>363</ele>
        <time>2017-04-17T13:52:06Z</time>
      </trkpt>
      <trkpt lat="46.23884" lon="2.50408">
        <ele>363</ele>
        <time>2017-04-17T13:52:33Z</time>
      </trkpt>
      <trkpt lat="46.23888" lon="2.50413">
        <ele>363</ele>
        <time>2017-04-17T13:52:37Z</time>
      </trkpt>
      <trkpt lat="46.23891" lon="2.50417">
        <ele>363</ele>
        <time>2017-04-17T13:52:40Z</time>
      </trkpt>
      <trkpt lat="46.23894" lon="2.50421">
        <ele>363</ele>
        <time>2017-04-17T13:52:43Z</time>
      </trkpt>
      <trkpt lat="46.23898" lon="2.50426">
        <ele>363</ele>
        <time>2017-04-17T13:52:46Z</time>
      </trkpt>
      <trkpt lat="46.23901" lon="2.5043">
        <ele>363</ele>
        <time>2017-04-17T13:52:49Z</time>
      </trkpt>
      <trkpt lat="46.23905" lon="2.50435">
        <ele>364</ele>
        <time>2017-04-17T13:52:53Z</time>
      </trkpt>
      <trkpt lat="46.23909" lon="2.50438">
        <ele>365</ele>
        <time>2017-04-17T13:52:56Z</time>
      </trkpt>
      <trkpt lat="46.23912" lon="2.50442">
        <ele>366</ele>
        <time>2017-04-17T13:52:59Z</time>
      </trkpt>
      <trkpt lat="46.23915" lon="2.50445">
        <ele>367</ele>
        <time>2017-04-17T13:53:02Z</time>
      </trkpt>
      <trkpt lat="46.23919" lon="2.50448">
        <ele>368</ele>
        <time>2017-04-17T13:53:05Z</time>
      </trkpt>
      <trkpt lat="46.23922" lon="2.50451">
        <ele>368</ele>
        <time>2017-04-17T13:53:08Z</time>
      </trkpt>
      <trkpt lat="46.23926" lon="2.50453">
        <ele>369</ele>
        <time>2017-04-17T13:53:11Z</time>
      </trkpt>
      <trkpt lat="46.23929" lon="2.50453">
        <ele>369</ele>
        <time>2017-04-17T13:53:14Z</time>
      </trkpt>
      <trkpt lat="46.23933" lon="2.50453">
        <ele>369</ele>
        <time>2017-04-17T13:53:17Z</time>
      </trkpt>
      <trkpt lat="46.23936" lon="2.50452">
        <ele>369</ele>
        <time>2017-04-17T13:53:20Z</time>
      </trkpt>
      <trkpt lat="46.2394" lon="2.50452">
        <ele>369</ele>
        <time>2017-04-17T13:53:23Z</time>
      </trkpt>
      <trkpt lat="46.23944" lon="2.50451">
        <ele>370</ele>
        <time>2017-04-17T13:53:26Z</time>
      </trkpt>
      <trkpt lat="46.23948" lon="2.5045">
        <ele>370</ele>
        <time>2017-04-17T13:53:29Z</time>
      </trkpt>
      <trkpt lat="46.23951" lon="2.50449">
        <ele>371</ele>
        <time>2017-04-17T13:53:32Z</time>
      </trkpt>
      <trkpt lat="46.23956" lon="2.50447">
        <ele>371</ele>
        <time>2017-04-17T13:53:35Z</time>
      </trkpt>
      <trkpt lat="46.23959" lon="2.50446">
        <ele>372</ele>
        <time>2017-04-17T13:53:38Z</time>
      </trkpt>
      <trkpt lat="46.23963" lon="2.50445">
        <ele>372</ele>
        <time>2017-04-17T13:53:41Z</time>
      </trkpt>
      <trkpt lat="46.23967" lon="2.50444">
        <ele>372</ele>
        <time>2017-04-17T13:53:44Z</time>
      </trkpt>
      <trkpt lat="46.23971" lon="2.50443">
        <ele>372</ele>
        <time>2017-04-17T13:53:47Z</time>
      </trkpt>
      <trkpt lat="46.23975" lon="2.50442">
        <ele>372</ele>
        <time>2017-04-17T13:53:50Z</time>
      </trkpt>
      <trkpt lat="46.23979" lon="2.5044">
        <ele>373</ele>
        <time>2017-04-17T13:53:53Z</time>
      </trkpt>
      <trkpt lat="46.23983" lon="2.50439">
        <ele>373</ele>
        <time>2017-04-17T13:53:56Z</time>
      </trkpt>
      <trkpt lat="46.23987" lon="2.50438">
        <ele>373</ele>
        <time>2017-04-17T13:53:59Z</time>
      </trkpt>
      <trkpt lat="46.23991" lon="2.50438">
        <ele>373</ele>
        <time>2017-04-17T13:54:02Z</time>
      </trkpt>
      <trkpt lat="46.23996" lon="2.50437">
        <ele>373</ele>
        <time>2017-04-17T13:54:05Z</time>
      </trkpt>
      <trkpt lat="46.23999" lon="2.50436">
        <ele>373</ele>
        <time>2017-04-17T13:54:08Z</time>
      </trkpt>
      <trkpt lat="46.24003" lon="2.50435">
        <ele>373</ele>
        <time>2017-04-17T13:54:11Z</time>
      </trkpt>
      <trkpt lat="46.24007" lon="2.50436">
        <ele>374</ele>
        <time>2017-04-17T13:54:14Z</time>
      </trkpt>
      <trkpt lat="46.24012" lon="2.50437">
        <ele>374</ele>
        <time>2017-04-17T13:54:17Z</time>
      </trkpt>
      <trkpt lat="46.24015" lon="2.50436">
        <ele>374</ele>
        <time>2017-04-17T13:54:20Z</time>
      </trkpt>
      <trkpt lat="46.2402" lon="2.50431">
        <ele>374</ele>
        <time>2017-04-17T13:54:24Z</time>
      </trkpt>
      <trkpt lat="46.24022" lon="2.50425">
        <ele>374</ele>
        <time>2017-04-17T13:54:27Z</time>
      </trkpt>
      <trkpt lat="46.24024" lon="2.50419">
        <ele>374</ele>
        <time>2017-04-17T13:54:30Z</time>
      </trkpt>
      <trkpt lat="46.24025" lon="2.50413">
        <ele>374</ele>
        <time>2017-04-17T13:54:33Z</time>
      </trkpt>
      <trkpt lat="46.24028" lon="2.50408">
        <ele>374</ele>
        <time>2017-04-17T13:54:36Z</time>
      </trkpt>
      <trkpt lat="46.2403" lon="2.50402">
        <ele>374</ele>
        <time>2017-04-17T13:54:39Z</time>
      </trkpt>
      <trkpt lat="46.24032" lon="2.50396">
        <ele>374</ele>
        <time>2017-04-17T13:54:42Z</time>
      </trkpt>
      <trkpt lat="46.24034" lon="2.50391">
        <ele>374</ele>
        <time>2017-04-17T13:54:45Z</time>
      </trkpt>
      <trkpt lat="46.24036" lon="2.50385">
        <ele>374</ele>
        <time>2017-04-17T13:54:48Z</time>
      </trkpt>
      <trkpt lat="46.24037" lon="2.50379">
        <ele>374</ele>
        <time>2017-04-17T13:54:51Z</time>
      </trkpt>
      <trkpt lat="46.24039" lon="2.50374">
        <ele>374</ele>
        <time>2017-04-17T13:54:54Z</time>
      </trkpt>
      <trkpt lat="46.24041" lon="2.50368">
        <ele>374</ele>
        <time>2017-04-17T13:54:57Z</time>
      </trkpt>
      <trkpt lat="46.24043" lon="2.50362">
        <ele>374</ele>
        <time>2017-04-17T13:55:00Z</time>
      </trkpt>
      <trkpt lat="46.24045" lon="2.50356">
        <ele>374</ele>
        <time>2017-04-17T13:55:03Z</time>
      </trkpt>
      <trkpt lat="46.24046" lon="2.5035">
        <ele>374</ele>
        <time>2017-04-17T13:55:06Z</time>
      </trkpt>
      <trkpt lat="46.24048" lon="2.50345">
        <ele>374</ele>
        <time>2017-04-17T13:55:09Z</time>
      </trkpt>
      <trkpt lat="46.2405" lon="2.50339">
        <ele>374</ele>
        <time>2017-04-17T13:55:12Z</time>
      </trkpt>
      <trkpt lat="46.24051" lon="2.50333">
        <ele>374</ele>
        <time>2017-04-17T13:55:15Z</time>
      </trkpt>
      <trkpt lat="46.24053" lon="2.50327">
        <ele>374</ele>
        <time>2017-04-17T13:55:18Z</time>
      </trkpt>
      <trkpt lat="46.24054" lon="2.50321">
        <ele>374</ele>
        <time>2017-04-17T13:55:21Z</time>
      </trkpt>
      <trkpt lat="46.24055" lon="2.50315">
        <ele>374</ele>
        <time>2017-04-17T13:55:24Z</time>
      </trkpt>
      <trkpt lat="46.24057" lon="2.5031">
        <ele>374</ele>
        <time>2017-04-17T13:55:27Z</time>
      </trkpt>
      <trkpt lat="46.24058" lon="2.50304">
        <ele>373</ele>
        <time>2017-04-17T13:55:30Z</time>
      </trkpt>
      <trkpt lat="46.2406" lon="2.50298">
        <ele>373</ele>
        <time>2017-04-17T13:55:33Z</time>
      </trkpt>
      <trkpt lat="46.24062" lon="2.50292">
        <ele>373</ele>
        <time>2017-04-17T13:55:36Z</time>
      </trkpt>
      <trkpt lat="46.24063" lon="2.50287">
        <ele>373</ele>
        <time>2017-04-17T13:55:39Z</time>
      </trkpt>
      <trkpt lat="46.24064" lon="2.50281">
        <ele>373</ele>
        <time>2017-04-17T13:55:42Z</time>
      </trkpt>
      <trkpt lat="46.24065" lon="2.50275">
        <ele>373</ele>
        <time>2017-04-17T13:55:45Z</time>
      </trkpt>
      <trkpt lat="46.24066" lon="2.5027">
        <ele>373</ele>
        <time>2017-04-17T13:55:48Z</time>
      </trkpt>
      <trkpt lat="46.24067" lon="2.50264">
        <ele>373</ele>
        <time>2017-04-17T13:55:51Z</time>
      </trkpt>
      <trkpt lat="46.24067" lon="2.50257">
        <ele>373</ele>
        <time>2017-04-17T13:55:54Z</time>
      </trkpt>
      <trkpt lat="46.24067" lon="2.50251">
        <ele>373</ele>
        <time>2017-04-17T13:55:57Z</time>
      </trkpt>
      <trkpt lat="46.24065" lon="2.50245">
        <ele>373</ele>
        <time>2017-04-17T13:56:00Z</time>
      </trkpt>
      <trkpt lat="46.24063" lon="2.50241">
        <ele>373</ele>
        <time>2017-04-17T13:56:03Z</time>
      </trkpt>
      <trkpt lat="46.2406" lon="2.50235">
        <ele>373</ele>
        <time>2017-04-17T13:56:07Z</time>
      </trkpt>
      <trkpt lat="46.24056" lon="2.50231">
        <ele>373</ele>
        <time>2017-04-17T13:56:10Z</time>
      </trkpt>
      <trkpt lat="46.24053" lon="2.50227">
        <ele>373</ele>
        <time>2017-04-17T13:56:13Z</time>
      </trkpt>
      <trkpt lat="46.24049" lon="2.50223">
        <ele>373</ele>
        <time>2017-04-17T13:56:16Z</time>
      </trkpt>
      <trkpt lat="46.24046" lon="2.5022">
        <ele>373</ele>
        <time>2017-04-17T13:56:19Z</time>
      </trkpt>
      <trkpt lat="46.24043" lon="2.50217">
        <ele>373</ele>
        <time>2017-04-17T13:56:22Z</time>
      </trkpt>
      <trkpt lat="46.24038" lon="2.50212">
        <ele>373</ele>
        <time>2017-04-17T13:56:26Z</time>
      </trkpt>
      <trkpt lat="46.24035" lon="2.50208">
        <ele>373</ele>
        <time>2017-04-17T13:56:29Z</time>
      </trkpt>
      <trkpt lat="46.24032" lon="2.50205">
        <ele>373</ele>
        <time>2017-04-17T13:56:32Z</time>
      </trkpt>
      <trkpt lat="46.24028" lon="2.502">
        <ele>373</ele>
        <time>2017-04-17T13:56:36Z</time>
      </trkpt>
      <trkpt lat="46.24027" lon="2.50195">
        <ele>373</ele>
        <time>2017-04-17T13:56:39Z</time>
      </trkpt>
      <trkpt lat="46.24026" lon="2.5019">
        <ele>373</ele>
        <time>2017-04-17T13:56:42Z</time>
      </trkpt>
      <trkpt lat="46.24025" lon="2.50184">
        <ele>373</ele>
        <time>2017-04-17T13:56:45Z</time>
      </trkpt>
      <trkpt lat="46.24025" lon="2.50179">
        <ele>374</ele>
        <time>2017-04-17T13:56:48Z</time>
      </trkpt>
      <trkpt lat="46.24026" lon="2.50175">
        <ele>374</ele>
        <time>2017-04-17T13:56:51Z</time>
      </trkpt>
      <trkpt lat="46.24028" lon="2.50169">
        <ele>374</ele>
        <time>2017-04-17T13:56:55Z</time>
      </trkpt>
      <trkpt lat="46.2403" lon="2.50164">
        <ele>375</ele>
        <time>2017-04-17T13:56:58Z</time>
      </trkpt>
      <trkpt lat="46.24032" lon="2.50159">
        <ele>375</ele>
        <time>2017-04-17T13:57:01Z</time>
      </trkpt>
      <trkpt lat="46.24034" lon="2.50155">
        <ele>375</ele>
        <time>2017-04-17T13:57:04Z</time>
      </trkpt>
      <trkpt lat="46.24035" lon="2.50149">
        <ele>375</ele>
        <time>2017-04-17T13:57:07Z</time>
      </trkpt>
      <trkpt lat="46.24037" lon="2.50144">
        <ele>375</ele>
        <time>2017-04-17T13:57:10Z</time>
      </trkpt>
      <trkpt lat="46.24038" lon="2.50138">
        <ele>375</ele>
        <time>2017-04-17T13:57:13Z</time>
      </trkpt>
      <trkpt lat="46.24037" lon="2.50133">
        <ele>375</ele>
        <time>2017-04-17T13:57:16Z</time>
      </trkpt>
      <trkpt lat="46.24036" lon="2.50127">
        <ele>375</ele>
        <time>2017-04-17T13:57:19Z</time>
      </trkpt>
      <trkpt lat="46.24035" lon="2.50121">
        <ele>375</ele>
        <time>2017-04-17T13:57:22Z</time>
      </trkpt>
      <trkpt lat="46.24034" lon="2.50115">
        <ele>375</ele>
        <time>2017-04-17T13:57:25Z</time>
      </trkpt>
      <trkpt lat="46.24032" lon="2.5011">
        <ele>375</ele>
        <time>2017-04-17T13:57:28Z</time>
      </trkpt>
      <trkpt lat="46.24031" lon="2.50104">
        <ele>375</ele>
        <time>2017-04-17T13:57:31Z</time>
      </trkpt>
      <trkpt lat="46.24029" lon="2.50099">
        <ele>375</ele>
        <time>2017-04-17T13:57:34Z</time>
      </trkpt>
      <trkpt lat="46.24028" lon="2.50093">
        <ele>375</ele>
        <time>2017-04-17T13:57:37Z</time>
      </trkpt>
      <trkpt lat="46.24026" lon="2.50088">
        <ele>376</ele>
        <time>2017-04-17T13:57:40Z</time>
      </trkpt>
      <trkpt lat="46.24025" lon="2.50082">
        <ele>376</ele>
        <time>2017-04-17T13:57:43Z</time>
      </trkpt>
      <trkpt lat="46.24024" lon="2.50077">
        <ele>376</ele>
        <time>2017-04-17T13:57:46Z</time>
      </trkpt>
      <trkpt lat="46.24023" lon="2.50071">
        <ele>377</ele>
        <time>2017-04-17T13:57:49Z</time>
      </trkpt>
      <trkpt lat="46.24021" lon="2.50065">
        <ele>377</ele>
        <time>2017-04-17T13:57:52Z</time>
      </trkpt>
      <trkpt lat="46.2402" lon="2.50059">
        <ele>378</ele>
        <time>2017-04-17T13:57:55Z</time>
      </trkpt>
      <trkpt lat="46.24019" lon="2.50054">
        <ele>378</ele>
        <time>2017-04-17T13:57:58Z</time>
      </trkpt>
      <trkpt lat="46.24018" lon="2.50048">
        <ele>378</ele>
        <time>2017-04-17T13:58:01Z</time>
      </trkpt>
      <trkpt lat="46.24017" lon="2.50043">
        <ele>378</ele>
        <time>2017-04-17T13:58:04Z</time>
      </trkpt>
      <trkpt lat="46.24016" lon="2.50037">
        <ele>378</ele>
        <time>2017-04-17T13:58:07Z</time>
      </trkpt>
      <trkpt lat="46.24015" lon="2.50031">
        <ele>378</ele>
        <time>2017-04-17T13:58:10Z</time>
      </trkpt>
      <trkpt lat="46.24014" lon="2.50025">
        <ele>378</ele>
        <time>2017-04-17T13:58:13Z</time>
      </trkpt>
      <trkpt lat="46.24014" lon="2.5002">
        <ele>378</ele>
        <time>2017-04-17T13:58:16Z</time>
      </trkpt>
      <trkpt lat="46.24013" lon="2.50014">
        <ele>378</ele>
        <time>2017-04-17T13:58:19Z</time>
      </trkpt>
      <trkpt lat="46.24012" lon="2.50008">
        <ele>378</ele>
        <time>2017-04-17T13:58:22Z</time>
      </trkpt>
      <trkpt lat="46.24012" lon="2.50002">
        <ele>379</ele>
        <time>2017-04-17T13:58:25Z</time>
      </trkpt>
      <trkpt lat="46.24011" lon="2.49996">
        <ele>379</ele>
        <time>2017-04-17T13:58:28Z</time>
      </trkpt>
      <trkpt lat="46.2401" lon="2.4999">
        <ele>379</ele>
        <time>2017-04-17T13:58:31Z</time>
      </trkpt>
      <trkpt lat="46.2401" lon="2.49984">
        <ele>380</ele>
        <time>2017-04-17T13:58:34Z</time>
      </trkpt>
      <trkpt lat="46.24009" lon="2.49978">
        <ele>380</ele>
        <time>2017-04-17T13:58:37Z</time>
      </trkpt>
      <trkpt lat="46.24009" lon="2.49972">
        <ele>380</ele>
        <time>2017-04-17T13:58:40Z</time>
      </trkpt>
      <trkpt lat="46.24008" lon="2.49966">
        <ele>381</ele>
        <time>2017-04-17T13:58:43Z</time>
      </trkpt>
      <trkpt lat="46.24008" lon="2.49959">
        <ele>381</ele>
        <time>2017-04-17T13:58:46Z</time>
      </trkpt>
      <trkpt lat="46.24008" lon="2.49953">
        <ele>381</ele>
        <time>2017-04-17T13:58:49Z</time>
      </trkpt>
      <trkpt lat="46.24007" lon="2.49947">
        <ele>381</ele>
        <time>2017-04-17T13:58:52Z</time>
      </trkpt>
      <trkpt lat="46.24007" lon="2.49942">
        <ele>381</ele>
        <time>2017-04-17T13:58:55Z</time>
      </trkpt>
      <trkpt lat="46.24007" lon="2.49936">
        <ele>381</ele>
        <time>2017-04-17T13:58:58Z</time>
      </trkpt>
      <trkpt lat="46.24006" lon="2.49929">
        <ele>381</ele>
        <time>2017-04-17T13:59:01Z</time>
      </trkpt>
      <trkpt lat="46.24006" lon="2.49923">
        <ele>381</ele>
        <time>2017-04-17T13:59:04Z</time>
      </trkpt>
      <trkpt lat="46.24005" lon="2.49917">
        <ele>381</ele>
        <time>2017-04-17T13:59:07Z</time>
      </trkpt>
      <trkpt lat="46.24005" lon="2.49911">
        <ele>381</ele>
        <time>2017-04-17T13:59:10Z</time>
      </trkpt>
      <trkpt lat="46.24004" lon="2.49905">
        <ele>381</ele>
        <time>2017-04-17T13:59:13Z</time>
      </trkpt>
      <trkpt lat="46.24004" lon="2.49899">
        <ele>381</ele>
        <time>2017-04-17T13:59:16Z</time>
      </trkpt>
      <trkpt lat="46.24004" lon="2.49892">
        <ele>381</ele>
        <time>2017-04-17T13:59:19Z</time>
      </trkpt>
      <trkpt lat="46.24004" lon="2.49886">
        <ele>381</ele>
        <time>2017-04-17T13:59:22Z</time>
      </trkpt>
      <trkpt lat="46.24004" lon="2.4988">
        <ele>381</ele>
        <time>2017-04-17T13:59:25Z</time>
      </trkpt>
      <trkpt lat="46.24004" lon="2.49874">
        <ele>381</ele>
        <time>2017-04-17T13:59:28Z</time>
      </trkpt>
      <trkpt lat="46.24004" lon="2.49868">
        <ele>381</ele>
        <time>2017-04-17T13:59:31Z</time>
      </trkpt>
      <trkpt lat="46.24005" lon="2.49862">
        <ele>382</ele>
        <time>2017-04-17T13:59:34Z</time>
      </trkpt>
      <trkpt lat="46.24005" lon="2.49857">
        <ele>382</ele>
        <time>2017-04-17T13:59:37Z</time>
      </trkpt>
      <trkpt lat="46.24005" lon="2.49851">
        <ele>383</ele>
        <time>2017-04-17T13:59:40Z</time>
      </trkpt>
      <trkpt lat="46.24006" lon="2.49845">
        <ele>383</ele>
        <time>2017-04-17T13:59:43Z</time>
      </trkpt>
      <trkpt lat="46.24006" lon="2.49839">
        <ele>383</ele>
        <time>2017-04-17T13:59:46Z</time>
      </trkpt>
      <trkpt lat="46.24007" lon="2.49833">
        <ele>383</ele>
        <time>2017-04-17T13:59:49Z</time>
      </trkpt>
      <trkpt lat="46.24007" lon="2.49827">
        <ele>384</ele>
        <time>2017-04-17T13:59:52Z</time>
      </trkpt>
      <trkpt lat="46.24008" lon="2.49821">
        <ele>384</ele>
        <time>2017-04-17T13:59:55Z</time>
      </trkpt>
      <trkpt lat="46.24008" lon="2.49815">
        <ele>384</ele>
        <time>2017-04-17T13:59:58Z</time>
      </trkpt>
      <trkpt lat="46.24009" lon="2.49809">
        <ele>385</ele>
        <time>2017-04-17T14:00:01Z</time>
      </trkpt>
      <trkpt lat="46.24009" lon="2.49803">
        <ele>385</ele>
        <time>2017-04-17T14:00:04Z</time>
      </trkpt>
      <trkpt lat="46.2401" lon="2.49797">
        <ele>385</ele>
        <time>2017-04-17T14:00:07Z</time>
      </trkpt>
      <trkpt lat="46.24011" lon="2.49791">
        <ele>386</ele>
        <time>2017-04-17T14:00:10Z</time>
      </trkpt>
      <trkpt lat="46.24011" lon="2.49785">
        <ele>386</ele>
        <time>2017-04-17T14:00:13Z</time>
      </trkpt>
      <trkpt lat="46.24012" lon="2.49779">
        <ele>386</ele>
        <time>2017-04-17T14:00:16Z</time>
      </trkpt>
      <trkpt lat="46.24012" lon="2.49773">
        <ele>386</ele>
        <time>2017-04-17T14:00:19Z</time>
      </trkpt>
      <trkpt lat="46.24013" lon="2.49767">
        <ele>387</ele>
        <time>2017-04-17T14:00:22Z</time>
      </trkpt>
      <trkpt lat="46.24014" lon="2.49762">
        <ele>387</ele>
        <time>2017-04-17T14:00:25Z</time>
      </trkpt>
      <trkpt lat="46.24014" lon="2.49756">
        <ele>387</ele>
        <time>2017-04-17T14:00:28Z</time>
      </trkpt>
      <trkpt lat="46.24015" lon="2.4975">
        <ele>388</ele>
        <time>2017-04-17T14:00:31Z</time>
      </trkpt>
      <trkpt lat="46.24016" lon="2.49744">
        <ele>388</ele>
        <time>2017-04-17T14:00:34Z</time>
      </trkpt>
      <trkpt lat="46.24017" lon="2.49738">
        <ele>389</ele>
        <time>2017-04-17T14:00:37Z</time>
      </trkpt>
      <trkpt lat="46.24018" lon="2.49733">
        <ele>389</ele>
        <time>2017-04-17T14:00:40Z</time>
      </trkpt>
      <trkpt lat="46.24019" lon="2.49727">
        <ele>390</ele>
        <time>2017-04-17T14:00:43Z</time>
      </trkpt>
      <trkpt lat="46.2402" lon="2.49722">
        <ele>390</ele>
        <time>2017-04-17T14:00:46Z</time>
      </trkpt>
      <trkpt lat="46.24022" lon="2.49716">
        <ele>390</ele>
        <time>2017-04-17T14:00:49Z</time>
      </trkpt>
      <trkpt lat="46.24023" lon="2.4971">
        <ele>390</ele>
        <time>2017-04-17T14:00:52Z</time>
      </trkpt>
      <trkpt lat="46.24025" lon="2.49705">
        <ele>390</ele>
        <time>2017-04-17T14:00:55Z</time>
      </trkpt>
      <trkpt lat="46.24027" lon="2.497">
        <ele>390</ele>
        <time>2017-04-17T14:00:58Z</time>
      </trkpt>
      <trkpt lat="46.24029" lon="2.49695">
        <ele>390</ele>
        <time>2017-04-17T14:01:01Z</time>
      </trkpt>
      <trkpt lat="46.24031" lon="2.4969">
        <ele>390</ele>
        <time>2017-04-17T14:01:04Z</time>
      </trkpt>
      <trkpt lat="46.24033" lon="2.49685">
        <ele>390</ele>
        <time>2017-04-17T14:01:07Z</time>
      </trkpt>
      <trkpt lat="46.24036" lon="2.4968">
        <ele>390</ele>
        <time>2017-04-17T14:01:10Z</time>
      </trkpt>
      <trkpt lat="46.24038" lon="2.49675">
        <ele>391</ele>
        <time>2017-04-17T14:01:13Z</time>
      </trkpt>
      <trkpt lat="46.24041" lon="2.49671">
        <ele>391</ele>
        <time>2017-04-17T14:01:16Z</time>
      </trkpt>
      <trkpt lat="46.24043" lon="2.49666">
        <ele>391</ele>
        <time>2017-04-17T14:01:19Z</time>
      </trkpt>
      <trkpt lat="46.24046" lon="2.49662">
        <ele>392</ele>
        <time>2017-04-17T14:01:22Z</time>
      </trkpt>
      <trkpt lat="46.24048" lon="2.49657">
        <ele>392</ele>
        <time>2017-04-17T14:01:25Z</time>
      </trkpt>
      <trkpt lat="46.24051" lon="2.49653">
        <ele>392</ele>
        <time>2017-04-17T14:01:28Z</time>
      </trkpt>
      <trkpt lat="46.24053" lon="2.49649">
        <ele>392</ele>
        <time>2017-04-17T14:01:31Z</time>
      </trkpt>
      <trkpt lat="46.24057" lon="2.49643">
        <ele>392</ele>
        <time>2017-04-17T14:01:35Z</time>
      </trkpt>
      <trkpt lat="46.2406" lon="2.49639">
        <ele>392</ele>
        <time>2017-04-17T14:01:38Z</time>
      </trkpt>
      <trkpt lat="46.24062" lon="2.49635">
        <ele>392</ele>
        <time>2017-04-17T14:01:41Z</time>
      </trkpt>
      <trkpt lat="46.24065" lon="2.4963">
        <ele>392</ele>
        <time>2017-04-17T14:01:44Z</time>
      </trkpt>
      <trkpt lat="46.24067" lon="2.49625">
        <ele>392</ele>
        <time>2017-04-17T14:01:47Z</time>
      </trkpt>
      <trkpt lat="46.2407" lon="2.4962">
        <ele>392</ele>
        <time>2017-04-17T14:01:51Z</time>
      </trkpt>
      <trkpt lat="46.24073" lon="2.49615">
        <ele>393</ele>
        <time>2017-04-17T14:01:54Z</time>
      </trkpt>
      <trkpt lat="46.24075" lon="2.49611">
        <ele>393</ele>
        <time>2017-04-17T14:01:57Z</time>
      </trkpt>
      <trkpt lat="46.24079" lon="2.49605">
        <ele>393</ele>
        <time>2017-04-17T14:02:01Z</time>
      </trkpt>
      <trkpt lat="46.24083" lon="2.49599">
        <ele>394</ele>
        <time>2017-04-17T14:02:05Z</time>
      </trkpt>
      <trkpt lat="46.24085" lon="2.49595">
        <ele>394</ele>
        <time>2017-04-17T14:02:08Z</time>
      </trkpt>
      <trkpt lat="46.24088" lon="2.4959">
        <ele>394</ele>
        <time>2017-04-17T14:02:11Z</time>
      </trkpt>
      <trkpt lat="46.2409" lon="2.49585">
        <ele>395</ele>
        <time>2017-04-17T14:02:14Z</time>
      </trkpt>
      <trkpt lat="46.24092" lon="2.4958">
        <ele>395</ele>
        <time>2017-04-17T14:02:17Z</time>
      </trkpt>
      <trkpt lat="46.24095" lon="2.49575">
        <ele>395</ele>
        <time>2017-04-17T14:02:20Z</time>
      </trkpt>
      <trkpt lat="46.24097" lon="2.4957">
        <ele>395</ele>
        <time>2017-04-17T14:02:23Z</time>
      </trkpt>
      <trkpt lat="46.241" lon="2.49566">
        <ele>395</ele>
        <time>2017-04-17T14:02:26Z</time>
      </trkpt>
      <trkpt lat="46.24102" lon="2.49561">
        <ele>395</ele>
        <time>2017-04-17T14:02:29Z</time>
      </trkpt>
      <trkpt lat="46.24105" lon="2.49556">
        <ele>395</ele>
        <time>2017-04-17T14:02:32Z</time>
      </trkpt>
      <trkpt lat="46.24107" lon="2.49551">
        <ele>395</ele>
        <time>2017-04-17T14:02:35Z</time>
      </trkpt>
      <trkpt lat="46.2411" lon="2.49545">
        <ele>395</ele>
        <time>2017-04-17T14:02:39Z</time>
      </trkpt>
      <trkpt lat="46.24112" lon="2.4954">
        <ele>395</ele>
        <time>2017-04-17T14:02:42Z</time>
      </trkpt>
      <trkpt lat="46.24115" lon="2.49535">
        <ele>396</ele>
        <time>2017-04-17T14:02:45Z</time>
      </trkpt>
      <trkpt lat="46.24118" lon="2.4953">
        <ele>396</ele>
        <time>2017-04-17T14:02:48Z</time>
      </trkpt>
      <trkpt lat="46.2412" lon="2.49525">
        <ele>396</ele>
        <time>2017-04-17T14:02:51Z</time>
      </trkpt>
      <trkpt lat="46.24122" lon="2.4952">
        <ele>396</ele>
        <time>2017-04-17T14:02:54Z</time>
      </trkpt>
      <trkpt lat="46.24125" lon="2.49516">
        <ele>396</ele>
        <time>2017-04-17T14:02:57Z</time>
      </trkpt>
      <trkpt lat="46.24128" lon="2.49511">
        <ele>396</ele>
        <time>2017-04-17T14:03:00Z</time>
      </trkpt>
      <trkpt lat="46.24131" lon="2.49505">
        <ele>396</ele>
        <time>2017-04-17T14:03:04Z</time>
      </trkpt>
      <trkpt lat="46.24134" lon="2.495">
        <ele>396</ele>
        <time>2017-04-17T14:03:07Z</time>
      </trkpt>
      <trkpt lat="46.24136" lon="2.49496">
        <ele>396</ele>
        <time>2017-04-17T14:03:10Z</time>
      </trkpt>
      <trkpt lat="46.24139" lon="2.49491">
        <ele>396</ele>
        <time>2017-04-17T14:03:13Z</time>
      </trkpt>
      <trkpt lat="46.24141" lon="2.49486">
        <ele>396</ele>
        <time>2017-04-17T14:03:16Z</time>
      </trkpt>
      <trkpt lat="46.24143" lon="2.49481">
        <ele>396</ele>
        <time>2017-04-17T14:03:19Z</time>
      </trkpt>
      <trkpt lat="46.24146" lon="2.49476">
        <ele>396</ele>
        <time>2017-04-17T14:03:22Z</time>
      </trkpt>
      <trkpt lat="46.24147" lon="2.4947">
        <ele>396</ele>
        <time>2017-04-17T14:03:25Z</time>
      </trkpt>
      <trkpt lat="46.24149" lon="2.49464">
        <ele>396</ele>
        <time>2017-04-17T14:03:28Z</time>
      </trkpt>
      <trkpt lat="46.24151" lon="2.49459">
        <ele>396</ele>
        <time>2017-04-17T14:03:31Z</time>
      </trkpt>
      <trkpt lat="46.24153" lon="2.49453">
        <ele>396</ele>
        <time>2017-04-17T14:03:34Z</time>
      </trkpt>
      <trkpt lat="46.24154" lon="2.49448">
        <ele>396</ele>
        <time>2017-04-17T14:03:37Z</time>
      </trkpt>
      <trkpt lat="46.24155" lon="2.49442">
        <ele>396</ele>
        <time>2017-04-17T14:03:40Z</time>
      </trkpt>
      <trkpt lat="46.24157" lon="2.49436">
        <ele>396</ele>
        <time>2017-04-17T14:03:43Z</time>
      </trkpt>
      <trkpt lat="46.24158" lon="2.4943">
        <ele>396</ele>
        <time>2017-04-17T14:03:46Z</time>
      </trkpt>
      <trkpt lat="46.24159" lon="2.49424">
        <ele>396</ele>
        <time>2017-04-17T14:03:49Z</time>
      </trkpt>
      <trkpt lat="46.2416" lon="2.49418">
        <ele>396</ele>
        <time>2017-04-17T14:03:52Z</time>
      </trkpt>
      <trkpt lat="46.24161" lon="2.49412">
        <ele>396</ele>
        <time>2017-04-17T14:03:55Z</time>
      </trkpt>
      <trkpt lat="46.24163" lon="2.49407">
        <ele>396</ele>
        <time>2017-04-17T14:03:58Z</time>
      </trkpt>
      <trkpt lat="46.24164" lon="2.494">
        <ele>396</ele>
        <time>2017-04-17T14:04:01Z</time>
      </trkpt>
      <trkpt lat="46.24165" lon="2.49394">
        <ele>396</ele>
        <time>2017-04-17T14:04:04Z</time>
      </trkpt>
      <trkpt lat="46.24166" lon="2.49388">
        <ele>396</ele>
        <time>2017-04-17T14:04:07Z</time>
      </trkpt>
      <trkpt lat="46.24168" lon="2.49382">
        <ele>396</ele>
        <time>2017-04-17T14:04:10Z</time>
      </trkpt>
      <trkpt lat="46.24169" lon="2.49377">
        <ele>396</ele>
        <time>2017-04-17T14:04:13Z</time>
      </trkpt>
      <trkpt lat="46.2417" lon="2.49371">
        <ele>396</ele>
        <time>2017-04-17T14:04:16Z</time>
      </trkpt>
      <trkpt lat="46.24171" lon="2.49365">
        <ele>396</ele>
        <time>2017-04-17T14:04:19Z</time>
      </trkpt>
      <trkpt lat="46.24172" lon="2.49359">
        <ele>396</ele>
        <time>2017-04-17T14:04:22Z</time>
      </trkpt>
      <trkpt lat="46.24173" lon="2.49353">
        <ele>396</ele>
        <time>2017-04-17T14:04:25Z</time>
      </trkpt>
      <trkpt lat="46.24174" lon="2.49347">
        <ele>396</ele>
        <time>2017-04-17T14:04:28Z</time>
      </trkpt>
      <trkpt lat="46.24175" lon="2.49341">
        <ele>396</ele>
        <time>2017-04-17T14:04:31Z</time>
      </trkpt>
      <trkpt lat="46.24176" lon="2.49335">
        <ele>396</ele>
        <time>2017-04-17T14:04:34Z</time>
      </trkpt>
      <trkpt lat="46.24176" lon="2.49329">
        <ele>396</ele>
        <time>2017-04-17T14:04:37Z</time>
      </trkpt>
      <trkpt lat="46.24177" lon="2.49323">
        <ele>396</ele>
        <time>2017-04-17T14:04:40Z</time>
      </trkpt>
      <trkpt lat="46.24178" lon="2.49318">
        <ele>396</ele>
        <time>2017-04-17T14:04:43Z</time>
      </trkpt>
      <trkpt lat="46.24178" lon="2.49312">
        <ele>396</ele>
        <time>2017-04-17T14:04:46Z</time>
      </trkpt>
      <trkpt lat="46.24179" lon="2.49306">
        <ele>396</ele>
        <time>2017-04-17T14:04:49Z</time>
      </trkpt>
      <trkpt lat="46.2418" lon="2.49301">
        <ele>396</ele>
        <time>2017-04-17T14:04:52Z</time>
      </trkpt>
      <trkpt lat="46.2418" lon="2.49295">
        <ele>396</ele>
        <time>2017-04-17T14:04:55Z</time>
      </trkpt>
      <trkpt lat="46.24181" lon="2.49289">
        <ele>395</ele>
        <time>2017-04-17T14:04:58Z</time>
      </trkpt>
      <trkpt lat="46.24182" lon="2.49284">
        <ele>395</ele>
        <time>2017-04-17T14:05:01Z</time>
      </trkpt>
      <trkpt lat="46.24182" lon="2.49278">
        <ele>394</ele>
        <time>2017-04-17T14:05:04Z</time>
      </trkpt>
      <trkpt lat="46.24183" lon="2.49272">
        <ele>394</ele>
        <time>2017-04-17T14:05:07Z</time>
      </trkpt>
      <trkpt lat="46.24184" lon="2.49267">
        <ele>393</ele>
        <time>2017-04-17T14:05:10Z</time>
      </trkpt>
      <trkpt lat="46.24184" lon="2.49261">
        <ele>393</ele>
        <time>2017-04-17T14:05:13Z</time>
      </trkpt>
      <trkpt lat="46.24185" lon="2.49256">
        <ele>392</ele>
        <time>2017-04-17T14:05:16Z</time>
      </trkpt>
      <trkpt lat="46.24185" lon="2.4925">
        <ele>392</ele>
        <time>2017-04-17T14:05:19Z</time>
      </trkpt>
      <trkpt lat="46.24186" lon="2.49244">
        <ele>392</ele>
        <time>2017-04-17T14:05:22Z</time>
      </trkpt>
      <trkpt lat="46.24187" lon="2.49238">
        <ele>392</ele>
        <time>2017-04-17T14:05:25Z</time>
      </trkpt>
      <trkpt lat="46.24187" lon="2.49232">
        <ele>392</ele>
        <time>2017-04-17T14:05:28Z</time>
      </trkpt>
      <trkpt lat="46.24188" lon="2.49226">
        <ele>392</ele>
        <time>2017-04-17T14:05:31Z</time>
      </trkpt>
      <trkpt lat="46.24189" lon="2.4922">
        <ele>392</ele>
        <time>2017-04-17T14:05:34Z</time>
      </trkpt>
      <trkpt lat="46.24189" lon="2.49214">
        <ele>391</ele>
        <time>2017-04-17T14:05:37Z</time>
      </trkpt>
      <trkpt lat="46.2419" lon="2.49208">
        <ele>390</ele>
        <time>2017-04-17T14:05:40Z</time>
      </trkpt>
      <trkpt lat="46.2419" lon="2.49203">
        <ele>390</ele>
        <time>2017-04-17T14:05:43Z</time>
      </trkpt>
      <trkpt lat="46.24191" lon="2.49197">
        <ele>390</ele>
        <time>2017-04-17T14:05:46Z</time>
      </trkpt>
      <trkpt lat="46.24191" lon="2.49191">
        <ele>390</ele>
        <time>2017-04-17T14:05:49Z</time>
      </trkpt>
      <trkpt lat="46.2419" lon="2.49185">
        <ele>390</ele>
        <time>2017-04-17T14:05:52Z</time>
      </trkpt>
      <trkpt lat="46.24189" lon="2.49177">
        <ele>390</ele>
        <time>2017-04-17T14:05:56Z</time>
      </trkpt>
      <trkpt lat="46.24188" lon="2.49171">
        <ele>390</ele>
        <time>2017-04-17T14:05:59Z</time>
      </trkpt>
      <trkpt lat="46.24187" lon="2.49166">
        <ele>390</ele>
        <time>2017-04-17T14:06:02Z</time>
      </trkpt>
      <trkpt lat="46.24186" lon="2.4916">
        <ele>389</ele>
        <time>2017-04-17T14:06:05Z</time>
      </trkpt>
      <trkpt lat="46.24185" lon="2.49154">
        <ele>389</ele>
        <time>2017-04-17T14:06:08Z</time>
      </trkpt>
      <trkpt lat="46.24184" lon="2.49149">
        <ele>389</ele>
        <time>2017-04-17T14:06:11Z</time>
      </trkpt>
      <trkpt lat="46.24183" lon="2.49143">
        <ele>389</ele>
        <time>2017-04-17T14:06:14Z</time>
      </trkpt>
      <trkpt lat="46.24181" lon="2.49137">
        <ele>389</ele>
        <time>2017-04-17T14:06:17Z</time>
      </trkpt>
      <trkpt lat="46.2418" lon="2.49132">
        <ele>389</ele>
        <time>2017-04-17T14:06:20Z</time>
      </trkpt>
      <trkpt lat="46.24179" lon="2.49127">
        <ele>389</ele>
        <time>2017-04-17T14:06:23Z</time>
      </trkpt>
      <trkpt lat="46.24178" lon="2.49121">
        <ele>389</ele>
        <time>2017-04-17T14:06:26Z</time>
      </trkpt>
      <trkpt lat="46.24178" lon="2.49115">
        <ele>389</ele>
        <time>2017-04-17T14:06:29Z</time>
      </trkpt>
      <trkpt lat="46.24177" lon="2.4911">
        <ele>389</ele>
        <time>2017-04-17T14:06:32Z</time>
      </trkpt>
      <trkpt lat="46.24177" lon="2.49104">
        <ele>388</ele>
        <time>2017-04-17T14:06:35Z</time>
      </trkpt>
      <trkpt lat="46.24177" lon="2.49098">
        <ele>388</ele>
        <time>2017-04-17T14:06:38Z</time>
      </trkpt>
      <trkpt lat="46.24178" lon="2.49092">
        <ele>388</ele>
        <time>2017-04-17T14:06:41Z</time>
      </trkpt>
      <trkpt lat="46.24179" lon="2.49085">
        <ele>388</ele>
        <time>2017-04-17T14:06:44Z</time>
      </trkpt>
      <trkpt lat="46.2418" lon="2.49079">
        <ele>388</ele>
        <time>2017-04-17T14:06:47Z</time>
      </trkpt>
      <trkpt lat="46.24181" lon="2.49073">
        <ele>388</ele>
        <time>2017-04-17T14:06:50Z</time>
      </trkpt>
      <trkpt lat="46.24183" lon="2.49065">
        <ele>388</ele>
        <time>2017-04-17T14:06:54Z</time>
      </trkpt>
      <trkpt lat="46.24184" lon="2.49059">
        <ele>388</ele>
        <time>2017-04-17T14:06:57Z</time>
      </trkpt>
      <trkpt lat="46.24185" lon="2.49053">
        <ele>387</ele>
        <time>2017-04-17T14:07:00Z</time>
      </trkpt>
      <trkpt lat="46.24186" lon="2.49047">
        <ele>387</ele>
        <time>2017-04-17T14:07:03Z</time>
      </trkpt>
      <trkpt lat="46.24188" lon="2.49042">
        <ele>387</ele>
        <time>2017-04-17T14:07:06Z</time>
      </trkpt>
      <trkpt lat="46.24189" lon="2.49036">
        <ele>387</ele>
        <time>2017-04-17T14:07:09Z</time>
      </trkpt>
      <trkpt lat="46.2419" lon="2.4903">
        <ele>387</ele>
        <time>2017-04-17T14:07:12Z</time>
      </trkpt>
      <trkpt lat="46.24191" lon="2.49024">
        <ele>387</ele>
        <time>2017-04-17T14:07:15Z</time>
      </trkpt>
      <trkpt lat="46.24193" lon="2.49019">
        <ele>387</ele>
        <time>2017-04-17T14:07:18Z</time>
      </trkpt>
      <trkpt lat="46.24194" lon="2.49013">
        <ele>387</ele>
        <time>2017-04-17T14:07:21Z</time>
      </trkpt>
      <trkpt lat="46.24195" lon="2.49007">
        <ele>387</ele>
        <time>2017-04-17T14:07:24Z</time>
      </trkpt>
      <trkpt lat="46.24197" lon="2.49">
        <ele>387</ele>
        <time>2017-04-17T14:07:28Z</time>
      </trkpt>
      <trkpt lat="46.24198" lon="2.48992">
        <ele>386</ele>
        <time>2017-04-17T14:07:32Z</time>
      </trkpt>
      <trkpt lat="46.242" lon="2.48984">
        <ele>386</ele>
        <time>2017-04-17T14:07:36Z</time>
      </trkpt>
      <trkpt lat="46.242" lon="2.48979">
        <ele>386</ele>
        <time>2017-04-17T14:07:39Z</time>
      </trkpt>
      <trkpt lat="46.24202" lon="2.48972">
        <ele>386</ele>
        <time>2017-04-17T14:07:43Z</time>
      </trkpt>
      <trkpt lat="46.24204" lon="2.48967">
        <ele>386</ele>
        <time>2017-04-17T14:07:46Z</time>
      </trkpt>
      <trkpt lat="46.24206" lon="2.48962">
        <ele>386</ele>
        <time>2017-04-17T14:07:49Z</time>
      </trkpt>
      <trkpt lat="46.24209" lon="2.48957">
        <ele>386</ele>
        <time>2017-04-17T14:07:52Z</time>
      </trkpt>
      <trkpt lat="46.24212" lon="2.48952">
        <ele>386</ele>
        <time>2017-04-17T14:07:55Z</time>
      </trkpt>
      <trkpt lat="46.24217" lon="2.48946">
        <ele>386</ele>
        <time>2017-04-17T14:08:00Z</time>
      </trkpt>
      <trkpt lat="46.24221" lon="2.48942">
        <ele>386</ele>
        <time>2017-04-17T14:08:04Z</time>
      </trkpt>
      <trkpt lat="46.24224" lon="2.4894">
        <ele>386</ele>
        <time>2017-04-17T14:08:07Z</time>
      </trkpt>
      <trkpt lat="46.24228" lon="2.48936">
        <ele>386</ele>
        <time>2017-04-17T14:08:11Z</time>
      </trkpt>
      <trkpt lat="46.24232" lon="2.48931">
        <ele>386</ele>
        <time>2017-04-17T14:08:15Z</time>
      </trkpt>
      <trkpt lat="46.24234" lon="2.48926">
        <ele>386</ele>
        <time>2017-04-17T14:08:18Z</time>
      </trkpt>
      <trkpt lat="46.24238" lon="2.4892">
        <ele>386</ele>
        <time>2017-04-17T14:08:22Z</time>
      </trkpt>
      <trkpt lat="46.24242" lon="2.48916">
        <ele>387</ele>
        <time>2017-04-17T14:08:26Z</time>
      </trkpt>
      <trkpt lat="46.24247" lon="2.48911">
        <ele>390</ele>
        <time>2017-04-17T14:08:30Z</time>
      </trkpt>
      <trkpt lat="46.24251" lon="2.48914">
        <ele>391</ele>
        <time>2017-04-17T14:08:34Z</time>
      </trkpt>
      <trkpt lat="46.24255" lon="2.48917">
        <ele>392</ele>
        <time>2017-04-17T14:08:38Z</time>
      </trkpt>
      <trkpt lat="46.24258" lon="2.48919">
        <ele>392</ele>
        <time>2017-04-17T14:08:41Z</time>
      </trkpt>
      <trkpt lat="46.24261" lon="2.48921">
        <ele>392</ele>
        <time>2017-04-17T14:08:45Z</time>
      </trkpt>
      <trkpt lat="46.24266" lon="2.48925">
        <ele>392</ele>
        <time>2017-04-17T14:08:49Z</time>
      </trkpt>
      <trkpt lat="46.24268" lon="2.48928">
        <ele>392</ele>
        <time>2017-04-17T14:08:52Z</time>
      </trkpt>
      <trkpt lat="46.24272" lon="2.4893">
        <ele>392</ele>
        <time>2017-04-17T14:08:55Z</time>
      </trkpt>
      <trkpt lat="46.24278" lon="2.4893">
        <ele>392</ele>
        <time>2017-04-17T14:08:59Z</time>
      </trkpt>
      <trkpt lat="46.24282" lon="2.4893">
        <ele>392</ele>
        <time>2017-04-17T14:09:02Z</time>
      </trkpt>
      <trkpt lat="46.24287" lon="2.48929">
        <ele>393</ele>
        <time>2017-04-17T14:09:06Z</time>
      </trkpt>
      <trkpt lat="46.24293" lon="2.48931">
        <ele>393</ele>
        <time>2017-04-17T14:09:11Z</time>
      </trkpt>
      <trkpt lat="46.243" lon="2.48932">
        <ele>394</ele>
        <time>2017-04-17T14:09:16Z</time>
      </trkpt>
      <trkpt lat="46.24305" lon="2.48933">
        <ele>395</ele>
        <time>2017-04-17T14:09:20Z</time>
      </trkpt>
      <trkpt lat="46.24309" lon="2.48935">
        <ele>395</ele>
        <time>2017-04-17T14:09:23Z</time>
      </trkpt>
      <trkpt lat="46.24313" lon="2.48938">
        <ele>395</ele>
        <time>2017-04-17T14:09:26Z</time>
      </trkpt>
      <trkpt lat="46.24319" lon="2.48941">
        <ele>395</ele>
        <time>2017-04-17T14:09:30Z</time>
      </trkpt>
      <trkpt lat="46.24323" lon="2.48944">
        <ele>395</ele>
        <time>2017-04-17T14:09:33Z</time>
      </trkpt>
      <trkpt lat="46.24327" lon="2.48948">
        <ele>396</ele>
        <time>2017-04-17T14:09:36Z</time>
      </trkpt>
      <trkpt lat="46.24332" lon="2.48952">
        <ele>396</ele>
        <time>2017-04-17T14:09:40Z</time>
      </trkpt>
      <trkpt lat="46.24335" lon="2.48955">
        <ele>397</ele>
        <time>2017-04-17T14:09:43Z</time>
      </trkpt>
      <trkpt lat="46.24339" lon="2.4896">
        <ele>397</ele>
        <time>2017-04-17T14:09:47Z</time>
      </trkpt>
      <trkpt lat="46.24344" lon="2.48965">
        <ele>397</ele>
        <time>2017-04-17T14:09:51Z</time>
      </trkpt>
      <trkpt lat="46.24348" lon="2.48968">
        <ele>397</ele>
        <time>2017-04-17T14:09:54Z</time>
      </trkpt>
      <trkpt lat="46.24351" lon="2.48971">
        <ele>397</ele>
        <time>2017-04-17T14:09:57Z</time>
      </trkpt>
      <trkpt lat="46.24356" lon="2.48975">
        <ele>397</ele>
        <time>2017-04-17T14:10:01Z</time>
      </trkpt>
      <trkpt lat="46.2436" lon="2.48979">
        <ele>397</ele>
        <time>2017-04-17T14:10:04Z</time>
      </trkpt>
      <trkpt lat="46.24363" lon="2.48982">
        <ele>397</ele>
        <time>2017-04-17T14:10:07Z</time>
      </trkpt>
      <trkpt lat="46.24367" lon="2.48987">
        <ele>397</ele>
        <time>2017-04-17T14:10:12Z</time>
      </trkpt>
      <trkpt lat="46.24373" lon="2.48993">
        <ele>397</ele>
        <time>2017-04-17T14:10:17Z</time>
      </trkpt>
      <trkpt lat="46.24378" lon="2.48997">
        <ele>397</ele>
        <time>2017-04-17T14:10:21Z</time>
      </trkpt>
      <trkpt lat="46.24381" lon="2.49">
        <ele>397</ele>
        <time>2017-04-17T14:10:24Z</time>
      </trkpt>
      <trkpt lat="46.24384" lon="2.49003">
        <ele>397</ele>
        <time>2017-04-17T14:10:27Z</time>
      </trkpt>
      <trkpt lat="46.24389" lon="2.49007">
        <ele>397</ele>
        <time>2017-04-17T14:10:31Z</time>
      </trkpt>
      <trkpt lat="46.24392" lon="2.4901">
        <ele>397</ele>
        <time>2017-04-17T14:10:34Z</time>
      </trkpt>
      <trkpt lat="46.24396" lon="2.49014">
        <ele>397</ele>
        <time>2017-04-17T14:10:38Z</time>
      </trkpt>
      <trkpt lat="46.24401" lon="2.49016">
        <ele>397</ele>
        <time>2017-04-17T14:10:42Z</time>
      </trkpt>
      <trkpt lat="46.24406" lon="2.49019">
        <ele>397</ele>
        <time>2017-04-17T14:10:45Z</time>
      </trkpt>
      <trkpt lat="46.24408" lon="2.49022">
        <ele>397</ele>
        <time>2017-04-17T14:10:48Z</time>
      </trkpt>
      <trkpt lat="46.24414" lon="2.49027">
        <ele>397</ele>
        <time>2017-04-17T14:10:53Z</time>
      </trkpt>
      <trkpt lat="46.24419" lon="2.49032">
        <ele>397</ele>
        <time>2017-04-17T14:10:57Z</time>
      </trkpt>
      <trkpt lat="46.24423" lon="2.49036">
        <ele>397</ele>
        <time>2017-04-17T14:11:01Z</time>
      </trkpt>
      <trkpt lat="46.24427" lon="2.49039">
        <ele>397</ele>
        <time>2017-04-17T14:11:04Z</time>
      </trkpt>
      <trkpt lat="46.24431" lon="2.49043">
        <ele>398</ele>
        <time>2017-04-17T14:11:08Z</time>
      </trkpt>
      <trkpt lat="46.24435" lon="2.49045">
        <ele>398</ele>
        <time>2017-04-17T14:11:11Z</time>
      </trkpt>
      <trkpt lat="46.24439" lon="2.49047">
        <ele>398</ele>
        <time>2017-04-17T14:11:14Z</time>
      </trkpt>
      <trkpt lat="46.24444" lon="2.49051">
        <ele>398</ele>
        <time>2017-04-17T14:11:18Z</time>
      </trkpt>
      <trkpt lat="46.24448" lon="2.49054">
        <ele>398</ele>
        <time>2017-04-17T14:11:21Z</time>
      </trkpt>
      <trkpt lat="46.24452" lon="2.49058">
        <ele>398</ele>
        <time>2017-04-17T14:11:25Z</time>
      </trkpt>
      <trkpt lat="46.24457" lon="2.49061">
        <ele>399</ele>
        <time>2017-04-17T14:11:29Z</time>
      </trkpt>
      <trkpt lat="46.2446" lon="2.49063">
        <ele>400</ele>
        <time>2017-04-17T14:11:32Z</time>
      </trkpt>
      <trkpt lat="46.24465" lon="2.49066">
        <ele>400</ele>
        <time>2017-04-17T14:11:36Z</time>
      </trkpt>
      <trkpt lat="46.24469" lon="2.49068">
        <ele>400</ele>
        <time>2017-04-17T14:11:40Z</time>
      </trkpt>
      <trkpt lat="46.24473" lon="2.49068">
        <ele>401</ele>
        <time>2017-04-17T14:11:43Z</time>
      </trkpt>
      <trkpt lat="46.24477" lon="2.49066">
        <ele>402</ele>
        <time>2017-04-17T14:11:46Z</time>
      </trkpt>
      <trkpt lat="46.24482" lon="2.49065">
        <ele>402</ele>
        <time>2017-04-17T14:11:49Z</time>
      </trkpt>
      <trkpt lat="46.24485" lon="2.49065">
        <ele>402</ele>
        <time>2017-04-17T14:11:52Z</time>
      </trkpt>
      <trkpt lat="46.2449" lon="2.49062">
        <ele>402</ele>
        <time>2017-04-17T14:11:56Z</time>
      </trkpt>
      <trkpt lat="46.24495" lon="2.49059">
        <ele>402</ele>
        <time>2017-04-17T14:12:00Z</time>
      </trkpt>
      <trkpt lat="46.24498" lon="2.49057">
        <ele>402</ele>
        <time>2017-04-17T14:12:03Z</time>
      </trkpt>
      <trkpt lat="46.24503" lon="2.49056">
        <ele>402</ele>
        <time>2017-04-17T14:12:06Z</time>
      </trkpt>
      <trkpt lat="46.24508" lon="2.49053">
        <ele>402</ele>
        <time>2017-04-17T14:12:10Z</time>
      </trkpt>
      <trkpt lat="46.24512" lon="2.49051">
        <ele>403</ele>
        <time>2017-04-17T14:12:13Z</time>
      </trkpt>
      <trkpt lat="46.24516" lon="2.49049">
        <ele>403</ele>
        <time>2017-04-17T14:12:16Z</time>
      </trkpt>
      <trkpt lat="46.24521" lon="2.49046">
        <ele>404</ele>
        <time>2017-04-17T14:12:20Z</time>
      </trkpt>
      <trkpt lat="46.24525" lon="2.49043">
        <ele>405</ele>
        <time>2017-04-17T14:12:23Z</time>
      </trkpt>
      <trkpt lat="46.24529" lon="2.49042">
        <ele>406</ele>
        <time>2017-04-17T14:12:26Z</time>
      </trkpt>
      <trkpt lat="46.24534" lon="2.4904">
        <ele>406</ele>
        <time>2017-04-17T14:12:30Z</time>
      </trkpt>
      <trkpt lat="46.24538" lon="2.49038">
        <ele>407</ele>
        <time>2017-04-17T14:12:33Z</time>
      </trkpt>
      <trkpt lat="46.24541" lon="2.49035">
        <ele>408</ele>
        <time>2017-04-17T14:12:36Z</time>
      </trkpt>
      <trkpt lat="46.24545" lon="2.49033">
        <ele>408</ele>
        <time>2017-04-17T14:12:39Z</time>
      </trkpt>
      <trkpt lat="46.24549" lon="2.49031">
        <ele>409</ele>
        <time>2017-04-17T14:12:42Z</time>
      </trkpt>
      <trkpt lat="46.24553" lon="2.4903">
        <ele>409</ele>
        <time>2017-04-17T14:12:45Z</time>
      </trkpt>
      <trkpt lat="46.24557" lon="2.49028">
        <ele>409</ele>
        <time>2017-04-17T14:12:48Z</time>
      </trkpt>
      <trkpt lat="46.24561" lon="2.49025">
        <ele>409</ele>
        <time>2017-04-17T14:12:51Z</time>
      </trkpt>
      <trkpt lat="46.24564" lon="2.49023">
        <ele>410</ele>
        <time>2017-04-17T14:12:54Z</time>
      </trkpt>
      <trkpt lat="46.24568" lon="2.49021">
        <ele>410</ele>
        <time>2017-04-17T14:12:57Z</time>
      </trkpt>
      <trkpt lat="46.24572" lon="2.49019">
        <ele>411</ele>
        <time>2017-04-17T14:13:00Z</time>
      </trkpt>
      <trkpt lat="46.24576" lon="2.49017">
        <ele>411</ele>
        <time>2017-04-17T14:13:03Z</time>
      </trkpt>
      <trkpt lat="46.2458" lon="2.49015">
        <ele>411</ele>
        <time>2017-04-17T14:13:06Z</time>
      </trkpt>
      <trkpt lat="46.24583" lon="2.49013">
        <ele>411</ele>
        <time>2017-04-17T14:13:09Z</time>
      </trkpt>
      <trkpt lat="46.24587" lon="2.4901">
        <ele>411</ele>
        <time>2017-04-17T14:13:12Z</time>
      </trkpt>
      <trkpt lat="46.24591" lon="2.49009">
        <ele>412</ele>
        <time>2017-04-17T14:13:15Z</time>
      </trkpt>
      <trkpt lat="46.24595" lon="2.49007">
        <ele>412</ele>
        <time>2017-04-17T14:13:18Z</time>
      </trkpt>
      <trkpt lat="46.24598" lon="2.49005">
        <ele>412</ele>
        <time>2017-04-17T14:13:21Z</time>
      </trkpt>
      <trkpt lat="46.24602" lon="2.49003">
        <ele>412</ele>
        <time>2017-04-17T14:13:24Z</time>
      </trkpt>
      <trkpt lat="46.24606" lon="2.49001">
        <ele>413</ele>
        <time>2017-04-17T14:13:27Z</time>
      </trkpt>
      <trkpt lat="46.2461" lon="2.48999">
        <ele>413</ele>
        <time>2017-04-17T14:13:30Z</time>
      </trkpt>
      <trkpt lat="46.24614" lon="2.48997">
        <ele>413</ele>
        <time>2017-04-17T14:13:33Z</time>
      </trkpt>
      <trkpt lat="46.24617" lon="2.48995">
        <ele>414</ele>
        <time>2017-04-17T14:13:36Z</time>
      </trkpt>
      <trkpt lat="46.24621" lon="2.48994">
        <ele>414</ele>
        <time>2017-04-17T14:13:39Z</time>
      </trkpt>
      <trkpt lat="46.24625" lon="2.48992">
        <ele>414</ele>
        <time>2017-04-17T14:13:42Z</time>
      </trkpt>
      <trkpt lat="46.24629" lon="2.4899">
        <ele>414</ele>
        <time>2017-04-17T14:13:45Z</time>
      </trkpt>
      <trkpt lat="46.24633" lon="2.48989">
        <ele>414</ele>
        <time>2017-04-17T14:13:48Z</time>
      </trkpt>
      <trkpt lat="46.24636" lon="2.48987">
        <ele>414</ele>
        <time>2017-04-17T14:13:51Z</time>
      </trkpt>
      <trkpt lat="46.2464" lon="2.48985">
        <ele>414</ele>
        <time>2017-04-17T14:13:54Z</time>
      </trkpt>
      <trkpt lat="46.24644" lon="2.48983">
        <ele>415</ele>
        <time>2017-04-17T14:13:57Z</time>
      </trkpt>
      <trkpt lat="46.24648" lon="2.48981">
        <ele>415</ele>
        <time>2017-04-17T14:14:00Z</time>
      </trkpt>
      <trkpt lat="46.24651" lon="2.4898">
        <ele>415</ele>
        <time>2017-04-17T14:14:03Z</time>
      </trkpt>
      <trkpt lat="46.24655" lon="2.48977">
        <ele>415</ele>
        <time>2017-04-17T14:14:06Z</time>
      </trkpt>
      <trkpt lat="46.24659" lon="2.48976">
        <ele>416</ele>
        <time>2017-04-17T14:14:09Z</time>
      </trkpt>
      <trkpt lat="46.24663" lon="2.48974">
        <ele>416</ele>
        <time>2017-04-17T14:14:12Z</time>
      </trkpt>
      <trkpt lat="46.24667" lon="2.48972">
        <ele>416</ele>
        <time>2017-04-17T14:14:15Z</time>
      </trkpt>
      <trkpt lat="46.24671" lon="2.4897">
        <ele>416</ele>
        <time>2017-04-17T14:14:18Z</time>
      </trkpt>
      <trkpt lat="46.24674" lon="2.48969">
        <ele>417</ele>
        <time>2017-04-17T14:14:21Z</time>
      </trkpt>
      <trkpt lat="46.24678" lon="2.48966">
        <ele>417</ele>
        <time>2017-04-17T14:14:24Z</time>
      </trkpt>
      <trkpt lat="46.24682" lon="2.48965">
        <ele>417</ele>
        <time>2017-04-17T14:14:27Z</time>
      </trkpt>
      <trkpt lat="46.24686" lon="2.48963">
        <ele>417</ele>
        <time>2017-04-17T14:14:30Z</time>
      </trkpt>
      <trkpt lat="46.2469" lon="2.48961">
        <ele>418</ele>
        <time>2017-04-17T14:14:33Z</time>
      </trkpt>
      <trkpt lat="46.24694" lon="2.4896">
        <ele>418</ele>
        <time>2017-04-17T14:14:36Z</time>
      </trkpt>
      <trkpt lat="46.24697" lon="2.48958">
        <ele>419</ele>
        <time>2017-04-17T14:14:39Z</time>
      </trkpt>
      <trkpt lat="46.24701" lon="2.48958">
        <ele>419</ele>
        <time>2017-04-17T14:14:42Z</time>
      </trkpt>
      <trkpt lat="46.24705" lon="2.48957">
        <ele>419</ele>
        <time>2017-04-17T14:14:45Z</time>
      </trkpt>
      <trkpt lat="46.24709" lon="2.48957">
        <ele>419</ele>
        <time>2017-04-17T14:14:48Z</time>
      </trkpt>
      <trkpt lat="46.24713" lon="2.48956">
        <ele>419</ele>
        <time>2017-04-17T14:14:51Z</time>
      </trkpt>
      <trkpt lat="46.24717" lon="2.48955">
        <ele>419</ele>
        <time>2017-04-17T14:14:54Z</time>
      </trkpt>
      <trkpt lat="46.24722" lon="2.48955">
        <ele>419</ele>
        <time>2017-04-17T14:14:57Z</time>
      </trkpt>
      <trkpt lat="46.24725" lon="2.48956">
        <ele>419</ele>
        <time>2017-04-17T14:15:02Z</time>
      </trkpt>
      <trkpt lat="46.2473" lon="2.48954">
        <ele>419</ele>
        <time>2017-04-17T14:15:06Z</time>
      </trkpt>
      <trkpt lat="46.24733" lon="2.48953">
        <ele>419</ele>
        <time>2017-04-17T14:15:09Z</time>
      </trkpt>
      <trkpt lat="46.24737" lon="2.48952">
        <ele>419</ele>
        <time>2017-04-17T14:15:12Z</time>
      </trkpt>
      <trkpt lat="46.24741" lon="2.48951">
        <ele>419</ele>
        <time>2017-04-17T14:15:15Z</time>
      </trkpt>
      <trkpt lat="46.24745" lon="2.48949">
        <ele>419</ele>
        <time>2017-04-17T14:15:19Z</time>
      </trkpt>
      <trkpt lat="46.24748" lon="2.48948">
        <ele>419</ele>
        <time>2017-04-17T14:15:22Z</time>
      </trkpt>
      <trkpt lat="46.24752" lon="2.48947">
        <ele>419</ele>
        <time>2017-04-17T14:15:25Z</time>
      </trkpt>
      <trkpt lat="46.24755" lon="2.48946">
        <ele>419</ele>
        <time>2017-04-17T14:15:28Z</time>
      </trkpt>
      <trkpt lat="46.24759" lon="2.48945">
        <ele>419</ele>
        <time>2017-04-17T14:15:31Z</time>
      </trkpt>
      <trkpt lat="46.24763" lon="2.48944">
        <ele>419</ele>
        <time>2017-04-17T14:15:34Z</time>
      </trkpt>
      <trkpt lat="46.24766" lon="2.48943">
        <ele>419</ele>
        <time>2017-04-17T14:15:37Z</time>
      </trkpt>
      <trkpt lat="46.2477" lon="2.48942">
        <ele>419</ele>
        <time>2017-04-17T14:15:40Z</time>
      </trkpt>
      <trkpt lat="46.24773" lon="2.48941">
        <ele>419</ele>
        <time>2017-04-17T14:15:43Z</time>
      </trkpt>
      <trkpt lat="46.24776" lon="2.4894">
        <ele>419</ele>
        <time>2017-04-17T14:15:46Z</time>
      </trkpt>
      <trkpt lat="46.24781" lon="2.48938">
        <ele>419</ele>
        <time>2017-04-17T14:15:50Z</time>
      </trkpt>
      <trkpt lat="46.24784" lon="2.48938">
        <ele>419</ele>
        <time>2017-04-17T14:15:53Z</time>
      </trkpt>
      <trkpt lat="46.24788" lon="2.48937">
        <ele>419</ele>
        <time>2017-04-17T14:15:57Z</time>
      </trkpt>
      <trkpt lat="46.24791" lon="2.48936">
        <ele>419</ele>
        <time>2017-04-17T14:16:00Z</time>
      </trkpt>
      <trkpt lat="46.24794" lon="2.48935">
        <ele>419</ele>
        <time>2017-04-17T14:16:03Z</time>
      </trkpt>
      <trkpt lat="46.24798" lon="2.48935">
        <ele>419</ele>
        <time>2017-04-17T14:16:06Z</time>
      </trkpt>
      <trkpt lat="46.24801" lon="2.48933">
        <ele>419</ele>
        <time>2017-04-17T14:16:09Z</time>
      </trkpt>
      <trkpt lat="46.24805" lon="2.48932">
        <ele>419</ele>
        <time>2017-04-17T14:16:13Z</time>
      </trkpt>
      <trkpt lat="46.24808" lon="2.4893">
        <ele>419</ele>
        <time>2017-04-17T14:16:16Z</time>
      </trkpt>
      <trkpt lat="46.24813" lon="2.48928">
        <ele>419</ele>
        <time>2017-04-17T14:16:20Z</time>
      </trkpt>
      <trkpt lat="46.24816" lon="2.48928">
        <ele>419</ele>
        <time>2017-04-17T14:16:23Z</time>
      </trkpt>
      <trkpt lat="46.24821" lon="2.48927">
        <ele>418</ele>
        <time>2017-04-17T14:16:27Z</time>
      </trkpt>
      <trkpt lat="46.24824" lon="2.48925">
        <ele>418</ele>
        <time>2017-04-17T14:16:30Z</time>
      </trkpt>
      <trkpt lat="46.24828" lon="2.48922">
        <ele>418</ele>
        <time>2017-04-17T14:16:33Z</time>
      </trkpt>
      <trkpt lat="46.24831" lon="2.4892">
        <ele>418</ele>
        <time>2017-04-17T14:16:36Z</time>
      </trkpt>
      <trkpt lat="46.24835" lon="2.48919">
        <ele>418</ele>
        <time>2017-04-17T14:16:39Z</time>
      </trkpt>
      <trkpt lat="46.24839" lon="2.48917">
        <ele>418</ele>
        <time>2017-04-17T14:16:42Z</time>
      </trkpt>
      <trkpt lat="46.24842" lon="2.48916">
        <ele>417</ele>
        <time>2017-04-17T14:16:45Z</time>
      </trkpt>
      <trkpt lat="46.24847" lon="2.48914">
        <ele>417</ele>
        <time>2017-04-17T14:16:49Z</time>
      </trkpt>
      <trkpt lat="46.2485" lon="2.48913">
        <ele>417</ele>
        <time>2017-04-17T14:16:52Z</time>
      </trkpt>
      <trkpt lat="46.24854" lon="2.48912">
        <ele>417</ele>
        <time>2017-04-17T14:16:55Z</time>
      </trkpt>
      <trkpt lat="46.24857" lon="2.4891">
        <ele>417</ele>
        <time>2017-04-17T14:16:58Z</time>
      </trkpt>
      <trkpt lat="46.24861" lon="2.48908">
        <ele>417</ele>
        <time>2017-04-17T14:17:01Z</time>
      </trkpt>
      <trkpt lat="46.24863" lon="2.4891">
        <ele>417</ele>
        <time>2017-04-17T14:17:13Z</time>
      </trkpt>
      <trkpt lat="46.24864" lon="2.48911">
        <ele>417</ele>
        <time>2017-04-17T14:17:21Z</time>
      </trkpt>
      <trkpt lat="46.24869" lon="2.4891">
        <ele>417</ele>
        <time>2017-04-17T14:17:25Z</time>
      </trkpt>
      <trkpt lat="46.24873" lon="2.48908">
        <ele>417</ele>
        <time>2017-04-17T14:17:28Z</time>
      </trkpt>
      <trkpt lat="46.24876" lon="2.48907">
        <ele>417</ele>
        <time>2017-04-17T14:17:31Z</time>
      </trkpt>
      <trkpt lat="46.2488" lon="2.48905">
        <ele>416</ele>
        <time>2017-04-17T14:17:34Z</time>
      </trkpt>
      <trkpt lat="46.24884" lon="2.48904">
        <ele>416</ele>
        <time>2017-04-17T14:17:37Z</time>
      </trkpt>
      <trkpt lat="46.24887" lon="2.48902">
        <ele>416</ele>
        <time>2017-04-17T14:17:40Z</time>
      </trkpt>
      <trkpt lat="46.24892" lon="2.489">
        <ele>416</ele>
        <time>2017-04-17T14:17:44Z</time>
      </trkpt>
      <trkpt lat="46.24896" lon="2.489">
        <ele>416</ele>
        <time>2017-04-17T14:17:48Z</time>
      </trkpt>
      <trkpt lat="46.24899" lon="2.48898">
        <ele>416</ele>
        <time>2017-04-17T14:17:52Z</time>
      </trkpt>
      <trkpt lat="46.24902" lon="2.48898">
        <ele>415</ele>
        <time>2017-04-17T14:17:55Z</time>
      </trkpt>
      <trkpt lat="46.24906" lon="2.48898">
        <ele>415</ele>
        <time>2017-04-17T14:17:58Z</time>
      </trkpt>
      <trkpt lat="46.24908" lon="2.48897">
        <ele>415</ele>
        <time>2017-04-17T14:18:01Z</time>
      </trkpt>
      <trkpt lat="46.2491" lon="2.48897">
        <ele>415</ele>
        <time>2017-04-17T14:18:04Z</time>
      </trkpt>
      <trkpt lat="46.2491" lon="2.48896">
        <ele>415</ele>
        <time>2017-04-17T14:18:12Z</time>
      </trkpt>
      <trkpt lat="46.2491" lon="2.48894">
        <ele>415</ele>
        <time>2017-04-17T14:18:18Z</time>
      </trkpt>
      <trkpt lat="46.24909" lon="2.48892">
        <ele>415</ele>
        <time>2017-04-17T14:18:21Z</time>
      </trkpt>
      <trkpt lat="46.24908" lon="2.48891">
        <ele>415</ele>
        <time>2017-04-17T14:18:25Z</time>
      </trkpt>
      <trkpt lat="46.24907" lon="2.48889">
        <ele>415</ele>
        <time>2017-04-17T14:18:29Z</time>
      </trkpt>
      <trkpt lat="46.24909" lon="2.4889">
        <ele>416</ele>
        <time>2017-04-17T14:18:48Z</time>
      </trkpt>
      <trkpt lat="46.24912" lon="2.48892">
        <ele>416</ele>
        <time>2017-04-17T14:18:51Z</time>
      </trkpt>
      <trkpt lat="46.24914" lon="2.48891">
        <ele>416</ele>
        <time>2017-04-17T14:18:54Z</time>
      </trkpt>
      <trkpt lat="46.24918" lon="2.48891">
        <ele>416</ele>
        <time>2017-04-17T14:18:57Z</time>
      </trkpt>
      <trkpt lat="46.24921" lon="2.48891">
        <ele>416</ele>
        <time>2017-04-17T14:19:00Z</time>
      </trkpt>
      <trkpt lat="46.24926" lon="2.48891">
        <ele>416</ele>
        <time>2017-04-17T14:19:03Z</time>
      </trkpt>
      <trkpt lat="46.24929" lon="2.48893">
        <ele>416</ele>
        <time>2017-04-17T14:19:06Z</time>
      </trkpt>
      <trkpt lat="46.24934" lon="2.48894">
        <ele>416</ele>
        <time>2017-04-17T14:19:09Z</time>
      </trkpt>
      <trkpt lat="46.24938" lon="2.48894">
        <ele>416</ele>
        <time>2017-04-17T14:19:12Z</time>
      </trkpt>
      <trkpt lat="46.24943" lon="2.48893">
        <ele>416</ele>
        <time>2017-04-17T14:19:15Z</time>
      </trkpt>
      <trkpt lat="46.24948" lon="2.48894">
        <ele>416</ele>
        <time>2017-04-17T14:19:18Z</time>
      </trkpt>
      <trkpt lat="46.24953" lon="2.48895">
        <ele>415</ele>
        <time>2017-04-17T14:19:22Z</time>
      </trkpt>
      <trkpt lat="46.24957" lon="2.48895">
        <ele>414</ele>
        <time>2017-04-17T14:19:25Z</time>
      </trkpt>
      <trkpt lat="46.2496" lon="2.48893">
        <ele>413</ele>
        <time>2017-04-17T14:19:28Z</time>
      </trkpt>
      <trkpt lat="46.24964" lon="2.48892">
        <ele>412</ele>
        <time>2017-04-17T14:19:31Z</time>
      </trkpt>
      <trkpt lat="46.24968" lon="2.48892">
        <ele>412</ele>
        <time>2017-04-17T14:19:34Z</time>
      </trkpt>
      <trkpt lat="46.24973" lon="2.48891">
        <ele>412</ele>
        <time>2017-04-17T14:19:37Z</time>
      </trkpt>
      <trkpt lat="46.24977" lon="2.48892">
        <ele>412</ele>
        <time>2017-04-17T14:19:41Z</time>
      </trkpt>
      <trkpt lat="46.24982" lon="2.48891">
        <ele>412</ele>
        <time>2017-04-17T14:19:44Z</time>
      </trkpt>
      <trkpt lat="46.24987" lon="2.4889">
        <ele>412</ele>
        <time>2017-04-17T14:19:47Z</time>
      </trkpt>
      <trkpt lat="46.24991" lon="2.4889">
        <ele>410</ele>
        <time>2017-04-17T14:19:51Z</time>
      </trkpt>
      <trkpt lat="46.24994" lon="2.4889">
        <ele>409</ele>
        <time>2017-04-17T14:19:54Z</time>
      </trkpt>
      <trkpt lat="46.24999" lon="2.4889">
        <ele>409</ele>
        <time>2017-04-17T14:19:57Z</time>
      </trkpt>
      <trkpt lat="46.25004" lon="2.4889">
        <ele>408</ele>
        <time>2017-04-17T14:20:00Z</time>
      </trkpt>
      <trkpt lat="46.2501" lon="2.4889">
        <ele>408</ele>
        <time>2017-04-17T14:20:03Z</time>
      </trkpt>
      <trkpt lat="46.25014" lon="2.4889">
        <ele>408</ele>
        <time>2017-04-17T14:20:06Z</time>
      </trkpt>
      <trkpt lat="46.25017" lon="2.48889">
        <ele>408</ele>
        <time>2017-04-17T14:20:10Z</time>
      </trkpt>
      <trkpt lat="46.25024" lon="2.48888">
        <ele>408</ele>
        <time>2017-04-17T14:20:13Z</time>
      </trkpt>
      <trkpt lat="46.25028" lon="2.48887">
        <ele>408</ele>
        <time>2017-04-17T14:20:16Z</time>
      </trkpt>
      <trkpt lat="46.25033" lon="2.48887">
        <ele>408</ele>
        <time>2017-04-17T14:20:19Z</time>
      </trkpt>
      <trkpt lat="46.25037" lon="2.48886">
        <ele>408</ele>
        <time>2017-04-17T14:20:23Z</time>
      </trkpt>
      <trkpt lat="46.25042" lon="2.48887">
        <ele>408</ele>
        <time>2017-04-17T14:20:26Z</time>
      </trkpt>
      <trkpt lat="46.25047" lon="2.48887">
        <ele>408</ele>
        <time>2017-04-17T14:20:29Z</time>
      </trkpt>
      <trkpt lat="46.25051" lon="2.48887">
        <ele>408</ele>
        <time>2017-04-17T14:20:32Z</time>
      </trkpt>
      <trkpt lat="46.25055" lon="2.48887">
        <ele>408</ele>
        <time>2017-04-17T14:20:35Z</time>
      </trkpt>
      <trkpt lat="46.25059" lon="2.48887">
        <ele>408</ele>
        <time>2017-04-17T14:20:38Z</time>
      </trkpt>
      <trkpt lat="46.25062" lon="2.48888">
        <ele>408</ele>
        <time>2017-04-17T14:20:41Z</time>
      </trkpt>
      <trkpt lat="46.25067" lon="2.48888">
        <ele>408</ele>
        <time>2017-04-17T14:20:44Z</time>
      </trkpt>
      <trkpt lat="46.25072" lon="2.48887">
        <ele>408</ele>
        <time>2017-04-17T14:20:47Z</time>
      </trkpt>
      <trkpt lat="46.25076" lon="2.48887">
        <ele>408</ele>
        <time>2017-04-17T14:20:50Z</time>
      </trkpt>
      <trkpt lat="46.2508" lon="2.48887">
        <ele>408</ele>
        <time>2017-04-17T14:20:53Z</time>
      </trkpt>
      <trkpt lat="46.25085" lon="2.48886">
        <ele>408</ele>
        <time>2017-04-17T14:20:56Z</time>
      </trkpt>
      <trkpt lat="46.2509" lon="2.48886">
        <ele>408</ele>
        <time>2017-04-17T14:20:59Z</time>
      </trkpt>
      <trkpt lat="46.25094" lon="2.48886">
        <ele>408</ele>
        <time>2017-04-17T14:21:02Z</time>
      </trkpt>
      <trkpt lat="46.25098" lon="2.48886">
        <ele>408</ele>
        <time>2017-04-17T14:21:05Z</time>
      </trkpt>
      <trkpt lat="46.25102" lon="2.48885">
        <ele>408</ele>
        <time>2017-04-17T14:21:08Z</time>
      </trkpt>
      <trkpt lat="46.25107" lon="2.48885">
        <ele>408</ele>
        <time>2017-04-17T14:21:11Z</time>
      </trkpt>
      <trkpt lat="46.25111" lon="2.48885">
        <ele>408</ele>
        <time>2017-04-17T14:21:14Z</time>
      </trkpt>
      <trkpt lat="46.25116" lon="2.48885">
        <ele>408</ele>
        <time>2017-04-17T14:21:17Z</time>
      </trkpt>
      <trkpt lat="46.25121" lon="2.48882">
        <ele>408</ele>
        <time>2017-04-17T14:21:21Z</time>
      </trkpt>
      <trkpt lat="46.25125" lon="2.48881">
        <ele>408</ele>
        <time>2017-04-17T14:21:24Z</time>
      </trkpt>
      <trkpt lat="46.25129" lon="2.4888">
        <ele>408</ele>
        <time>2017-04-17T14:21:27Z</time>
      </trkpt>
      <trkpt lat="46.25134" lon="2.48879">
        <ele>408</ele>
        <time>2017-04-17T14:21:30Z</time>
      </trkpt>
      <trkpt lat="46.25137" lon="2.48877">
        <ele>408</ele>
        <time>2017-04-17T14:21:33Z</time>
      </trkpt>
      <trkpt lat="46.25142" lon="2.48876">
        <ele>408</ele>
        <time>2017-04-17T14:21:36Z</time>
      </trkpt>
      <trkpt lat="46.25146" lon="2.48875">
        <ele>408</ele>
        <time>2017-04-17T14:21:39Z</time>
      </trkpt>
      <trkpt lat="46.2515" lon="2.48873">
        <ele>408</ele>
        <time>2017-04-17T14:21:42Z</time>
      </trkpt>
      <trkpt lat="46.25155" lon="2.48873">
        <ele>408</ele>
        <time>2017-04-17T14:21:45Z</time>
      </trkpt>
      <trkpt lat="46.25159" lon="2.48872">
        <ele>408</ele>
        <time>2017-04-17T14:21:48Z</time>
      </trkpt>
      <trkpt lat="46.25163" lon="2.48871">
        <ele>408</ele>
        <time>2017-04-17T14:21:51Z</time>
      </trkpt>
      <trkpt lat="46.25168" lon="2.4887">
        <ele>409</ele>
        <time>2017-04-17T14:21:54Z</time>
      </trkpt>
      <trkpt lat="46.25172" lon="2.48869">
        <ele>410</ele>
        <time>2017-04-17T14:21:57Z</time>
      </trkpt>
      <trkpt lat="46.25176" lon="2.48869">
        <ele>410</ele>
        <time>2017-04-17T14:22:00Z</time>
      </trkpt>
      <trkpt lat="46.2518" lon="2.48868">
        <ele>410</ele>
        <time>2017-04-17T14:22:03Z</time>
      </trkpt>
      <trkpt lat="46.25184" lon="2.48867">
        <ele>410</ele>
        <time>2017-04-17T14:22:06Z</time>
      </trkpt>
      <trkpt lat="46.25188" lon="2.48866">
        <ele>410</ele>
        <time>2017-04-17T14:22:09Z</time>
      </trkpt>
      <trkpt lat="46.25192" lon="2.48865">
        <ele>410</ele>
        <time>2017-04-17T14:22:12Z</time>
      </trkpt>
      <trkpt lat="46.25196" lon="2.48863">
        <ele>410</ele>
        <time>2017-04-17T14:22:15Z</time>
      </trkpt>
      <trkpt lat="46.25201" lon="2.48862">
        <ele>410</ele>
        <time>2017-04-17T14:22:18Z</time>
      </trkpt>
      <trkpt lat="46.25205" lon="2.48861">
        <ele>411</ele>
        <time>2017-04-17T14:22:21Z</time>
      </trkpt>
      <trkpt lat="46.25209" lon="2.48859">
        <ele>412</ele>
        <time>2017-04-17T14:22:24Z</time>
      </trkpt>
      <trkpt lat="46.25213" lon="2.48858">
        <ele>412</ele>
        <time>2017-04-17T14:22:27Z</time>
      </trkpt>
      <trkpt lat="46.25218" lon="2.48856">
        <ele>412</ele>
        <time>2017-04-17T14:22:30Z</time>
      </trkpt>
      <trkpt lat="46.25222" lon="2.48855">
        <ele>412</ele>
        <time>2017-04-17T14:22:33Z</time>
      </trkpt>
      <trkpt lat="46.25227" lon="2.48854">
        <ele>413</ele>
        <time>2017-04-17T14:22:36Z</time>
      </trkpt>
      <trkpt lat="46.25231" lon="2.48852">
        <ele>414</ele>
        <time>2017-04-17T14:22:39Z</time>
      </trkpt>
      <trkpt lat="46.25235" lon="2.48851">
        <ele>414</ele>
        <time>2017-04-17T14:22:42Z</time>
      </trkpt>
      <trkpt lat="46.25239" lon="2.4885">
        <ele>414</ele>
        <time>2017-04-17T14:22:45Z</time>
      </trkpt>
      <trkpt lat="46.25243" lon="2.4885">
        <ele>414</ele>
        <time>2017-04-17T14:22:48Z</time>
      </trkpt>
      <trkpt lat="46.25248" lon="2.48849">
        <ele>414</ele>
        <time>2017-04-17T14:22:51Z</time>
      </trkpt>
      <trkpt lat="46.25252" lon="2.48847">
        <ele>414</ele>
        <time>2017-04-17T14:22:54Z</time>
      </trkpt>
      <trkpt lat="46.25256" lon="2.48846">
        <ele>414</ele>
        <time>2017-04-17T14:22:57Z</time>
      </trkpt>
      <trkpt lat="46.2526" lon="2.48844">
        <ele>414</ele>
        <time>2017-04-17T14:23:00Z</time>
      </trkpt>
      <trkpt lat="46.25264" lon="2.48844">
        <ele>414</ele>
        <time>2017-04-17T14:23:03Z</time>
      </trkpt>
      <trkpt lat="46.25268" lon="2.48841">
        <ele>414</ele>
        <time>2017-04-17T14:23:06Z</time>
      </trkpt>
      <trkpt lat="46.25272" lon="2.4884">
        <ele>414</ele>
        <time>2017-04-17T14:23:09Z</time>
      </trkpt>
      <trkpt lat="46.25276" lon="2.48839">
        <ele>414</ele>
        <time>2017-04-17T14:23:12Z</time>
      </trkpt>
      <trkpt lat="46.2528" lon="2.48837">
        <ele>414</ele>
        <time>2017-04-17T14:23:15Z</time>
      </trkpt>
      <trkpt lat="46.25283" lon="2.48835">
        <ele>414</ele>
        <time>2017-04-17T14:23:18Z</time>
      </trkpt>
      <trkpt lat="46.25287" lon="2.48834">
        <ele>414</ele>
        <time>2017-04-17T14:23:21Z</time>
      </trkpt>
      <trkpt lat="46.25291" lon="2.48834">
        <ele>414</ele>
        <time>2017-04-17T14:23:24Z</time>
      </trkpt>
      <trkpt lat="46.25294" lon="2.48832">
        <ele>414</ele>
        <time>2017-04-17T14:23:27Z</time>
      </trkpt>
      <trkpt lat="46.25297" lon="2.48827">
        <ele>414</ele>
        <time>2017-04-17T14:23:31Z</time>
      </trkpt>
      <trkpt lat="46.25297" lon="2.48822">
        <ele>414</ele>
        <time>2017-04-17T14:23:34Z</time>
      </trkpt>
      <trkpt lat="46.25296" lon="2.48817">
        <ele>414</ele>
        <time>2017-04-17T14:23:37Z</time>
      </trkpt>
      <trkpt lat="46.25294" lon="2.48812">
        <ele>414</ele>
        <time>2017-04-17T14:23:41Z</time>
      </trkpt>
      <trkpt lat="46.25295" lon="2.48814">
        <ele>414</ele>
        <time>2017-04-17T14:23:46Z</time>
      </trkpt>
      <trkpt lat="46.25295" lon="2.48816">
        <ele>414</ele>
        <time>2017-04-17T14:23:59Z</time>
      </trkpt>
      <trkpt lat="46.25295" lon="2.48818">
        <ele>414</ele>
        <time>2017-04-17T14:24:03Z</time>
      </trkpt>
      <trkpt lat="46.25296" lon="2.48819">
        <ele>414</ele>
        <time>2017-04-17T14:24:10Z</time>
      </trkpt>
      <trkpt lat="46.25295" lon="2.48818">
        <ele>414</ele>
        <time>2017-04-17T14:24:16Z</time>
      </trkpt>
      <trkpt lat="46.25295" lon="2.48814">
        <ele>414</ele>
        <time>2017-04-17T14:24:19Z</time>
      </trkpt>
      <trkpt lat="46.25294" lon="2.48809">
        <ele>414</ele>
        <time>2017-04-17T14:24:22Z</time>
      </trkpt>
      <trkpt lat="46.25293" lon="2.48803">
        <ele>414</ele>
        <time>2017-04-17T14:24:26Z</time>
      </trkpt>
      <trkpt lat="46.25293" lon="2.48798">
        <ele>414</ele>
        <time>2017-04-17T14:24:30Z</time>
      </trkpt>
      <trkpt lat="46.25294" lon="2.48796">
        <ele>414</ele>
        <time>2017-04-17T14:24:35Z</time>
      </trkpt>
      <trkpt lat="46.25295" lon="2.48795">
        <ele>414</ele>
        <time>2017-04-17T14:24:41Z</time>
      </trkpt>
      <trkpt lat="46.25294" lon="2.48793">
        <ele>414</ele>
        <time>2017-04-17T14:24:51Z</time>
      </trkpt>
      <trkpt lat="46.25292" lon="2.48791">
        <ele>414</ele>
        <time>2017-04-17T14:24:54Z</time>
      </trkpt>
      <trkpt lat="46.25291" lon="2.48787">
        <ele>414</ele>
        <time>2017-04-17T14:25:00Z</time>
      </trkpt>
      <trkpt lat="46.25289" lon="2.48781">
        <ele>414</ele>
        <time>2017-04-17T14:25:04Z</time>
      </trkpt>
      <trkpt lat="46.25288" lon="2.48777">
        <ele>414</ele>
        <time>2017-04-17T14:25:07Z</time>
      </trkpt>
      <trkpt lat="46.25286" lon="2.4877">
        <ele>414</ele>
        <time>2017-04-17T14:25:10Z</time>
      </trkpt>
      <trkpt lat="46.25285" lon="2.48765">
        <ele>414</ele>
        <time>2017-04-17T14:25:13Z</time>
      </trkpt>
      <trkpt lat="46.25283" lon="2.48759">
        <ele>414</ele>
        <time>2017-04-17T14:25:16Z</time>
      </trkpt>
      <trkpt lat="46.25282" lon="2.48757">
        <ele>414</ele>
        <time>2017-04-17T14:25:19Z</time>
      </trkpt>
      <trkpt lat="46.25282" lon="2.48755">
        <ele>411</ele>
        <time>2017-04-17T14:25:47Z</time>
      </trkpt>
      <trkpt lat="46.25281" lon="2.48753">
        <ele>411</ele>
        <time>2017-04-17T14:25:50Z</time>
      </trkpt>
      <trkpt lat="46.2528" lon="2.48749">
        <ele>411</ele>
        <time>2017-04-17T14:25:53Z</time>
      </trkpt>
      <trkpt lat="46.25279" lon="2.48745">
        <ele>411</ele>
        <time>2017-04-17T14:25:56Z</time>
      </trkpt>
      <trkpt lat="46.25278" lon="2.4874">
        <ele>411</ele>
        <time>2017-04-17T14:25:59Z</time>
      </trkpt>
      <trkpt lat="46.25277" lon="2.48735">
        <ele>411</ele>
        <time>2017-04-17T14:26:02Z</time>
      </trkpt>
      <trkpt lat="46.25276" lon="2.48729">
        <ele>411</ele>
        <time>2017-04-17T14:26:05Z</time>
      </trkpt>
      <trkpt lat="46.25275" lon="2.48724">
        <ele>411</ele>
        <time>2017-04-17T14:26:08Z</time>
      </trkpt>
      <trkpt lat="46.25274" lon="2.48718">
        <ele>411</ele>
        <time>2017-04-17T14:26:11Z</time>
      </trkpt>
      <trkpt lat="46.25272" lon="2.48712">
        <ele>411</ele>
        <time>2017-04-17T14:26:14Z</time>
      </trkpt>
      <trkpt lat="46.25271" lon="2.48706">
        <ele>411</ele>
        <time>2017-04-17T14:26:17Z</time>
      </trkpt>
      <trkpt lat="46.2527" lon="2.487">
        <ele>411</ele>
        <time>2017-04-17T14:26:20Z</time>
      </trkpt>
      <trkpt lat="46.25269" lon="2.48694">
        <ele>411</ele>
        <time>2017-04-17T14:26:23Z</time>
      </trkpt>
      <trkpt lat="46.25268" lon="2.48688">
        <ele>411</ele>
        <time>2017-04-17T14:26:26Z</time>
      </trkpt>
      <trkpt lat="46.25267" lon="2.48681">
        <ele>411</ele>
        <time>2017-04-17T14:26:29Z</time>
      </trkpt>
      <trkpt lat="46.25265" lon="2.48675">
        <ele>410</ele>
        <time>2017-04-17T14:26:32Z</time>
      </trkpt>
      <trkpt lat="46.25264" lon="2.48669">
        <ele>409</ele>
        <time>2017-04-17T14:26:35Z</time>
      </trkpt>
      <trkpt lat="46.25263" lon="2.48664">
        <ele>409</ele>
        <time>2017-04-17T14:26:38Z</time>
      </trkpt>
      <trkpt lat="46.25261" lon="2.48658">
        <ele>408</ele>
        <time>2017-04-17T14:26:41Z</time>
      </trkpt>
      <trkpt lat="46.2526" lon="2.48652">
        <ele>407</ele>
        <time>2017-04-17T14:26:44Z</time>
      </trkpt>
      <trkpt lat="46.25259" lon="2.48646">
        <ele>406</ele>
        <time>2017-04-17T14:26:47Z</time>
      </trkpt>
      <trkpt lat="46.25257" lon="2.48639">
        <ele>405</ele>
        <time>2017-04-17T14:26:50Z</time>
      </trkpt>
      <trkpt lat="46.25256" lon="2.48633">
        <ele>404</ele>
        <time>2017-04-17T14:26:53Z</time>
      </trkpt>
      <trkpt lat="46.25255" lon="2.48628">
        <ele>402</ele>
        <time>2017-04-17T14:26:56Z</time>
      </trkpt>
      <trkpt lat="46.25254" lon="2.48622">
        <ele>401</ele>
        <time>2017-04-17T14:26:59Z</time>
      </trkpt>
      <trkpt lat="46.25252" lon="2.48617">
        <ele>401</ele>
        <time>2017-04-17T14:27:02Z</time>
      </trkpt>
      <trkpt lat="46.25252" lon="2.48612">
        <ele>401</ele>
        <time>2017-04-17T14:27:05Z</time>
      </trkpt>
      <trkpt lat="46.2525" lon="2.48605">
        <ele>401</ele>
        <time>2017-04-17T14:27:08Z</time>
      </trkpt>
      <trkpt lat="46.25249" lon="2.486">
        <ele>401</ele>
        <time>2017-04-17T14:27:11Z</time>
      </trkpt>
      <trkpt lat="46.25248" lon="2.48594">
        <ele>401</ele>
        <time>2017-04-17T14:27:14Z</time>
      </trkpt>
      <trkpt lat="46.25246" lon="2.48588">
        <ele>401</ele>
        <time>2017-04-17T14:27:17Z</time>
      </trkpt>
      <trkpt lat="46.25245" lon="2.48583">
        <ele>401</ele>
        <time>2017-04-17T14:27:20Z</time>
      </trkpt>
      <trkpt lat="46.25243" lon="2.48577">
        <ele>401</ele>
        <time>2017-04-17T14:27:23Z</time>
      </trkpt>
      <trkpt lat="46.25241" lon="2.48572">
        <ele>401</ele>
        <time>2017-04-17T14:27:26Z</time>
      </trkpt>
      <trkpt lat="46.25239" lon="2.48567">
        <ele>401</ele>
        <time>2017-04-17T14:27:29Z</time>
      </trkpt>
      <trkpt lat="46.25237" lon="2.48561">
        <ele>401</ele>
        <time>2017-04-17T14:27:32Z</time>
      </trkpt>
      <trkpt lat="46.25236" lon="2.48556">
        <ele>401</ele>
        <time>2017-04-17T14:27:35Z</time>
      </trkpt>
      <trkpt lat="46.25233" lon="2.48551">
        <ele>401</ele>
        <time>2017-04-17T14:27:38Z</time>
      </trkpt>
      <trkpt lat="46.25231" lon="2.48546">
        <ele>401</ele>
        <time>2017-04-17T14:27:41Z</time>
      </trkpt>
      <trkpt lat="46.25229" lon="2.48541">
        <ele>401</ele>
        <time>2017-04-17T14:27:44Z</time>
      </trkpt>
      <trkpt lat="46.25227" lon="2.48536">
        <ele>401</ele>
        <time>2017-04-17T14:27:47Z</time>
      </trkpt>
      <trkpt lat="46.25225" lon="2.48531">
        <ele>401</ele>
        <time>2017-04-17T14:27:50Z</time>
      </trkpt>
      <trkpt lat="46.25222" lon="2.48526">
        <ele>401</ele>
        <time>2017-04-17T14:27:53Z</time>
      </trkpt>
      <trkpt lat="46.25221" lon="2.48521">
        <ele>401</ele>
        <time>2017-04-17T14:27:56Z</time>
      </trkpt>
      <trkpt lat="46.25219" lon="2.48516">
        <ele>401</ele>
        <time>2017-04-17T14:27:59Z</time>
      </trkpt>
      <trkpt lat="46.25218" lon="2.4851">
        <ele>401</ele>
        <time>2017-04-17T14:28:02Z</time>
      </trkpt>
      <trkpt lat="46.25216" lon="2.48504">
        <ele>401</ele>
        <time>2017-04-17T14:28:05Z</time>
      </trkpt>
      <trkpt lat="46.25215" lon="2.48499">
        <ele>401</ele>
        <time>2017-04-17T14:28:08Z</time>
      </trkpt>
      <trkpt lat="46.25214" lon="2.48494">
        <ele>401</ele>
        <time>2017-04-17T14:28:11Z</time>
      </trkpt>
      <trkpt lat="46.25213" lon="2.48488">
        <ele>401</ele>
        <time>2017-04-17T14:28:14Z</time>
      </trkpt>
      <trkpt lat="46.25212" lon="2.48482">
        <ele>399</ele>
        <time>2017-04-17T14:28:17Z</time>
      </trkpt>
      <trkpt lat="46.2521" lon="2.48476">
        <ele>399</ele>
        <time>2017-04-17T14:28:20Z</time>
      </trkpt>
      <trkpt lat="46.25209" lon="2.48469">
        <ele>399</ele>
        <time>2017-04-17T14:28:23Z</time>
      </trkpt>
      <trkpt lat="46.25207" lon="2.48464">
        <ele>399</ele>
        <time>2017-04-17T14:28:26Z</time>
      </trkpt>
      <trkpt lat="46.25206" lon="2.48458">
        <ele>398</ele>
        <time>2017-04-17T14:28:29Z</time>
      </trkpt>
      <trkpt lat="46.25205" lon="2.48452">
        <ele>398</ele>
        <time>2017-04-17T14:28:32Z</time>
      </trkpt>
      <trkpt lat="46.25203" lon="2.48446">
        <ele>398</ele>
        <time>2017-04-17T14:28:35Z</time>
      </trkpt>
      <trkpt lat="46.25202" lon="2.4844">
        <ele>398</ele>
        <time>2017-04-17T14:28:38Z</time>
      </trkpt>
      <trkpt lat="46.25201" lon="2.48434">
        <ele>398</ele>
        <time>2017-04-17T14:28:41Z</time>
      </trkpt>
      <trkpt lat="46.25201" lon="2.48429">
        <ele>399</ele>
        <time>2017-04-17T14:28:44Z</time>
      </trkpt>
      <trkpt lat="46.25201" lon="2.48423">
        <ele>401</ele>
        <time>2017-04-17T14:28:47Z</time>
      </trkpt>
      <trkpt lat="46.25201" lon="2.48416">
        <ele>402</ele>
        <time>2017-04-17T14:28:50Z</time>
      </trkpt>
      <trkpt lat="46.25201" lon="2.4841">
        <ele>402</ele>
        <time>2017-04-17T14:28:53Z</time>
      </trkpt>
      <trkpt lat="46.25201" lon="2.48403">
        <ele>403</ele>
        <time>2017-04-17T14:28:56Z</time>
      </trkpt>
      <trkpt lat="46.25201" lon="2.48397">
        <ele>403</ele>
        <time>2017-04-17T14:28:59Z</time>
      </trkpt>
      <trkpt lat="46.25201" lon="2.48391">
        <ele>403</ele>
        <time>2017-04-17T14:29:02Z</time>
      </trkpt>
      <trkpt lat="46.25201" lon="2.48385">
        <ele>403</ele>
        <time>2017-04-17T14:29:05Z</time>
      </trkpt>
      <trkpt lat="46.25201" lon="2.48379">
        <ele>403</ele>
        <time>2017-04-17T14:29:08Z</time>
      </trkpt>
      <trkpt lat="46.25201" lon="2.48373">
        <ele>403</ele>
        <time>2017-04-17T14:29:11Z</time>
      </trkpt>
      <trkpt lat="46.25201" lon="2.48366">
        <ele>403</ele>
        <time>2017-04-17T14:29:14Z</time>
      </trkpt>
      <trkpt lat="46.25201" lon="2.4836">
        <ele>403</ele>
        <time>2017-04-17T14:29:17Z</time>
      </trkpt>
      <trkpt lat="46.252" lon="2.48354">
        <ele>403</ele>
        <time>2017-04-17T14:29:20Z</time>
      </trkpt>
      <trkpt lat="46.252" lon="2.48348">
        <ele>403</ele>
        <time>2017-04-17T14:29:23Z</time>
      </trkpt>
      <trkpt lat="46.25199" lon="2.48341">
        <ele>403</ele>
        <time>2017-04-17T14:29:26Z</time>
      </trkpt>
      <trkpt lat="46.25198" lon="2.48336">
        <ele>403</ele>
        <time>2017-04-17T14:29:29Z</time>
      </trkpt>
      <trkpt lat="46.25198" lon="2.4833">
        <ele>403</ele>
        <time>2017-04-17T14:29:32Z</time>
      </trkpt>
      <trkpt lat="46.25197" lon="2.48323">
        <ele>403</ele>
        <time>2017-04-17T14:29:35Z</time>
      </trkpt>
      <trkpt lat="46.25197" lon="2.48317">
        <ele>403</ele>
        <time>2017-04-17T14:29:38Z</time>
      </trkpt>
      <trkpt lat="46.25197" lon="2.48311">
        <ele>403</ele>
        <time>2017-04-17T14:29:41Z</time>
      </trkpt>
      <trkpt lat="46.25196" lon="2.48305">
        <ele>403</ele>
        <time>2017-04-17T14:29:44Z</time>
      </trkpt>
      <trkpt lat="46.25196" lon="2.48299">
        <ele>403</ele>
        <time>2017-04-17T14:29:47Z</time>
      </trkpt>
      <trkpt lat="46.25195" lon="2.48293">
        <ele>403</ele>
        <time>2017-04-17T14:29:50Z</time>
      </trkpt>
      <trkpt lat="46.25195" lon="2.48287">
        <ele>403</ele>
        <time>2017-04-17T14:29:53Z</time>
      </trkpt>
      <trkpt lat="46.25196" lon="2.48281">
        <ele>403</ele>
        <time>2017-04-17T14:29:56Z</time>
      </trkpt>
      <trkpt lat="46.25195" lon="2.48274">
        <ele>405</ele>
        <time>2017-04-17T14:29:59Z</time>
      </trkpt>
      <trkpt lat="46.25195" lon="2.48268">
        <ele>405</ele>
        <time>2017-04-17T14:30:02Z</time>
      </trkpt>
      <trkpt lat="46.25194" lon="2.48261">
        <ele>405</ele>
        <time>2017-04-17T14:30:05Z</time>
      </trkpt>
      <trkpt lat="46.25194" lon="2.48255">
        <ele>405</ele>
        <time>2017-04-17T14:30:08Z</time>
      </trkpt>
      <trkpt lat="46.25194" lon="2.48249">
        <ele>405</ele>
        <time>2017-04-17T14:30:11Z</time>
      </trkpt>
      <trkpt lat="46.25194" lon="2.48243">
        <ele>405</ele>
        <time>2017-04-17T14:30:14Z</time>
      </trkpt>
      <trkpt lat="46.25194" lon="2.48237">
        <ele>405</ele>
        <time>2017-04-17T14:30:17Z</time>
      </trkpt>
      <trkpt lat="46.25194" lon="2.48231">
        <ele>405</ele>
        <time>2017-04-17T14:30:20Z</time>
      </trkpt>
      <trkpt lat="46.25193" lon="2.48225">
        <ele>405</ele>
        <time>2017-04-17T14:30:23Z</time>
      </trkpt>
      <trkpt lat="46.25194" lon="2.48219">
        <ele>405</ele>
        <time>2017-04-17T14:30:26Z</time>
      </trkpt>
      <trkpt lat="46.25194" lon="2.48213">
        <ele>405</ele>
        <time>2017-04-17T14:30:29Z</time>
      </trkpt>
      <trkpt lat="46.25195" lon="2.48207">
        <ele>405</ele>
        <time>2017-04-17T14:30:32Z</time>
      </trkpt>
      <trkpt lat="46.25195" lon="2.482">
        <ele>405</ele>
        <time>2017-04-17T14:30:35Z</time>
      </trkpt>
      <trkpt lat="46.25195" lon="2.48194">
        <ele>405</ele>
        <time>2017-04-17T14:30:38Z</time>
      </trkpt>
      <trkpt lat="46.25196" lon="2.48188">
        <ele>405</ele>
        <time>2017-04-17T14:30:41Z</time>
      </trkpt>
      <trkpt lat="46.25197" lon="2.48182">
        <ele>405</ele>
        <time>2017-04-17T14:30:44Z</time>
      </trkpt>
      <trkpt lat="46.25198" lon="2.48176">
        <ele>405</ele>
        <time>2017-04-17T14:30:47Z</time>
      </trkpt>
      <trkpt lat="46.25199" lon="2.4817">
        <ele>405</ele>
        <time>2017-04-17T14:30:50Z</time>
      </trkpt>
      <trkpt lat="46.252" lon="2.48164">
        <ele>405</ele>
        <time>2017-04-17T14:30:53Z</time>
      </trkpt>
      <trkpt lat="46.25201" lon="2.48158">
        <ele>405</ele>
        <time>2017-04-17T14:30:56Z</time>
      </trkpt>
      <trkpt lat="46.25202" lon="2.48152">
        <ele>405</ele>
        <time>2017-04-17T14:30:59Z</time>
      </trkpt>
      <trkpt lat="46.25204" lon="2.48148">
        <ele>406</ele>
        <time>2017-04-17T14:31:02Z</time>
      </trkpt>
      <trkpt lat="46.25204" lon="2.48142">
        <ele>406</ele>
        <time>2017-04-17T14:31:05Z</time>
      </trkpt>
      <trkpt lat="46.25205" lon="2.48136">
        <ele>406</ele>
        <time>2017-04-17T14:31:08Z</time>
      </trkpt>
      <trkpt lat="46.25206" lon="2.4813">
        <ele>406</ele>
        <time>2017-04-17T14:31:11Z</time>
      </trkpt>
      <trkpt lat="46.25207" lon="2.48124">
        <ele>406</ele>
        <time>2017-04-17T14:31:14Z</time>
      </trkpt>
      <trkpt lat="46.25208" lon="2.48119">
        <ele>406</ele>
        <time>2017-04-17T14:31:17Z</time>
      </trkpt>
      <trkpt lat="46.2521" lon="2.48113">
        <ele>406</ele>
        <time>2017-04-17T14:31:20Z</time>
      </trkpt>
      <trkpt lat="46.25211" lon="2.48108">
        <ele>406</ele>
        <time>2017-04-17T14:31:23Z</time>
      </trkpt>
      <trkpt lat="46.25213" lon="2.48103">
        <ele>406</ele>
        <time>2017-04-17T14:31:26Z</time>
      </trkpt>
      <trkpt lat="46.25215" lon="2.48096">
        <ele>406</ele>
        <time>2017-04-17T14:31:29Z</time>
      </trkpt>
      <trkpt lat="46.25216" lon="2.48091">
        <ele>407</ele>
        <time>2017-04-17T14:31:32Z</time>
      </trkpt>
      <trkpt lat="46.25217" lon="2.48085">
        <ele>407</ele>
        <time>2017-04-17T14:31:35Z</time>
      </trkpt>
      <trkpt lat="46.25217" lon="2.48079">
        <ele>407</ele>
        <time>2017-04-17T14:31:38Z</time>
      </trkpt>
      <trkpt lat="46.25219" lon="2.48074">
        <ele>407</ele>
        <time>2017-04-17T14:31:41Z</time>
      </trkpt>
      <trkpt lat="46.25219" lon="2.48068">
        <ele>407</ele>
        <time>2017-04-17T14:31:44Z</time>
      </trkpt>
      <trkpt lat="46.2522" lon="2.48062">
        <ele>407</ele>
        <time>2017-04-17T14:31:47Z</time>
      </trkpt>
      <trkpt lat="46.25221" lon="2.48058">
        <ele>407</ele>
        <time>2017-04-17T14:31:50Z</time>
      </trkpt>
      <trkpt lat="46.2522" lon="2.48056">
        <ele>407</ele>
        <time>2017-04-17T14:32:09Z</time>
      </trkpt>
      <trkpt lat="46.25222" lon="2.48057">
        <ele>407</ele>
        <time>2017-04-17T14:32:19Z</time>
      </trkpt>
      <trkpt lat="46.25223" lon="2.48059">
        <ele>407</ele>
        <time>2017-04-17T14:32:29Z</time>
      </trkpt>
      <trkpt lat="46.25224" lon="2.48057">
        <ele>407</ele>
        <time>2017-04-17T14:32:51Z</time>
      </trkpt>
      <trkpt lat="46.25223" lon="2.48059">
        <ele>407</ele>
        <time>2017-04-17T14:33:39Z</time>
      </trkpt>
      <trkpt lat="46.25222" lon="2.4806">
        <ele>407</ele>
        <time>2017-04-17T14:33:42Z</time>
      </trkpt>
      <trkpt lat="46.25222" lon="2.48062">
        <ele>410</ele>
        <time>2017-04-17T14:33:45Z</time>
      </trkpt>
      <trkpt lat="46.25221" lon="2.48063">
        <ele>413</ele>
        <time>2017-04-17T14:33:49Z</time>
      </trkpt>
      <trkpt lat="46.2522" lon="2.48065">
        <ele>415</ele>
        <time>2017-04-17T14:33:52Z</time>
      </trkpt>
      <trkpt lat="46.25219" lon="2.48066">
        <ele>417</ele>
        <time>2017-04-17T14:33:58Z</time>
      </trkpt>
      <trkpt lat="46.2522" lon="2.48064">
        <ele>425</ele>
        <time>2017-04-17T14:34:36Z</time>
      </trkpt>
      <trkpt lat="46.25222" lon="2.48062">
        <ele>425</ele>
        <time>2017-04-17T14:34:41Z</time>
      </trkpt>
      <trkpt lat="46.25223" lon="2.48057">
        <ele>425</ele>
        <time>2017-04-17T14:34:44Z</time>
      </trkpt>
      <trkpt lat="46.25222" lon="2.48053">
        <ele>422</ele>
        <time>2017-04-17T14:34:48Z</time>
      </trkpt>
      <trkpt lat="46.25222" lon="2.48049">
        <ele>421</ele>
        <time>2017-04-17T14:34:51Z</time>
      </trkpt>
      <trkpt lat="46.25223" lon="2.48044">
        <ele>420</ele>
        <time>2017-04-17T14:34:54Z</time>
      </trkpt>
      <trkpt lat="46.25224" lon="2.48039">
        <ele>417</ele>
        <time>2017-04-17T14:34:57Z</time>
      </trkpt>
      <trkpt lat="46.25225" lon="2.48034">
        <ele>416</ele>
        <time>2017-04-17T14:35:00Z</time>
      </trkpt>
      <trkpt lat="46.25225" lon="2.48028">
        <ele>416</ele>
        <time>2017-04-17T14:35:03Z</time>
      </trkpt>
      <trkpt lat="46.25224" lon="2.48022">
        <ele>415</ele>
        <time>2017-04-17T14:35:06Z</time>
      </trkpt>
      <trkpt lat="46.25223" lon="2.48016">
        <ele>414</ele>
        <time>2017-04-17T14:35:09Z</time>
      </trkpt>
      <trkpt lat="46.25224" lon="2.4801">
        <ele>412</ele>
        <time>2017-04-17T14:35:12Z</time>
      </trkpt>
      <trkpt lat="46.25224" lon="2.48004">
        <ele>412</ele>
        <time>2017-04-17T14:35:15Z</time>
      </trkpt>
      <trkpt lat="46.25224" lon="2.47998">
        <ele>412</ele>
        <time>2017-04-17T14:35:18Z</time>
      </trkpt>
      <trkpt lat="46.25223" lon="2.47992">
        <ele>412</ele>
        <time>2017-04-17T14:35:21Z</time>
      </trkpt>
      <trkpt lat="46.25223" lon="2.47986">
        <ele>412</ele>
        <time>2017-04-17T14:35:24Z</time>
      </trkpt>
      <trkpt lat="46.25223" lon="2.4798">
        <ele>412</ele>
        <time>2017-04-17T14:35:27Z</time>
      </trkpt>
      <trkpt lat="46.25223" lon="2.47975">
        <ele>411</ele>
        <time>2017-04-17T14:35:30Z</time>
      </trkpt>
      <trkpt lat="46.25224" lon="2.47969">
        <ele>411</ele>
        <time>2017-04-17T14:35:33Z</time>
      </trkpt>
      <trkpt lat="46.25224" lon="2.47963">
        <ele>411</ele>
        <time>2017-04-17T14:35:36Z</time>
      </trkpt>
      <trkpt lat="46.25224" lon="2.47957">
        <ele>411</ele>
        <time>2017-04-17T14:35:39Z</time>
      </trkpt>
      <trkpt lat="46.25224" lon="2.47952">
        <ele>411</ele>
        <time>2017-04-17T14:35:42Z</time>
      </trkpt>
      <trkpt lat="46.25224" lon="2.47946">
        <ele>411</ele>
        <time>2017-04-17T14:35:45Z</time>
      </trkpt>
      <trkpt lat="46.25224" lon="2.47939">
        <ele>411</ele>
        <time>2017-04-17T14:35:48Z</time>
      </trkpt>
      <trkpt lat="46.25224" lon="2.47933">
        <ele>410</ele>
        <time>2017-04-17T14:35:51Z</time>
      </trkpt>
      <trkpt lat="46.25223" lon="2.47926">
        <ele>410</ele>
        <time>2017-04-17T14:35:54Z</time>
      </trkpt>
      <trkpt lat="46.25223" lon="2.4792">
        <ele>410</ele>
        <time>2017-04-17T14:35:57Z</time>
      </trkpt>
      <trkpt lat="46.25222" lon="2.47914">
        <ele>410</ele>
        <time>2017-04-17T14:36:00Z</time>
      </trkpt>
      <trkpt lat="46.25221" lon="2.47907">
        <ele>410</ele>
        <time>2017-04-17T14:36:03Z</time>
      </trkpt>
      <trkpt lat="46.25221" lon="2.479">
        <ele>410</ele>
        <time>2017-04-17T14:36:06Z</time>
      </trkpt>
      <trkpt lat="46.2522" lon="2.47894">
        <ele>410</ele>
        <time>2017-04-17T14:36:09Z</time>
      </trkpt>
      <trkpt lat="46.2522" lon="2.47888">
        <ele>410</ele>
        <time>2017-04-17T14:36:12Z</time>
      </trkpt>
      <trkpt lat="46.2522" lon="2.47882">
        <ele>410</ele>
        <time>2017-04-17T14:36:15Z</time>
      </trkpt>
      <trkpt lat="46.2522" lon="2.47876">
        <ele>410</ele>
        <time>2017-04-17T14:36:18Z</time>
      </trkpt>
      <trkpt lat="46.2522" lon="2.47869">
        <ele>410</ele>
        <time>2017-04-17T14:36:21Z</time>
      </trkpt>
      <trkpt lat="46.25219" lon="2.47863">
        <ele>410</ele>
        <time>2017-04-17T14:36:24Z</time>
      </trkpt>
      <trkpt lat="46.25219" lon="2.47857">
        <ele>410</ele>
        <time>2017-04-17T14:36:27Z</time>
      </trkpt>
      <trkpt lat="46.25219" lon="2.47852">
        <ele>410</ele>
        <time>2017-04-17T14:36:30Z</time>
      </trkpt>
      <trkpt lat="46.25219" lon="2.47849">
        <ele>411</ele>
        <time>2017-04-17T14:36:54Z</time>
      </trkpt>
      <trkpt lat="46.25219" lon="2.47845">
        <ele>412</ele>
        <time>2017-04-17T14:36:57Z</time>
      </trkpt>
      <trkpt lat="46.25219" lon="2.4784">
        <ele>413</ele>
        <time>2017-04-17T14:37:00Z</time>
      </trkpt>
      <trkpt lat="46.25218" lon="2.47835">
        <ele>413</ele>
        <time>2017-04-17T14:37:03Z</time>
      </trkpt>
      <trkpt lat="46.25218" lon="2.4783">
        <ele>413</ele>
        <time>2017-04-17T14:37:06Z</time>
      </trkpt>
      <trkpt lat="46.25218" lon="2.47825">
        <ele>414</ele>
        <time>2017-04-17T14:37:09Z</time>
      </trkpt>
      <trkpt lat="46.25217" lon="2.4782">
        <ele>414</ele>
        <time>2017-04-17T14:37:12Z</time>
      </trkpt>
      <trkpt lat="46.25216" lon="2.47814">
        <ele>414</ele>
        <time>2017-04-17T14:37:15Z</time>
      </trkpt>
      <trkpt lat="46.25215" lon="2.47809">
        <ele>414</ele>
        <time>2017-04-17T14:37:18Z</time>
      </trkpt>
      <trkpt lat="46.25216" lon="2.47804">
        <ele>414</ele>
        <time>2017-04-17T14:37:21Z</time>
      </trkpt>
      <trkpt lat="46.25215" lon="2.47798">
        <ele>414</ele>
        <time>2017-04-17T14:37:24Z</time>
      </trkpt>
      <trkpt lat="46.25214" lon="2.47793">
        <ele>414</ele>
        <time>2017-04-17T14:37:27Z</time>
      </trkpt>
      <trkpt lat="46.25213" lon="2.47787">
        <ele>414</ele>
        <time>2017-04-17T14:37:30Z</time>
      </trkpt>
      <trkpt lat="46.25212" lon="2.47782">
        <ele>414</ele>
        <time>2017-04-17T14:37:33Z</time>
      </trkpt>
      <trkpt lat="46.25211" lon="2.47776">
        <ele>415</ele>
        <time>2017-04-17T14:37:36Z</time>
      </trkpt>
      <trkpt lat="46.25211" lon="2.47771">
        <ele>416</ele>
        <time>2017-04-17T14:37:39Z</time>
      </trkpt>
      <trkpt lat="46.25209" lon="2.47764">
        <ele>416</ele>
        <time>2017-04-17T14:37:42Z</time>
      </trkpt>
      <trkpt lat="46.25208" lon="2.47758">
        <ele>417</ele>
        <time>2017-04-17T14:37:45Z</time>
      </trkpt>
      <trkpt lat="46.25208" lon="2.47752">
        <ele>417</ele>
        <time>2017-04-17T14:37:48Z</time>
      </trkpt>
      <trkpt lat="46.25207" lon="2.47746">
        <ele>417</ele>
        <time>2017-04-17T14:37:51Z</time>
      </trkpt>
      <trkpt lat="46.25206" lon="2.4774">
        <ele>417</ele>
        <time>2017-04-17T14:37:54Z</time>
      </trkpt>
      <trkpt lat="46.25206" lon="2.47734">
        <ele>417</ele>
        <time>2017-04-17T14:37:57Z</time>
      </trkpt>
      <trkpt lat="46.25205" lon="2.47728">
        <ele>417</ele>
        <time>2017-04-17T14:38:00Z</time>
      </trkpt>
      <trkpt lat="46.25205" lon="2.47723">
        <ele>417</ele>
        <time>2017-04-17T14:38:03Z</time>
      </trkpt>
      <trkpt lat="46.25206" lon="2.47717">
        <ele>417</ele>
        <time>2017-04-17T14:38:06Z</time>
      </trkpt>
      <trkpt lat="46.25205" lon="2.47711">
        <ele>417</ele>
        <time>2017-04-17T14:38:09Z</time>
      </trkpt>
      <trkpt lat="46.25206" lon="2.47704">
        <ele>417</ele>
        <time>2017-04-17T14:38:12Z</time>
      </trkpt>
      <trkpt lat="46.25206" lon="2.47698">
        <ele>417</ele>
        <time>2017-04-17T14:38:15Z</time>
      </trkpt>
      <trkpt lat="46.25206" lon="2.47693">
        <ele>417</ele>
        <time>2017-04-17T14:38:18Z</time>
      </trkpt>
      <trkpt lat="46.25206" lon="2.47687">
        <ele>416</ele>
        <time>2017-04-17T14:38:21Z</time>
      </trkpt>
      <trkpt lat="46.25207" lon="2.4768">
        <ele>416</ele>
        <time>2017-04-17T14:38:24Z</time>
      </trkpt>
      <trkpt lat="46.25207" lon="2.47674">
        <ele>416</ele>
        <time>2017-04-17T14:38:27Z</time>
      </trkpt>
      <trkpt lat="46.25208" lon="2.47669">
        <ele>415</ele>
        <time>2017-04-17T14:38:30Z</time>
      </trkpt>
      <trkpt lat="46.25208" lon="2.47662">
        <ele>415</ele>
        <time>2017-04-17T14:38:33Z</time>
      </trkpt>
      <trkpt lat="46.25209" lon="2.47657">
        <ele>415</ele>
        <time>2017-04-17T14:38:36Z</time>
      </trkpt>
      <trkpt lat="46.25209" lon="2.47651">
        <ele>415</ele>
        <time>2017-04-17T14:38:39Z</time>
      </trkpt>
      <trkpt lat="46.2521" lon="2.47645">
        <ele>415</ele>
        <time>2017-04-17T14:38:42Z</time>
      </trkpt>
      <trkpt lat="46.25211" lon="2.47638">
        <ele>415</ele>
        <time>2017-04-17T14:38:45Z</time>
      </trkpt>
      <trkpt lat="46.25212" lon="2.47632">
        <ele>414</ele>
        <time>2017-04-17T14:38:48Z</time>
      </trkpt>
      <trkpt lat="46.25213" lon="2.47625">
        <ele>413</ele>
        <time>2017-04-17T14:38:51Z</time>
      </trkpt>
      <trkpt lat="46.25213" lon="2.47618">
        <ele>412</ele>
        <time>2017-04-17T14:38:54Z</time>
      </trkpt>
      <trkpt lat="46.25215" lon="2.47612">
        <ele>412</ele>
        <time>2017-04-17T14:38:57Z</time>
      </trkpt>
      <trkpt lat="46.25216" lon="2.47606">
        <ele>412</ele>
        <time>2017-04-17T14:39:00Z</time>
      </trkpt>
      <trkpt lat="46.25217" lon="2.476">
        <ele>412</ele>
        <time>2017-04-17T14:39:03Z</time>
      </trkpt>
      <trkpt lat="46.25218" lon="2.47593">
        <ele>412</ele>
        <time>2017-04-17T14:39:06Z</time>
      </trkpt>
      <trkpt lat="46.25219" lon="2.47586">
        <ele>412</ele>
        <time>2017-04-17T14:39:09Z</time>
      </trkpt>
      <trkpt lat="46.25221" lon="2.47581">
        <ele>412</ele>
        <time>2017-04-17T14:39:12Z</time>
      </trkpt>
      <trkpt lat="46.25222" lon="2.47574">
        <ele>412</ele>
        <time>2017-04-17T14:39:15Z</time>
      </trkpt>
      <trkpt lat="46.25224" lon="2.47568">
        <ele>412</ele>
        <time>2017-04-17T14:39:18Z</time>
      </trkpt>
      <trkpt lat="46.25225" lon="2.47562">
        <ele>412</ele>
        <time>2017-04-17T14:39:21Z</time>
      </trkpt>
      <trkpt lat="46.25226" lon="2.47556">
        <ele>412</ele>
        <time>2017-04-17T14:39:24Z</time>
      </trkpt>
      <trkpt lat="46.25227" lon="2.47549">
        <ele>412</ele>
        <time>2017-04-17T14:39:27Z</time>
      </trkpt>
      <trkpt lat="46.25228" lon="2.47543">
        <ele>412</ele>
        <time>2017-04-17T14:39:30Z</time>
      </trkpt>
      <trkpt lat="46.2523" lon="2.47536">
        <ele>413</ele>
        <time>2017-04-17T14:39:33Z</time>
      </trkpt>
      <trkpt lat="46.25231" lon="2.47531">
        <ele>413</ele>
        <time>2017-04-17T14:39:36Z</time>
      </trkpt>
      <trkpt lat="46.25233" lon="2.47527">
        <ele>413</ele>
        <time>2017-04-17T14:39:39Z</time>
      </trkpt>
      <trkpt lat="46.25235" lon="2.47522">
        <ele>413</ele>
        <time>2017-04-17T14:39:42Z</time>
      </trkpt>
      <trkpt lat="46.25237" lon="2.47517">
        <ele>413</ele>
        <time>2017-04-17T14:39:45Z</time>
      </trkpt>
      <trkpt lat="46.2524" lon="2.47512">
        <ele>413</ele>
        <time>2017-04-17T14:39:48Z</time>
      </trkpt>
      <trkpt lat="46.25242" lon="2.47507">
        <ele>413</ele>
        <time>2017-04-17T14:39:51Z</time>
      </trkpt>
      <trkpt lat="46.25246" lon="2.47502">
        <ele>413</ele>
        <time>2017-04-17T14:39:55Z</time>
      </trkpt>
      <trkpt lat="46.25249" lon="2.47497">
        <ele>413</ele>
        <time>2017-04-17T14:39:59Z</time>
      </trkpt>
      <trkpt lat="46.2525" lon="2.47491">
        <ele>413</ele>
        <time>2017-04-17T14:40:02Z</time>
      </trkpt>
      <trkpt lat="46.2525" lon="2.47485">
        <ele>413</ele>
        <time>2017-04-17T14:40:05Z</time>
      </trkpt>
      <trkpt lat="46.25251" lon="2.47479">
        <ele>413</ele>
        <time>2017-04-17T14:40:08Z</time>
      </trkpt>
      <trkpt lat="46.25253" lon="2.47473">
        <ele>413</ele>
        <time>2017-04-17T14:40:11Z</time>
      </trkpt>
      <trkpt lat="46.25254" lon="2.47467">
        <ele>413</ele>
        <time>2017-04-17T14:40:14Z</time>
      </trkpt>
      <trkpt lat="46.25255" lon="2.47461">
        <ele>413</ele>
        <time>2017-04-17T14:40:17Z</time>
      </trkpt>
      <trkpt lat="46.25257" lon="2.47455">
        <ele>413</ele>
        <time>2017-04-17T14:40:20Z</time>
      </trkpt>
      <trkpt lat="46.25259" lon="2.47449">
        <ele>413</ele>
        <time>2017-04-17T14:40:23Z</time>
      </trkpt>
      <trkpt lat="46.25259" lon="2.47443">
        <ele>413</ele>
        <time>2017-04-17T14:40:26Z</time>
      </trkpt>
      <trkpt lat="46.2526" lon="2.47437">
        <ele>413</ele>
        <time>2017-04-17T14:40:29Z</time>
      </trkpt>
      <trkpt lat="46.25261" lon="2.4743">
        <ele>413</ele>
        <time>2017-04-17T14:40:32Z</time>
      </trkpt>
      <trkpt lat="46.25262" lon="2.47424">
        <ele>413</ele>
        <time>2017-04-17T14:40:35Z</time>
      </trkpt>
      <trkpt lat="46.25263" lon="2.47418">
        <ele>413</ele>
        <time>2017-04-17T14:40:38Z</time>
      </trkpt>
      <trkpt lat="46.25264" lon="2.47413">
        <ele>413</ele>
        <time>2017-04-17T14:40:41Z</time>
      </trkpt>
      <trkpt lat="46.25265" lon="2.47407">
        <ele>413</ele>
        <time>2017-04-17T14:40:44Z</time>
      </trkpt>
      <trkpt lat="46.25266" lon="2.474">
        <ele>413</ele>
        <time>2017-04-17T14:40:47Z</time>
      </trkpt>
      <trkpt lat="46.25267" lon="2.47393">
        <ele>413</ele>
        <time>2017-04-17T14:40:50Z</time>
      </trkpt>
      <trkpt lat="46.25268" lon="2.47387">
        <ele>413</ele>
        <time>2017-04-17T14:40:53Z</time>
      </trkpt>
      <trkpt lat="46.25269" lon="2.4738">
        <ele>413</ele>
        <time>2017-04-17T14:40:56Z</time>
      </trkpt>
      <trkpt lat="46.2527" lon="2.47375">
        <ele>413</ele>
        <time>2017-04-17T14:40:59Z</time>
      </trkpt>
      <trkpt lat="46.25271" lon="2.47369">
        <ele>413</ele>
        <time>2017-04-17T14:41:02Z</time>
      </trkpt>
      <trkpt lat="46.25272" lon="2.47363">
        <ele>413</ele>
        <time>2017-04-17T14:41:05Z</time>
      </trkpt>
      <trkpt lat="46.25273" lon="2.47357">
        <ele>413</ele>
        <time>2017-04-17T14:41:08Z</time>
      </trkpt>
      <trkpt lat="46.25275" lon="2.47353">
        <ele>413</ele>
        <time>2017-04-17T14:41:11Z</time>
      </trkpt>
      <trkpt lat="46.25276" lon="2.47346">
        <ele>413</ele>
        <time>2017-04-17T14:41:14Z</time>
      </trkpt>
      <trkpt lat="46.25277" lon="2.47339">
        <ele>413</ele>
        <time>2017-04-17T14:41:17Z</time>
      </trkpt>
      <trkpt lat="46.25277" lon="2.47333">
        <ele>413</ele>
        <time>2017-04-17T14:41:20Z</time>
      </trkpt>
      <trkpt lat="46.25278" lon="2.47327">
        <ele>413</ele>
        <time>2017-04-17T14:41:23Z</time>
      </trkpt>
      <trkpt lat="46.25279" lon="2.47321">
        <ele>413</ele>
        <time>2017-04-17T14:41:26Z</time>
      </trkpt>
      <trkpt lat="46.2528" lon="2.47315">
        <ele>413</ele>
        <time>2017-04-17T14:41:29Z</time>
      </trkpt>
      <trkpt lat="46.25281" lon="2.47309">
        <ele>413</ele>
        <time>2017-04-17T14:41:32Z</time>
      </trkpt>
      <trkpt lat="46.25282" lon="2.47303">
        <ele>413</ele>
        <time>2017-04-17T14:41:35Z</time>
      </trkpt>
      <trkpt lat="46.25283" lon="2.47297">
        <ele>414</ele>
        <time>2017-04-17T14:41:38Z</time>
      </trkpt>
      <trkpt lat="46.25284" lon="2.47291">
        <ele>414</ele>
        <time>2017-04-17T14:41:41Z</time>
      </trkpt>
      <trkpt lat="46.25285" lon="2.47285">
        <ele>414</ele>
        <time>2017-04-17T14:41:44Z</time>
      </trkpt>
      <trkpt lat="46.25286" lon="2.47277">
        <ele>414</ele>
        <time>2017-04-17T14:41:47Z</time>
      </trkpt>
      <trkpt lat="46.25287" lon="2.47271">
        <ele>414</ele>
        <time>2017-04-17T14:41:50Z</time>
      </trkpt>
      <trkpt lat="46.25289" lon="2.47265">
        <ele>414</ele>
        <time>2017-04-17T14:41:53Z</time>
      </trkpt>
      <trkpt lat="46.2529" lon="2.47259">
        <ele>414</ele>
        <time>2017-04-17T14:41:56Z</time>
      </trkpt>
      <trkpt lat="46.25291" lon="2.47252">
        <ele>414</ele>
        <time>2017-04-17T14:41:59Z</time>
      </trkpt>
      <trkpt lat="46.25292" lon="2.47246">
        <ele>414</ele>
        <time>2017-04-17T14:42:02Z</time>
      </trkpt>
      <trkpt lat="46.25294" lon="2.4724">
        <ele>414</ele>
        <time>2017-04-17T14:42:05Z</time>
      </trkpt>
      <trkpt lat="46.25294" lon="2.47235">
        <ele>414</ele>
        <time>2017-04-17T14:42:08Z</time>
      </trkpt>
      <trkpt lat="46.25295" lon="2.47229">
        <ele>414</ele>
        <time>2017-04-17T14:42:11Z</time>
      </trkpt>
      <trkpt lat="46.25295" lon="2.47222">
        <ele>414</ele>
        <time>2017-04-17T14:42:14Z</time>
      </trkpt>
      <trkpt lat="46.25296" lon="2.47217">
        <ele>414</ele>
        <time>2017-04-17T14:42:17Z</time>
      </trkpt>
      <trkpt lat="46.25296" lon="2.4721">
        <ele>414</ele>
        <time>2017-04-17T14:42:20Z</time>
      </trkpt>
      <trkpt lat="46.25297" lon="2.47204">
        <ele>414</ele>
        <time>2017-04-17T14:42:23Z</time>
      </trkpt>
      <trkpt lat="46.25297" lon="2.47199">
        <ele>414</ele>
        <time>2017-04-17T14:42:26Z</time>
      </trkpt>
      <trkpt lat="46.25298" lon="2.47193">
        <ele>414</ele>
        <time>2017-04-17T14:42:29Z</time>
      </trkpt>
      <trkpt lat="46.25297" lon="2.47187">
        <ele>415</ele>
        <time>2017-04-17T14:42:32Z</time>
      </trkpt>
      <trkpt lat="46.25297" lon="2.47181">
        <ele>415</ele>
        <time>2017-04-17T14:42:35Z</time>
      </trkpt>
      <trkpt lat="46.25297" lon="2.47174">
        <ele>415</ele>
        <time>2017-04-17T14:42:38Z</time>
      </trkpt>
      <trkpt lat="46.25297" lon="2.47168">
        <ele>415</ele>
        <time>2017-04-17T14:42:41Z</time>
      </trkpt>
      <trkpt lat="46.25297" lon="2.47162">
        <ele>415</ele>
        <time>2017-04-17T14:42:44Z</time>
      </trkpt>
      <trkpt lat="46.25296" lon="2.47155">
        <ele>415</ele>
        <time>2017-04-17T14:42:47Z</time>
      </trkpt>
      <trkpt lat="46.25296" lon="2.47149">
        <ele>415</ele>
        <time>2017-04-17T14:42:50Z</time>
      </trkpt>
      <trkpt lat="46.25296" lon="2.47143">
        <ele>415</ele>
        <time>2017-04-17T14:42:53Z</time>
      </trkpt>
      <trkpt lat="46.25296" lon="2.47137">
        <ele>415</ele>
        <time>2017-04-17T14:42:56Z</time>
      </trkpt>
      <trkpt lat="46.25295" lon="2.47131">
        <ele>415</ele>
        <time>2017-04-17T14:42:59Z</time>
      </trkpt>
      <trkpt lat="46.25295" lon="2.47125">
        <ele>415</ele>
        <time>2017-04-17T14:43:02Z</time>
      </trkpt>
      <trkpt lat="46.25295" lon="2.47118">
        <ele>415</ele>
        <time>2017-04-17T14:43:05Z</time>
      </trkpt>
      <trkpt lat="46.25294" lon="2.47112">
        <ele>415</ele>
        <time>2017-04-17T14:43:08Z</time>
      </trkpt>
      <trkpt lat="46.25294" lon="2.47107">
        <ele>415</ele>
        <time>2017-04-17T14:43:11Z</time>
      </trkpt>
      <trkpt lat="46.25293" lon="2.471">
        <ele>415</ele>
        <time>2017-04-17T14:43:14Z</time>
      </trkpt>
      <trkpt lat="46.25293" lon="2.47094">
        <ele>415</ele>
        <time>2017-04-17T14:43:17Z</time>
      </trkpt>
      <trkpt lat="46.25293" lon="2.47089">
        <ele>415</ele>
        <time>2017-04-17T14:43:20Z</time>
      </trkpt>
      <trkpt lat="46.25292" lon="2.47082">
        <ele>415</ele>
        <time>2017-04-17T14:43:23Z</time>
      </trkpt>
      <trkpt lat="46.25292" lon="2.47077">
        <ele>415</ele>
        <time>2017-04-17T14:43:26Z</time>
      </trkpt>
      <trkpt lat="46.25292" lon="2.4707">
        <ele>415</ele>
        <time>2017-04-17T14:43:29Z</time>
      </trkpt>
      <trkpt lat="46.25292" lon="2.47064">
        <ele>415</ele>
        <time>2017-04-17T14:43:32Z</time>
      </trkpt>
      <trkpt lat="46.25291" lon="2.47058">
        <ele>415</ele>
        <time>2017-04-17T14:43:35Z</time>
      </trkpt>
      <trkpt lat="46.25291" lon="2.47052">
        <ele>415</ele>
        <time>2017-04-17T14:43:38Z</time>
      </trkpt>
      <trkpt lat="46.25291" lon="2.47046">
        <ele>415</ele>
        <time>2017-04-17T14:43:41Z</time>
      </trkpt>
      <trkpt lat="46.25291" lon="2.4704">
        <ele>415</ele>
        <time>2017-04-17T14:43:44Z</time>
      </trkpt>
      <trkpt lat="46.2529" lon="2.47033">
        <ele>415</ele>
        <time>2017-04-17T14:43:47Z</time>
      </trkpt>
      <trkpt lat="46.2529" lon="2.47027">
        <ele>415</ele>
        <time>2017-04-17T14:43:50Z</time>
      </trkpt>
      <trkpt lat="46.25289" lon="2.47021">
        <ele>414</ele>
        <time>2017-04-17T14:43:53Z</time>
      </trkpt>
      <trkpt lat="46.25289" lon="2.47014">
        <ele>413</ele>
        <time>2017-04-17T14:43:56Z</time>
      </trkpt>
      <trkpt lat="46.25288" lon="2.47008">
        <ele>412</ele>
        <time>2017-04-17T14:43:59Z</time>
      </trkpt>
      <trkpt lat="46.25287" lon="2.47003">
        <ele>410</ele>
        <time>2017-04-17T14:44:02Z</time>
      </trkpt>
      <trkpt lat="46.25284" lon="2.46997">
        <ele>409</ele>
        <time>2017-04-17T14:44:06Z</time>
      </trkpt>
      <trkpt lat="46.2528" lon="2.46995">
        <ele>409</ele>
        <time>2017-04-17T14:44:09Z</time>
      </trkpt>
      <trkpt lat="46.25275" lon="2.46994">
        <ele>409</ele>
        <time>2017-04-17T14:44:12Z</time>
      </trkpt>
      <trkpt lat="46.25271" lon="2.46994">
        <ele>409</ele>
        <time>2017-04-17T14:44:15Z</time>
      </trkpt>
      <trkpt lat="46.25267" lon="2.46994">
        <ele>409</ele>
        <time>2017-04-17T14:44:18Z</time>
      </trkpt>
      <trkpt lat="46.25263" lon="2.46994">
        <ele>409</ele>
        <time>2017-04-17T14:44:21Z</time>
      </trkpt>
      <trkpt lat="46.25258" lon="2.46993">
        <ele>409</ele>
        <time>2017-04-17T14:44:24Z</time>
      </trkpt>
      <trkpt lat="46.25254" lon="2.46993">
        <ele>409</ele>
        <time>2017-04-17T14:44:27Z</time>
      </trkpt>
      <trkpt lat="46.2525" lon="2.46994">
        <ele>409</ele>
        <time>2017-04-17T14:44:30Z</time>
      </trkpt>
      <trkpt lat="46.25246" lon="2.46993">
        <ele>409</ele>
        <time>2017-04-17T14:44:33Z</time>
      </trkpt>
      <trkpt lat="46.25242" lon="2.46993">
        <ele>409</ele>
        <time>2017-04-17T14:44:36Z</time>
      </trkpt>
      <trkpt lat="46.25238" lon="2.46992">
        <ele>409</ele>
        <time>2017-04-17T14:44:39Z</time>
      </trkpt>
      <trkpt lat="46.25233" lon="2.46991">
        <ele>409</ele>
        <time>2017-04-17T14:44:42Z</time>
      </trkpt>
      <trkpt lat="46.25229" lon="2.46991">
        <ele>409</ele>
        <time>2017-04-17T14:44:45Z</time>
      </trkpt>
      <trkpt lat="46.25225" lon="2.46991">
        <ele>409</ele>
        <time>2017-04-17T14:44:48Z</time>
      </trkpt>
      <trkpt lat="46.2522" lon="2.46991">
        <ele>409</ele>
        <time>2017-04-17T14:44:51Z</time>
      </trkpt>
      <trkpt lat="46.25216" lon="2.46991">
        <ele>409</ele>
        <time>2017-04-17T14:44:54Z</time>
      </trkpt>
      <trkpt lat="46.25212" lon="2.46991">
        <ele>409</ele>
        <time>2017-04-17T14:44:57Z</time>
      </trkpt>
      <trkpt lat="46.25208" lon="2.4699">
        <ele>409</ele>
        <time>2017-04-17T14:45:00Z</time>
      </trkpt>
      <trkpt lat="46.25203" lon="2.4699">
        <ele>409</ele>
        <time>2017-04-17T14:45:03Z</time>
      </trkpt>
      <trkpt lat="46.25199" lon="2.4699">
        <ele>409</ele>
        <time>2017-04-17T14:45:06Z</time>
      </trkpt>
      <trkpt lat="46.25195" lon="2.4699">
        <ele>409</ele>
        <time>2017-04-17T14:45:09Z</time>
      </trkpt>
      <trkpt lat="46.2519" lon="2.4699">
        <ele>409</ele>
        <time>2017-04-17T14:45:12Z</time>
      </trkpt>
      <trkpt lat="46.25186" lon="2.4699">
        <ele>409</ele>
        <time>2017-04-17T14:45:15Z</time>
      </trkpt>
      <trkpt lat="46.25182" lon="2.4699">
        <ele>409</ele>
        <time>2017-04-17T14:45:18Z</time>
      </trkpt>
      <trkpt lat="46.25177" lon="2.4699">
        <ele>409</ele>
        <time>2017-04-17T14:45:21Z</time>
      </trkpt>
      <trkpt lat="46.25173" lon="2.46989">
        <ele>409</ele>
        <time>2017-04-17T14:45:24Z</time>
      </trkpt>
      <trkpt lat="46.25169" lon="2.46989">
        <ele>408</ele>
        <time>2017-04-17T14:45:27Z</time>
      </trkpt>
      <trkpt lat="46.25165" lon="2.46988">
        <ele>408</ele>
        <time>2017-04-17T14:45:30Z</time>
      </trkpt>
      <trkpt lat="46.2516" lon="2.46987">
        <ele>407</ele>
        <time>2017-04-17T14:45:33Z</time>
      </trkpt>
      <trkpt lat="46.25156" lon="2.46987">
        <ele>407</ele>
        <time>2017-04-17T14:45:36Z</time>
      </trkpt>
      <trkpt lat="46.25152" lon="2.46987">
        <ele>406</ele>
        <time>2017-04-17T14:45:39Z</time>
      </trkpt>
      <trkpt lat="46.25148" lon="2.46986">
        <ele>406</ele>
        <time>2017-04-17T14:45:42Z</time>
      </trkpt>
      <trkpt lat="46.25143" lon="2.46985">
        <ele>406</ele>
        <time>2017-04-17T14:45:45Z</time>
      </trkpt>
      <trkpt lat="46.25139" lon="2.46985">
        <ele>406</ele>
        <time>2017-04-17T14:45:48Z</time>
      </trkpt>
      <trkpt lat="46.25135" lon="2.46985">
        <ele>406</ele>
        <time>2017-04-17T14:45:51Z</time>
      </trkpt>
      <trkpt lat="46.2513" lon="2.46984">
        <ele>406</ele>
        <time>2017-04-17T14:45:54Z</time>
      </trkpt>
      <trkpt lat="46.25126" lon="2.46984">
        <ele>405</ele>
        <time>2017-04-17T14:45:57Z</time>
      </trkpt>
      <trkpt lat="46.25122" lon="2.46984">
        <ele>405</ele>
        <time>2017-04-17T14:46:00Z</time>
      </trkpt>
      <trkpt lat="46.25118" lon="2.46984">
        <ele>405</ele>
        <time>2017-04-17T14:46:03Z</time>
      </trkpt>
      <trkpt lat="46.25113" lon="2.46983">
        <ele>405</ele>
        <time>2017-04-17T14:46:06Z</time>
      </trkpt>
      <trkpt lat="46.25109" lon="2.46983">
        <ele>405</ele>
        <time>2017-04-17T14:46:09Z</time>
      </trkpt>
      <trkpt lat="46.25105" lon="2.46983">
        <ele>405</ele>
        <time>2017-04-17T14:46:12Z</time>
      </trkpt>
      <trkpt lat="46.251" lon="2.46983">
        <ele>405</ele>
        <time>2017-04-17T14:46:15Z</time>
      </trkpt>
      <trkpt lat="46.25096" lon="2.46982">
        <ele>404</ele>
        <time>2017-04-17T14:46:18Z</time>
      </trkpt>
      <trkpt lat="46.25092" lon="2.46982">
        <ele>404</ele>
        <time>2017-04-17T14:46:21Z</time>
      </trkpt>
      <trkpt lat="46.25088" lon="2.46982">
        <ele>404</ele>
        <time>2017-04-17T14:46:24Z</time>
      </trkpt>
      <trkpt lat="46.25084" lon="2.46981">
        <ele>404</ele>
        <time>2017-04-17T14:46:27Z</time>
      </trkpt>
      <trkpt lat="46.25079" lon="2.46982">
        <ele>403</ele>
        <time>2017-04-17T14:46:30Z</time>
      </trkpt>
      <trkpt lat="46.25075" lon="2.46981">
        <ele>403</ele>
        <time>2017-04-17T14:46:33Z</time>
      </trkpt>
      <trkpt lat="46.25071" lon="2.46981">
        <ele>403</ele>
        <time>2017-04-17T14:46:36Z</time>
      </trkpt>
      <trkpt lat="46.25066" lon="2.46982">
        <ele>403</ele>
        <time>2017-04-17T14:46:39Z</time>
      </trkpt>
      <trkpt lat="46.25063" lon="2.46983">
        <ele>403</ele>
        <time>2017-04-17T14:46:42Z</time>
      </trkpt>
      <trkpt lat="46.25059" lon="2.46986">
        <ele>402</ele>
        <time>2017-04-17T14:46:45Z</time>
      </trkpt>
      <trkpt lat="46.25055" lon="2.46988">
        <ele>402</ele>
        <time>2017-04-17T14:46:48Z</time>
      </trkpt>
      <trkpt lat="46.25051" lon="2.46989">
        <ele>401</ele>
        <time>2017-04-17T14:46:51Z</time>
      </trkpt>
      <trkpt lat="46.25047" lon="2.46988">
        <ele>401</ele>
        <time>2017-04-17T14:46:54Z</time>
      </trkpt>
      <trkpt lat="46.25043" lon="2.46987">
        <ele>401</ele>
        <time>2017-04-17T14:46:57Z</time>
      </trkpt>
      <trkpt lat="46.25039" lon="2.46985">
        <ele>401</ele>
        <time>2017-04-17T14:47:00Z</time>
      </trkpt>
      <trkpt lat="46.25035" lon="2.46983">
        <ele>401</ele>
        <time>2017-04-17T14:47:03Z</time>
      </trkpt>
      <trkpt lat="46.25031" lon="2.46981">
        <ele>401</ele>
        <time>2017-04-17T14:47:06Z</time>
      </trkpt>
      <trkpt lat="46.25027" lon="2.4698">
        <ele>401</ele>
        <time>2017-04-17T14:47:09Z</time>
      </trkpt>
      <trkpt lat="46.25023" lon="2.46979">
        <ele>401</ele>
        <time>2017-04-17T14:47:12Z</time>
      </trkpt>
      <trkpt lat="46.25018" lon="2.46979">
        <ele>401</ele>
        <time>2017-04-17T14:47:15Z</time>
      </trkpt>
      <trkpt lat="46.25014" lon="2.4698">
        <ele>401</ele>
        <time>2017-04-17T14:47:18Z</time>
      </trkpt>
      <trkpt lat="46.2501" lon="2.46982">
        <ele>401</ele>
        <time>2017-04-17T14:47:21Z</time>
      </trkpt>
      <trkpt lat="46.25006" lon="2.46983">
        <ele>401</ele>
        <time>2017-04-17T14:47:24Z</time>
      </trkpt>
      <trkpt lat="46.25002" lon="2.46986">
        <ele>401</ele>
        <time>2017-04-17T14:47:27Z</time>
      </trkpt>
      <trkpt lat="46.24998" lon="2.46989">
        <ele>401</ele>
        <time>2017-04-17T14:47:30Z</time>
      </trkpt>
      <trkpt lat="46.24995" lon="2.46992">
        <ele>401</ele>
        <time>2017-04-17T14:47:33Z</time>
      </trkpt>
      <trkpt lat="46.24991" lon="2.46995">
        <ele>400</ele>
        <time>2017-04-17T14:47:36Z</time>
      </trkpt>
      <trkpt lat="46.24987" lon="2.46998">
        <ele>400</ele>
        <time>2017-04-17T14:47:39Z</time>
      </trkpt>
      <trkpt lat="46.24984" lon="2.47001">
        <ele>400</ele>
        <time>2017-04-17T14:47:42Z</time>
      </trkpt>
      <trkpt lat="46.2498" lon="2.47003">
        <ele>399</ele>
        <time>2017-04-17T14:47:45Z</time>
      </trkpt>
      <trkpt lat="46.24977" lon="2.47005">
        <ele>398</ele>
        <time>2017-04-17T14:47:48Z</time>
      </trkpt>
      <trkpt lat="46.24974" lon="2.47008">
        <ele>397</ele>
        <time>2017-04-17T14:47:51Z</time>
      </trkpt>
      <trkpt lat="46.2497" lon="2.4701">
        <ele>396</ele>
        <time>2017-04-17T14:47:54Z</time>
      </trkpt>
      <trkpt lat="46.24966" lon="2.47013">
        <ele>396</ele>
        <time>2017-04-17T14:47:57Z</time>
      </trkpt>
      <trkpt lat="46.24962" lon="2.47017">
        <ele>396</ele>
        <time>2017-04-17T14:48:00Z</time>
      </trkpt>
      <trkpt lat="46.24956" lon="2.4702">
        <ele>396</ele>
        <time>2017-04-17T14:48:03Z</time>
      </trkpt>
      <trkpt lat="46.24951" lon="2.47024">
        <ele>397</ele>
        <time>2017-04-17T14:48:06Z</time>
      </trkpt>
      <trkpt lat="46.24947" lon="2.47023">
        <ele>400</ele>
        <time>2017-04-17T14:48:09Z</time>
      </trkpt>
      <trkpt lat="46.24944" lon="2.47024">
        <ele>400</ele>
        <time>2017-04-17T14:48:12Z</time>
      </trkpt>
      <trkpt lat="46.24939" lon="2.47024">
        <ele>400</ele>
        <time>2017-04-17T14:48:15Z</time>
      </trkpt>
      <trkpt lat="46.24935" lon="2.47025">
        <ele>400</ele>
        <time>2017-04-17T14:48:18Z</time>
      </trkpt>
      <trkpt lat="46.2493" lon="2.47027">
        <ele>400</ele>
        <time>2017-04-17T14:48:21Z</time>
      </trkpt>
      <trkpt lat="46.24927" lon="2.47027">
        <ele>400</ele>
        <time>2017-04-17T14:48:24Z</time>
      </trkpt>
      <trkpt lat="46.24924" lon="2.47027">
        <ele>400</ele>
        <time>2017-04-17T14:48:27Z</time>
      </trkpt>
      <trkpt lat="46.2492" lon="2.47029">
        <ele>400</ele>
        <time>2017-04-17T14:48:30Z</time>
      </trkpt>
      <trkpt lat="46.24917" lon="2.47031">
        <ele>399</ele>
        <time>2017-04-17T14:48:33Z</time>
      </trkpt>
      <trkpt lat="46.24913" lon="2.47032">
        <ele>398</ele>
        <time>2017-04-17T14:48:37Z</time>
      </trkpt>
      <trkpt lat="46.2491" lon="2.4703">
        <ele>396</ele>
        <time>2017-04-17T14:48:40Z</time>
      </trkpt>
      <trkpt lat="46.24906" lon="2.47028">
        <ele>395</ele>
        <time>2017-04-17T14:48:43Z</time>
      </trkpt>
      <trkpt lat="46.24902" lon="2.47026">
        <ele>394</ele>
        <time>2017-04-17T14:48:46Z</time>
      </trkpt>
      <trkpt lat="46.24897" lon="2.47025">
        <ele>394</ele>
        <time>2017-04-17T14:48:49Z</time>
      </trkpt>
      <trkpt lat="46.24893" lon="2.47023">
        <ele>393</ele>
        <time>2017-04-17T14:48:52Z</time>
      </trkpt>
      <trkpt lat="46.24889" lon="2.47021">
        <ele>393</ele>
        <time>2017-04-17T14:48:55Z</time>
      </trkpt>
      <trkpt lat="46.24885" lon="2.47018">
        <ele>393</ele>
        <time>2017-04-17T14:48:58Z</time>
      </trkpt>
      <trkpt lat="46.24881" lon="2.47016">
        <ele>393</ele>
        <time>2017-04-17T14:49:01Z</time>
      </trkpt>
      <trkpt lat="46.24877" lon="2.47014">
        <ele>393</ele>
        <time>2017-04-17T14:49:04Z</time>
      </trkpt>
      <trkpt lat="46.24872" lon="2.47012">
        <ele>392</ele>
        <time>2017-04-17T14:49:07Z</time>
      </trkpt>
      <trkpt lat="46.24868" lon="2.47011">
        <ele>392</ele>
        <time>2017-04-17T14:49:10Z</time>
      </trkpt>
      <trkpt lat="46.24863" lon="2.47011">
        <ele>392</ele>
        <time>2017-04-17T14:49:13Z</time>
      </trkpt>
      <trkpt lat="46.24859" lon="2.47012">
        <ele>392</ele>
        <time>2017-04-17T14:49:16Z</time>
      </trkpt>
      <trkpt lat="46.24855" lon="2.47014">
        <ele>392</ele>
        <time>2017-04-17T14:49:19Z</time>
      </trkpt>
      <trkpt lat="46.2485" lon="2.47017">
        <ele>392</ele>
        <time>2017-04-17T14:49:22Z</time>
      </trkpt>
      <trkpt lat="46.24846" lon="2.47019">
        <ele>391</ele>
        <time>2017-04-17T14:49:25Z</time>
      </trkpt>
      <trkpt lat="46.24842" lon="2.47021">
        <ele>390</ele>
        <time>2017-04-17T14:49:28Z</time>
      </trkpt>
      <trkpt lat="46.24838" lon="2.47024">
        <ele>389</ele>
        <time>2017-04-17T14:49:31Z</time>
      </trkpt>
      <trkpt lat="46.24834" lon="2.47026">
        <ele>388</ele>
        <time>2017-04-17T14:49:34Z</time>
      </trkpt>
      <trkpt lat="46.2483" lon="2.47028">
        <ele>388</ele>
        <time>2017-04-17T14:49:37Z</time>
      </trkpt>
      <trkpt lat="46.24826" lon="2.4703">
        <ele>387</ele>
        <time>2017-04-17T14:49:40Z</time>
      </trkpt>
      <trkpt lat="46.24822" lon="2.47033">
        <ele>387</ele>
        <time>2017-04-17T14:49:43Z</time>
      </trkpt>
      <trkpt lat="46.24818" lon="2.47035">
        <ele>387</ele>
        <time>2017-04-17T14:49:46Z</time>
      </trkpt>
      <trkpt lat="46.24814" lon="2.47038">
        <ele>387</ele>
        <time>2017-04-17T14:49:49Z</time>
      </trkpt>
      <trkpt lat="46.2481" lon="2.47041">
        <ele>387</ele>
        <time>2017-04-17T14:49:53Z</time>
      </trkpt>
      <trkpt lat="46.24807" lon="2.47043">
        <ele>387</ele>
        <time>2017-04-17T14:49:56Z</time>
      </trkpt>
      <trkpt lat="46.24803" lon="2.47046">
        <ele>386</ele>
        <time>2017-04-17T14:49:59Z</time>
      </trkpt>
      <trkpt lat="46.24798" lon="2.47048">
        <ele>385</ele>
        <time>2017-04-17T14:50:02Z</time>
      </trkpt>
      <trkpt lat="46.24794" lon="2.47051">
        <ele>385</ele>
        <time>2017-04-17T14:50:05Z</time>
      </trkpt>
      <trkpt lat="46.2479" lon="2.47054">
        <ele>384</ele>
        <time>2017-04-17T14:50:08Z</time>
      </trkpt>
      <trkpt lat="46.24786" lon="2.47055">
        <ele>382</ele>
        <time>2017-04-17T14:50:11Z</time>
      </trkpt>
      <trkpt lat="46.24782" lon="2.47058">
        <ele>382</ele>
        <time>2017-04-17T14:50:14Z</time>
      </trkpt>
      <trkpt lat="46.24778" lon="2.4706">
        <ele>382</ele>
        <time>2017-04-17T14:50:17Z</time>
      </trkpt>
      <trkpt lat="46.24773" lon="2.47063">
        <ele>382</ele>
        <time>2017-04-17T14:50:20Z</time>
      </trkpt>
      <trkpt lat="46.24769" lon="2.47065">
        <ele>382</ele>
        <time>2017-04-17T14:50:23Z</time>
      </trkpt>
      <trkpt lat="46.24765" lon="2.47066">
        <ele>382</ele>
        <time>2017-04-17T14:50:26Z</time>
      </trkpt>
      <trkpt lat="46.24761" lon="2.47069">
        <ele>382</ele>
        <time>2017-04-17T14:50:29Z</time>
      </trkpt>
      <trkpt lat="46.24757" lon="2.4707">
        <ele>382</ele>
        <time>2017-04-17T14:50:32Z</time>
      </trkpt>
      <trkpt lat="46.24752" lon="2.47071">
        <ele>382</ele>
        <time>2017-04-17T14:50:35Z</time>
      </trkpt>
      <trkpt lat="46.24748" lon="2.47073">
        <ele>382</ele>
        <time>2017-04-17T14:50:38Z</time>
      </trkpt>
      <trkpt lat="46.24744" lon="2.47076">
        <ele>382</ele>
        <time>2017-04-17T14:50:41Z</time>
      </trkpt>
      <trkpt lat="46.24739" lon="2.47077">
        <ele>382</ele>
        <time>2017-04-17T14:50:44Z</time>
      </trkpt>
      <trkpt lat="46.24735" lon="2.47078">
        <ele>382</ele>
        <time>2017-04-17T14:50:47Z</time>
      </trkpt>
      <trkpt lat="46.24731" lon="2.47079">
        <ele>382</ele>
        <time>2017-04-17T14:50:50Z</time>
      </trkpt>
      <trkpt lat="46.24727" lon="2.4708">
        <ele>382</ele>
        <time>2017-04-17T14:50:53Z</time>
      </trkpt>
      <trkpt lat="46.24723" lon="2.47081">
        <ele>382</ele>
        <time>2017-04-17T14:50:56Z</time>
      </trkpt>
      <trkpt lat="46.24718" lon="2.47083">
        <ele>381</ele>
        <time>2017-04-17T14:50:59Z</time>
      </trkpt>
      <trkpt lat="46.24713" lon="2.47086">
        <ele>381</ele>
        <time>2017-04-17T14:51:02Z</time>
      </trkpt>
      <trkpt lat="46.24709" lon="2.47088">
        <ele>381</ele>
        <time>2017-04-17T14:51:05Z</time>
      </trkpt>
      <trkpt lat="46.24704" lon="2.4709">
        <ele>381</ele>
        <time>2017-04-17T14:51:08Z</time>
      </trkpt>
      <trkpt lat="46.24699" lon="2.47093">
        <ele>381</ele>
        <time>2017-04-17T14:51:11Z</time>
      </trkpt>
      <trkpt lat="46.24695" lon="2.47095">
        <ele>381</ele>
        <time>2017-04-17T14:51:14Z</time>
      </trkpt>
      <trkpt lat="46.24691" lon="2.47096">
        <ele>381</ele>
        <time>2017-04-17T14:51:17Z</time>
      </trkpt>
      <trkpt lat="46.24687" lon="2.47097">
        <ele>381</ele>
        <time>2017-04-17T14:51:20Z</time>
      </trkpt>
      <trkpt lat="46.24683" lon="2.47099">
        <ele>381</ele>
        <time>2017-04-17T14:51:23Z</time>
      </trkpt>
      <trkpt lat="46.24679" lon="2.47101">
        <ele>381</ele>
        <time>2017-04-17T14:51:26Z</time>
      </trkpt>
      <trkpt lat="46.24675" lon="2.47103">
        <ele>381</ele>
        <time>2017-04-17T14:51:29Z</time>
      </trkpt>
      <trkpt lat="46.24671" lon="2.47105">
        <ele>380</ele>
        <time>2017-04-17T14:51:32Z</time>
      </trkpt>
      <trkpt lat="46.24667" lon="2.47106">
        <ele>378</ele>
        <time>2017-04-17T14:51:35Z</time>
      </trkpt>
      <trkpt lat="46.24663" lon="2.47108">
        <ele>377</ele>
        <time>2017-04-17T14:51:38Z</time>
      </trkpt>
      <trkpt lat="46.24659" lon="2.4711">
        <ele>377</ele>
        <time>2017-04-17T14:51:41Z</time>
      </trkpt>
      <trkpt lat="46.24655" lon="2.47112">
        <ele>377</ele>
        <time>2017-04-17T14:51:44Z</time>
      </trkpt>
      <trkpt lat="46.24651" lon="2.47113">
        <ele>377</ele>
        <time>2017-04-17T14:51:47Z</time>
      </trkpt>
      <trkpt lat="46.24647" lon="2.47115">
        <ele>376</ele>
        <time>2017-04-17T14:51:50Z</time>
      </trkpt>
      <trkpt lat="46.24643" lon="2.47117">
        <ele>375</ele>
        <time>2017-04-17T14:51:53Z</time>
      </trkpt>
      <trkpt lat="46.2464" lon="2.47119">
        <ele>375</ele>
        <time>2017-04-17T14:51:56Z</time>
      </trkpt>
      <trkpt lat="46.24635" lon="2.47121">
        <ele>375</ele>
        <time>2017-04-17T14:51:59Z</time>
      </trkpt>
      <trkpt lat="46.24632" lon="2.47124">
        <ele>374</ele>
        <time>2017-04-17T14:52:02Z</time>
      </trkpt>
      <trkpt lat="46.24628" lon="2.47126">
        <ele>374</ele>
        <time>2017-04-17T14:52:05Z</time>
      </trkpt>
      <trkpt lat="46.24623" lon="2.47128">
        <ele>374</ele>
        <time>2017-04-17T14:52:08Z</time>
      </trkpt>
      <trkpt lat="46.2462" lon="2.4713">
        <ele>374</ele>
        <time>2017-04-17T14:52:11Z</time>
      </trkpt>
      <trkpt lat="46.24615" lon="2.4713">
        <ele>374</ele>
        <time>2017-04-17T14:52:14Z</time>
      </trkpt>
      <trkpt lat="46.24611" lon="2.47131">
        <ele>374</ele>
        <time>2017-04-17T14:52:17Z</time>
      </trkpt>
      <trkpt lat="46.24606" lon="2.47132">
        <ele>374</ele>
        <time>2017-04-17T14:52:20Z</time>
      </trkpt>
      <trkpt lat="46.24601" lon="2.47132">
        <ele>374</ele>
        <time>2017-04-17T14:52:24Z</time>
      </trkpt>
      <trkpt lat="46.24597" lon="2.47131">
        <ele>374</ele>
        <time>2017-04-17T14:52:27Z</time>
      </trkpt>
      <trkpt lat="46.24593" lon="2.47132">
        <ele>374</ele>
        <time>2017-04-17T14:52:30Z</time>
      </trkpt>
      <trkpt lat="46.24589" lon="2.47132">
        <ele>374</ele>
        <time>2017-04-17T14:52:33Z</time>
      </trkpt>
      <trkpt lat="46.24585" lon="2.47132">
        <ele>374</ele>
        <time>2017-04-17T14:52:36Z</time>
      </trkpt>
      <trkpt lat="46.24581" lon="2.47132">
        <ele>374</ele>
        <time>2017-04-17T14:52:39Z</time>
      </trkpt>
      <trkpt lat="46.24577" lon="2.47131">
        <ele>374</ele>
        <time>2017-04-17T14:52:42Z</time>
      </trkpt>
      <trkpt lat="46.24572" lon="2.47131">
        <ele>374</ele>
        <time>2017-04-17T14:52:45Z</time>
      </trkpt>
      <trkpt lat="46.24568" lon="2.47131">
        <ele>374</ele>
        <time>2017-04-17T14:52:48Z</time>
      </trkpt>
      <trkpt lat="46.24564" lon="2.4713">
        <ele>374</ele>
        <time>2017-04-17T14:52:51Z</time>
      </trkpt>
      <trkpt lat="46.2456" lon="2.47131">
        <ele>374</ele>
        <time>2017-04-17T14:52:54Z</time>
      </trkpt>
      <trkpt lat="46.24556" lon="2.47131">
        <ele>374</ele>
        <time>2017-04-17T14:52:57Z</time>
      </trkpt>
      <trkpt lat="46.24551" lon="2.47132">
        <ele>374</ele>
        <time>2017-04-17T14:53:00Z</time>
      </trkpt>
      <trkpt lat="46.24547" lon="2.47132">
        <ele>374</ele>
        <time>2017-04-17T14:53:03Z</time>
      </trkpt>
      <trkpt lat="46.24542" lon="2.47132">
        <ele>374</ele>
        <time>2017-04-17T14:53:06Z</time>
      </trkpt>
      <trkpt lat="46.24538" lon="2.47133">
        <ele>374</ele>
        <time>2017-04-17T14:53:09Z</time>
      </trkpt>
      <trkpt lat="46.24533" lon="2.47134">
        <ele>374</ele>
        <time>2017-04-17T14:53:12Z</time>
      </trkpt>
      <trkpt lat="46.24529" lon="2.47135">
        <ele>374</ele>
        <time>2017-04-17T14:53:15Z</time>
      </trkpt>
      <trkpt lat="46.24525" lon="2.47136">
        <ele>374</ele>
        <time>2017-04-17T14:53:18Z</time>
      </trkpt>
      <trkpt lat="46.24521" lon="2.47136">
        <ele>374</ele>
        <time>2017-04-17T14:53:21Z</time>
      </trkpt>
      <trkpt lat="46.24517" lon="2.47136">
        <ele>374</ele>
        <time>2017-04-17T14:53:24Z</time>
      </trkpt>
      <trkpt lat="46.24513" lon="2.47137">
        <ele>374</ele>
        <time>2017-04-17T14:53:27Z</time>
      </trkpt>
      <trkpt lat="46.24509" lon="2.47137">
        <ele>374</ele>
        <time>2017-04-17T14:53:30Z</time>
      </trkpt>
      <trkpt lat="46.24504" lon="2.47138">
        <ele>375</ele>
        <time>2017-04-17T14:53:33Z</time>
      </trkpt>
      <trkpt lat="46.245" lon="2.47138">
        <ele>375</ele>
        <time>2017-04-17T14:53:36Z</time>
      </trkpt>
      <trkpt lat="46.24496" lon="2.47139">
        <ele>375</ele>
        <time>2017-04-17T14:53:39Z</time>
      </trkpt>
      <trkpt lat="46.24492" lon="2.47139">
        <ele>375</ele>
        <time>2017-04-17T14:53:42Z</time>
      </trkpt>
      <trkpt lat="46.24488" lon="2.4714">
        <ele>375</ele>
        <time>2017-04-17T14:53:45Z</time>
      </trkpt>
      <trkpt lat="46.24483" lon="2.4714">
        <ele>376</ele>
        <time>2017-04-17T14:53:48Z</time>
      </trkpt>
      <trkpt lat="46.24479" lon="2.4714">
        <ele>377</ele>
        <time>2017-04-17T14:53:51Z</time>
      </trkpt>
      <trkpt lat="46.24475" lon="2.47139">
        <ele>377</ele>
        <time>2017-04-17T14:53:54Z</time>
      </trkpt>
      <trkpt lat="46.24471" lon="2.47139">
        <ele>377</ele>
        <time>2017-04-17T14:53:57Z</time>
      </trkpt>
      <trkpt lat="46.24467" lon="2.47138">
        <ele>377</ele>
        <time>2017-04-17T14:54:00Z</time>
      </trkpt>
      <trkpt lat="46.24463" lon="2.47137">
        <ele>377</ele>
        <time>2017-04-17T14:54:03Z</time>
      </trkpt>
      <trkpt lat="46.24458" lon="2.47137">
        <ele>377</ele>
        <time>2017-04-17T14:54:06Z</time>
      </trkpt>
      <trkpt lat="46.24454" lon="2.47138">
        <ele>378</ele>
        <time>2017-04-17T14:54:09Z</time>
      </trkpt>
      <trkpt lat="46.2445" lon="2.47137">
        <ele>379</ele>
        <time>2017-04-17T14:54:12Z</time>
      </trkpt>
      <trkpt lat="46.24446" lon="2.47137">
        <ele>380</ele>
        <time>2017-04-17T14:54:15Z</time>
      </trkpt>
      <trkpt lat="46.24442" lon="2.47138">
        <ele>380</ele>
        <time>2017-04-17T14:54:18Z</time>
      </trkpt>
      <trkpt lat="46.24438" lon="2.47139">
        <ele>380</ele>
        <time>2017-04-17T14:54:21Z</time>
      </trkpt>
      <trkpt lat="46.24434" lon="2.47138">
        <ele>380</ele>
        <time>2017-04-17T14:54:24Z</time>
      </trkpt>
      <trkpt lat="46.2443" lon="2.47139">
        <ele>380</ele>
        <time>2017-04-17T14:54:27Z</time>
      </trkpt>
      <trkpt lat="46.24425" lon="2.47141">
        <ele>380</ele>
        <time>2017-04-17T14:54:30Z</time>
      </trkpt>
      <trkpt lat="46.24421" lon="2.47142">
        <ele>380</ele>
        <time>2017-04-17T14:54:33Z</time>
      </trkpt>
      <trkpt lat="46.24417" lon="2.47142">
        <ele>380</ele>
        <time>2017-04-17T14:54:36Z</time>
      </trkpt>
      <trkpt lat="46.24413" lon="2.47144">
        <ele>380</ele>
        <time>2017-04-17T14:54:39Z</time>
      </trkpt>
      <trkpt lat="46.24409" lon="2.47145">
        <ele>380</ele>
        <time>2017-04-17T14:54:42Z</time>
      </trkpt>
      <trkpt lat="46.24405" lon="2.47147">
        <ele>380</ele>
        <time>2017-04-17T14:54:45Z</time>
      </trkpt>
      <trkpt lat="46.24401" lon="2.47147">
        <ele>380</ele>
        <time>2017-04-17T14:54:48Z</time>
      </trkpt>
      <trkpt lat="46.24397" lon="2.47149">
        <ele>380</ele>
        <time>2017-04-17T14:54:51Z</time>
      </trkpt>
      <trkpt lat="46.24392" lon="2.4715">
        <ele>380</ele>
        <time>2017-04-17T14:54:54Z</time>
      </trkpt>
      <trkpt lat="46.24389" lon="2.47152">
        <ele>380</ele>
        <time>2017-04-17T14:54:57Z</time>
      </trkpt>
      <trkpt lat="46.24385" lon="2.47152">
        <ele>380</ele>
        <time>2017-04-17T14:55:00Z</time>
      </trkpt>
      <trkpt lat="46.24381" lon="2.47152">
        <ele>380</ele>
        <time>2017-04-17T14:55:03Z</time>
      </trkpt>
      <trkpt lat="46.24377" lon="2.47154">
        <ele>379</ele>
        <time>2017-04-17T14:55:06Z</time>
      </trkpt>
      <trkpt lat="46.24374" lon="2.47155">
        <ele>379</ele>
        <time>2017-04-17T14:55:09Z</time>
      </trkpt>
      <trkpt lat="46.24369" lon="2.47156">
        <ele>378</ele>
        <time>2017-04-17T14:55:12Z</time>
      </trkpt>
      <trkpt lat="46.24364" lon="2.4716">
        <ele>378</ele>
        <time>2017-04-17T14:55:15Z</time>
      </trkpt>
      <trkpt lat="46.2436" lon="2.47162">
        <ele>378</ele>
        <time>2017-04-17T14:55:18Z</time>
      </trkpt>
      <trkpt lat="46.24356" lon="2.47164">
        <ele>378</ele>
        <time>2017-04-17T14:55:21Z</time>
      </trkpt>
      <trkpt lat="46.24352" lon="2.47166">
        <ele>378</ele>
        <time>2017-04-17T14:55:24Z</time>
      </trkpt>
      <trkpt lat="46.24348" lon="2.47167">
        <ele>378</ele>
        <time>2017-04-17T14:55:27Z</time>
      </trkpt>
      <trkpt lat="46.24344" lon="2.47169">
        <ele>378</ele>
        <time>2017-04-17T14:55:30Z</time>
      </trkpt>
      <trkpt lat="46.2434" lon="2.4717">
        <ele>378</ele>
        <time>2017-04-17T14:55:33Z</time>
      </trkpt>
      <trkpt lat="46.24336" lon="2.4717">
        <ele>378</ele>
        <time>2017-04-17T14:55:36Z</time>
      </trkpt>
      <trkpt lat="46.24332" lon="2.47171">
        <ele>378</ele>
        <time>2017-04-17T14:55:39Z</time>
      </trkpt>
      <trkpt lat="46.24328" lon="2.47173">
        <ele>378</ele>
        <time>2017-04-17T14:55:42Z</time>
      </trkpt>
      <trkpt lat="46.24324" lon="2.47174">
        <ele>378</ele>
        <time>2017-04-17T14:55:45Z</time>
      </trkpt>
      <trkpt lat="46.24319" lon="2.47176">
        <ele>378</ele>
        <time>2017-04-17T14:55:48Z</time>
      </trkpt>
      <trkpt lat="46.24314" lon="2.47177">
        <ele>379</ele>
        <time>2017-04-17T14:55:52Z</time>
      </trkpt>
      <trkpt lat="46.24309" lon="2.47177">
        <ele>379</ele>
        <time>2017-04-17T14:55:55Z</time>
      </trkpt>
      <trkpt lat="46.24305" lon="2.47177">
        <ele>379</ele>
        <time>2017-04-17T14:55:58Z</time>
      </trkpt>
      <trkpt lat="46.24301" lon="2.47177">
        <ele>379</ele>
        <time>2017-04-17T14:56:01Z</time>
      </trkpt>
      <trkpt lat="46.24297" lon="2.47177">
        <ele>379</ele>
        <time>2017-04-17T14:56:04Z</time>
      </trkpt>
      <trkpt lat="46.24292" lon="2.47177">
        <ele>379</ele>
        <time>2017-04-17T14:56:08Z</time>
      </trkpt>
      <trkpt lat="46.24286" lon="2.47179">
        <ele>379</ele>
        <time>2017-04-17T14:56:13Z</time>
      </trkpt>
      <trkpt lat="46.24281" lon="2.47182">
        <ele>379</ele>
        <time>2017-04-17T14:56:17Z</time>
      </trkpt>
      <trkpt lat="46.24277" lon="2.47184">
        <ele>379</ele>
        <time>2017-04-17T14:56:20Z</time>
      </trkpt>
      <trkpt lat="46.24273" lon="2.47185">
        <ele>379</ele>
        <time>2017-04-17T14:56:23Z</time>
      </trkpt>
      <trkpt lat="46.24269" lon="2.47186">
        <ele>379</ele>
        <time>2017-04-17T14:56:26Z</time>
      </trkpt>
      <trkpt lat="46.24265" lon="2.47188">
        <ele>379</ele>
        <time>2017-04-17T14:56:29Z</time>
      </trkpt>
      <trkpt lat="46.24261" lon="2.47191">
        <ele>379</ele>
        <time>2017-04-17T14:56:32Z</time>
      </trkpt>
      <trkpt lat="46.24257" lon="2.47193">
        <ele>379</ele>
        <time>2017-04-17T14:56:35Z</time>
      </trkpt>
      <trkpt lat="46.24253" lon="2.47195">
        <ele>379</ele>
        <time>2017-04-17T14:56:38Z</time>
      </trkpt>
      <trkpt lat="46.24249" lon="2.47196">
        <ele>379</ele>
        <time>2017-04-17T14:56:41Z</time>
      </trkpt>
      <trkpt lat="46.24245" lon="2.47198">
        <ele>379</ele>
        <time>2017-04-17T14:56:44Z</time>
      </trkpt>
      <trkpt lat="46.2424" lon="2.472">
        <ele>379</ele>
        <time>2017-04-17T14:56:48Z</time>
      </trkpt>
      <trkpt lat="46.24235" lon="2.47203">
        <ele>379</ele>
        <time>2017-04-17T14:56:52Z</time>
      </trkpt>
      <trkpt lat="46.24231" lon="2.47205">
        <ele>379</ele>
        <time>2017-04-17T14:56:55Z</time>
      </trkpt>
      <trkpt lat="46.24227" lon="2.47207">
        <ele>379</ele>
        <time>2017-04-17T14:56:58Z</time>
      </trkpt>
      <trkpt lat="46.24223" lon="2.4721">
        <ele>379</ele>
        <time>2017-04-17T14:57:01Z</time>
      </trkpt>
      <trkpt lat="46.24219" lon="2.47213">
        <ele>379</ele>
        <time>2017-04-17T14:57:04Z</time>
      </trkpt>
      <trkpt lat="46.24214" lon="2.47217">
        <ele>379</ele>
        <time>2017-04-17T14:57:08Z</time>
      </trkpt>
      <trkpt lat="46.24209" lon="2.4722">
        <ele>379</ele>
        <time>2017-04-17T14:57:12Z</time>
      </trkpt>
      <trkpt lat="46.24203" lon="2.47224">
        <ele>379</ele>
        <time>2017-04-17T14:57:16Z</time>
      </trkpt>
      <trkpt lat="46.24198" lon="2.47227">
        <ele>379</ele>
        <time>2017-04-17T14:57:20Z</time>
      </trkpt>
      <trkpt lat="46.24193" lon="2.4723">
        <ele>379</ele>
        <time>2017-04-17T14:57:24Z</time>
      </trkpt>
      <trkpt lat="46.24189" lon="2.47232">
        <ele>379</ele>
        <time>2017-04-17T14:57:27Z</time>
      </trkpt>
      <trkpt lat="46.24186" lon="2.47235">
        <ele>379</ele>
        <time>2017-04-17T14:57:30Z</time>
      </trkpt>
      <trkpt lat="46.24181" lon="2.47238">
        <ele>379</ele>
        <time>2017-04-17T14:57:34Z</time>
      </trkpt>
      <trkpt lat="46.24176" lon="2.47242">
        <ele>379</ele>
        <time>2017-04-17T14:57:38Z</time>
      </trkpt>
      <trkpt lat="46.24173" lon="2.47246">
        <ele>379</ele>
        <time>2017-04-17T14:57:41Z</time>
      </trkpt>
      <trkpt lat="46.24169" lon="2.47249">
        <ele>379</ele>
        <time>2017-04-17T14:57:44Z</time>
      </trkpt>
      <trkpt lat="46.24165" lon="2.47254">
        <ele>379</ele>
        <time>2017-04-17T14:57:48Z</time>
      </trkpt>
      <trkpt lat="46.24162" lon="2.47259">
        <ele>379</ele>
        <time>2017-04-17T14:57:52Z</time>
      </trkpt>
      <trkpt lat="46.24158" lon="2.47262">
        <ele>380</ele>
        <time>2017-04-17T14:57:55Z</time>
      </trkpt>
      <trkpt lat="46.24155" lon="2.47266">
        <ele>380</ele>
        <time>2017-04-17T14:57:58Z</time>
      </trkpt>
      <trkpt lat="46.24152" lon="2.4727">
        <ele>380</ele>
        <time>2017-04-17T14:58:01Z</time>
      </trkpt>
      <trkpt lat="46.24147" lon="2.47275">
        <ele>381</ele>
        <time>2017-04-17T14:58:05Z</time>
      </trkpt>
      <trkpt lat="46.24143" lon="2.4728">
        <ele>381</ele>
        <time>2017-04-17T14:58:09Z</time>
      </trkpt>
      <trkpt lat="46.24139" lon="2.47284">
        <ele>382</ele>
        <time>2017-04-17T14:58:12Z</time>
      </trkpt>
      <trkpt lat="46.24135" lon="2.47288">
        <ele>382</ele>
        <time>2017-04-17T14:58:16Z</time>
      </trkpt>
      <trkpt lat="46.24132" lon="2.47292">
        <ele>382</ele>
        <time>2017-04-17T14:58:19Z</time>
      </trkpt>
      <trkpt lat="46.24128" lon="2.47296">
        <ele>382</ele>
        <time>2017-04-17T14:58:22Z</time>
      </trkpt>
      <trkpt lat="46.24125" lon="2.473">
        <ele>382</ele>
        <time>2017-04-17T14:58:25Z</time>
      </trkpt>
      <trkpt lat="46.2412" lon="2.47305">
        <ele>382</ele>
        <time>2017-04-17T14:58:29Z</time>
      </trkpt>
      <trkpt lat="46.24116" lon="2.4731">
        <ele>382</ele>
        <time>2017-04-17T14:58:33Z</time>
      </trkpt>
      <trkpt lat="46.24113" lon="2.47315">
        <ele>382</ele>
        <time>2017-04-17T14:58:36Z</time>
      </trkpt>
      <trkpt lat="46.24109" lon="2.47319">
        <ele>382</ele>
        <time>2017-04-17T14:58:39Z</time>
      </trkpt>
      <trkpt lat="46.24105" lon="2.47324">
        <ele>382</ele>
        <time>2017-04-17T14:58:42Z</time>
      </trkpt>
      <trkpt lat="46.24102" lon="2.47328">
        <ele>382</ele>
        <time>2017-04-17T14:58:45Z</time>
      </trkpt>
      <trkpt lat="46.24099" lon="2.47331">
        <ele>382</ele>
        <time>2017-04-17T14:58:48Z</time>
      </trkpt>
      <trkpt lat="46.24094" lon="2.47337">
        <ele>382</ele>
        <time>2017-04-17T14:58:52Z</time>
      </trkpt>
      <trkpt lat="46.24091" lon="2.47343">
        <ele>382</ele>
        <time>2017-04-17T14:58:56Z</time>
      </trkpt>
      <trkpt lat="46.24088" lon="2.47348">
        <ele>382</ele>
        <time>2017-04-17T14:58:59Z</time>
      </trkpt>
      <trkpt lat="46.24084" lon="2.47352">
        <ele>382</ele>
        <time>2017-04-17T14:59:02Z</time>
      </trkpt>
      <trkpt lat="46.24082" lon="2.47357">
        <ele>382</ele>
        <time>2017-04-17T14:59:05Z</time>
      </trkpt>
      <trkpt lat="46.2408" lon="2.47362">
        <ele>382</ele>
        <time>2017-04-17T14:59:08Z</time>
      </trkpt>
      <trkpt lat="46.24078" lon="2.47366">
        <ele>382</ele>
        <time>2017-04-17T14:59:11Z</time>
      </trkpt>
      <trkpt lat="46.24075" lon="2.47372">
        <ele>382</ele>
        <time>2017-04-17T14:59:14Z</time>
      </trkpt>
      <trkpt lat="46.24073" lon="2.47377">
        <ele>382</ele>
        <time>2017-04-17T14:59:17Z</time>
      </trkpt>
      <trkpt lat="46.24071" lon="2.47382">
        <ele>382</ele>
        <time>2017-04-17T14:59:20Z</time>
      </trkpt>
      <trkpt lat="46.24068" lon="2.47387">
        <ele>382</ele>
        <time>2017-04-17T14:59:23Z</time>
      </trkpt>
      <trkpt lat="46.24064" lon="2.47393">
        <ele>382</ele>
        <time>2017-04-17T14:59:27Z</time>
      </trkpt>
      <trkpt lat="46.24061" lon="2.47399">
        <ele>382</ele>
        <time>2017-04-17T14:59:31Z</time>
      </trkpt>
      <trkpt lat="46.24057" lon="2.47404">
        <ele>382</ele>
        <time>2017-04-17T14:59:35Z</time>
      </trkpt>
      <trkpt lat="46.24053" lon="2.47408">
        <ele>382</ele>
        <time>2017-04-17T14:59:39Z</time>
      </trkpt>
      <trkpt lat="46.24049" lon="2.47411">
        <ele>382</ele>
        <time>2017-04-17T14:59:42Z</time>
      </trkpt>
      <trkpt lat="46.24045" lon="2.47413">
        <ele>382</ele>
        <time>2017-04-17T14:59:45Z</time>
      </trkpt>
      <trkpt lat="46.24041" lon="2.47416">
        <ele>382</ele>
        <time>2017-04-17T14:59:48Z</time>
      </trkpt>
      <trkpt lat="46.24037" lon="2.47419">
        <ele>382</ele>
        <time>2017-04-17T14:59:51Z</time>
      </trkpt>
      <trkpt lat="46.24034" lon="2.47421">
        <ele>382</ele>
        <time>2017-04-17T14:59:54Z</time>
      </trkpt>
      <trkpt lat="46.24033" lon="2.47422">
        <ele>382</ele>
        <time>2017-04-17T14:59:57Z</time>
      </trkpt>
      <trkpt lat="46.24029" lon="2.47425">
        <ele>382</ele>
        <time>2017-04-17T15:00:00Z</time>
      </trkpt>
      <trkpt lat="46.24026" lon="2.47429">
        <ele>382</ele>
        <time>2017-04-17T15:00:03Z</time>
      </trkpt>
      <trkpt lat="46.24022" lon="2.47434">
        <ele>382</ele>
        <time>2017-04-17T15:00:07Z</time>
      </trkpt>
      <trkpt lat="46.24019" lon="2.47438">
        <ele>382</ele>
        <time>2017-04-17T15:00:10Z</time>
      </trkpt>
      <trkpt lat="46.24015" lon="2.47444">
        <ele>382</ele>
        <time>2017-04-17T15:00:14Z</time>
      </trkpt>
      <trkpt lat="46.24011" lon="2.47448">
        <ele>382</ele>
        <time>2017-04-17T15:00:17Z</time>
      </trkpt>
      <trkpt lat="46.24007" lon="2.47453">
        <ele>382</ele>
        <time>2017-04-17T15:00:21Z</time>
      </trkpt>
      <trkpt lat="46.24004" lon="2.47458">
        <ele>382</ele>
        <time>2017-04-17T15:00:25Z</time>
      </trkpt>
      <trkpt lat="46.24" lon="2.47463">
        <ele>382</ele>
        <time>2017-04-17T15:00:29Z</time>
      </trkpt>
      <trkpt lat="46.23996" lon="2.47466">
        <ele>382</ele>
        <time>2017-04-17T15:00:32Z</time>
      </trkpt>
      <trkpt lat="46.23993" lon="2.4747">
        <ele>382</ele>
        <time>2017-04-17T15:00:35Z</time>
      </trkpt>
      <trkpt lat="46.23989" lon="2.47473">
        <ele>382</ele>
        <time>2017-04-17T15:00:38Z</time>
      </trkpt>
      <trkpt lat="46.23986" lon="2.47476">
        <ele>381</ele>
        <time>2017-04-17T15:00:41Z</time>
      </trkpt>
      <trkpt lat="46.23982" lon="2.4748">
        <ele>381</ele>
        <time>2017-04-17T15:00:44Z</time>
      </trkpt>
      <trkpt lat="46.23979" lon="2.47484">
        <ele>381</ele>
        <time>2017-04-17T15:00:47Z</time>
      </trkpt>
      <trkpt lat="46.23975" lon="2.47488">
        <ele>381</ele>
        <time>2017-04-17T15:00:50Z</time>
      </trkpt>
      <trkpt lat="46.23972" lon="2.47492">
        <ele>381</ele>
        <time>2017-04-17T15:00:53Z</time>
      </trkpt>
      <trkpt lat="46.23968" lon="2.47497">
        <ele>381</ele>
        <time>2017-04-17T15:00:56Z</time>
      </trkpt>
      <trkpt lat="46.23965" lon="2.475">
        <ele>381</ele>
        <time>2017-04-17T15:00:59Z</time>
      </trkpt>
      <trkpt lat="46.23963" lon="2.47504">
        <ele>381</ele>
        <time>2017-04-17T15:01:02Z</time>
      </trkpt>
      <trkpt lat="46.23961" lon="2.47509">
        <ele>381</ele>
        <time>2017-04-17T15:01:05Z</time>
      </trkpt>
      <trkpt lat="46.23959" lon="2.47515">
        <ele>381</ele>
        <time>2017-04-17T15:01:08Z</time>
      </trkpt>
      <trkpt lat="46.23957" lon="2.4752">
        <ele>381</ele>
        <time>2017-04-17T15:01:11Z</time>
      </trkpt>
      <trkpt lat="46.23956" lon="2.47527">
        <ele>381</ele>
        <time>2017-04-17T15:01:14Z</time>
      </trkpt>
      <trkpt lat="46.23954" lon="2.47534">
        <ele>381</ele>
        <time>2017-04-17T15:01:17Z</time>
      </trkpt>
      <trkpt lat="46.23951" lon="2.47538">
        <ele>381</ele>
        <time>2017-04-17T15:01:20Z</time>
      </trkpt>
      <trkpt lat="46.23949" lon="2.47544">
        <ele>381</ele>
        <time>2017-04-17T15:01:23Z</time>
      </trkpt>
      <trkpt lat="46.23947" lon="2.4755">
        <ele>380</ele>
        <time>2017-04-17T15:01:26Z</time>
      </trkpt>
      <trkpt lat="46.23945" lon="2.47554">
        <ele>380</ele>
        <time>2017-04-17T15:01:29Z</time>
      </trkpt>
      <trkpt lat="46.23942" lon="2.47561">
        <ele>380</ele>
        <time>2017-04-17T15:01:33Z</time>
      </trkpt>
      <trkpt lat="46.23939" lon="2.47567">
        <ele>380</ele>
        <time>2017-04-17T15:01:36Z</time>
      </trkpt>
      <trkpt lat="46.23938" lon="2.47571">
        <ele>380</ele>
        <time>2017-04-17T15:01:39Z</time>
      </trkpt>
      <trkpt lat="46.23934" lon="2.47578">
        <ele>380</ele>
        <time>2017-04-17T15:01:43Z</time>
      </trkpt>
      <trkpt lat="46.23931" lon="2.47582">
        <ele>380</ele>
        <time>2017-04-17T15:01:46Z</time>
      </trkpt>
      <trkpt lat="46.23928" lon="2.4759">
        <ele>380</ele>
        <time>2017-04-17T15:01:50Z</time>
      </trkpt>
      <trkpt lat="46.23926" lon="2.47595">
        <ele>380</ele>
        <time>2017-04-17T15:01:53Z</time>
      </trkpt>
      <trkpt lat="46.23923" lon="2.476">
        <ele>380</ele>
        <time>2017-04-17T15:01:56Z</time>
      </trkpt>
      <trkpt lat="46.23921" lon="2.47605">
        <ele>380</ele>
        <time>2017-04-17T15:01:59Z</time>
      </trkpt>
      <trkpt lat="46.23918" lon="2.4761">
        <ele>379</ele>
        <time>2017-04-17T15:02:02Z</time>
      </trkpt>
      <trkpt lat="46.23914" lon="2.47614">
        <ele>378</ele>
        <time>2017-04-17T15:02:05Z</time>
      </trkpt>
      <trkpt lat="46.23911" lon="2.47617">
        <ele>378</ele>
        <time>2017-04-17T15:02:08Z</time>
      </trkpt>
      <trkpt lat="46.23907" lon="2.47621">
        <ele>378</ele>
        <time>2017-04-17T15:02:11Z</time>
      </trkpt>
      <trkpt lat="46.23904" lon="2.47625">
        <ele>378</ele>
        <time>2017-04-17T15:02:14Z</time>
      </trkpt>
      <trkpt lat="46.239" lon="2.47629">
        <ele>378</ele>
        <time>2017-04-17T15:02:17Z</time>
      </trkpt>
      <trkpt lat="46.23896" lon="2.47632">
        <ele>378</ele>
        <time>2017-04-17T15:02:20Z</time>
      </trkpt>
      <trkpt lat="46.23893" lon="2.47636">
        <ele>378</ele>
        <time>2017-04-17T15:02:23Z</time>
      </trkpt>
      <trkpt lat="46.23889" lon="2.47638">
        <ele>378</ele>
        <time>2017-04-17T15:02:26Z</time>
      </trkpt>
      <trkpt lat="46.23885" lon="2.47638">
        <ele>378</ele>
        <time>2017-04-17T15:02:30Z</time>
      </trkpt>
      <trkpt lat="46.23883" lon="2.4764">
        <ele>378</ele>
        <time>2017-04-17T15:02:38Z</time>
      </trkpt>
      <trkpt lat="46.2388" lon="2.47642">
        <ele>378</ele>
        <time>2017-04-17T15:02:41Z</time>
      </trkpt>
      <trkpt lat="46.23875" lon="2.47644">
        <ele>378</ele>
        <time>2017-04-17T15:02:45Z</time>
      </trkpt>
      <trkpt lat="46.23872" lon="2.47645">
        <ele>378</ele>
        <time>2017-04-17T15:02:48Z</time>
      </trkpt>
      <trkpt lat="46.2387" lon="2.47646">
        <ele>378</ele>
        <time>2017-04-17T15:02:51Z</time>
      </trkpt>
      <trkpt lat="46.23867" lon="2.47649">
        <ele>378</ele>
        <time>2017-04-17T15:02:55Z</time>
      </trkpt>
      <trkpt lat="46.23863" lon="2.47652">
        <ele>378</ele>
        <time>2017-04-17T15:02:59Z</time>
      </trkpt>
      <trkpt lat="46.23859" lon="2.47655">
        <ele>378</ele>
        <time>2017-04-17T15:03:03Z</time>
      </trkpt>
      <trkpt lat="46.23857" lon="2.47658">
        <ele>378</ele>
        <time>2017-04-17T15:03:09Z</time>
      </trkpt>
      <trkpt lat="46.23853" lon="2.47661">
        <ele>378</ele>
        <time>2017-04-17T15:03:13Z</time>
      </trkpt>
      <trkpt lat="46.23849" lon="2.47665">
        <ele>378</ele>
        <time>2017-04-17T15:03:16Z</time>
      </trkpt>
      <trkpt lat="46.23846" lon="2.47668">
        <ele>379</ele>
        <time>2017-04-17T15:03:19Z</time>
      </trkpt>
      <trkpt lat="46.23843" lon="2.4767">
        <ele>379</ele>
        <time>2017-04-17T15:03:22Z</time>
      </trkpt>
      <trkpt lat="46.23839" lon="2.47673">
        <ele>379</ele>
        <time>2017-04-17T15:03:26Z</time>
      </trkpt>
      <trkpt lat="46.23835" lon="2.47677">
        <ele>379</ele>
        <time>2017-04-17T15:03:30Z</time>
      </trkpt>
      <trkpt lat="46.23831" lon="2.47679">
        <ele>379</ele>
        <time>2017-04-17T15:03:35Z</time>
      </trkpt>
      <trkpt lat="46.23827" lon="2.47682">
        <ele>379</ele>
        <time>2017-04-17T15:03:38Z</time>
      </trkpt>
      <trkpt lat="46.23822" lon="2.47685">
        <ele>379</ele>
        <time>2017-04-17T15:03:42Z</time>
      </trkpt>
      <trkpt lat="46.23818" lon="2.47691">
        <ele>379</ele>
        <time>2017-04-17T15:03:47Z</time>
      </trkpt>
      <trkpt lat="46.23816" lon="2.47693">
        <ele>379</ele>
        <time>2017-04-17T15:03:50Z</time>
      </trkpt>
      <trkpt lat="46.23813" lon="2.47695">
        <ele>379</ele>
        <time>2017-04-17T15:03:54Z</time>
      </trkpt>
      <trkpt lat="46.23808" lon="2.47698">
        <ele>379</ele>
        <time>2017-04-17T15:03:59Z</time>
      </trkpt>
      <trkpt lat="46.23804" lon="2.47699">
        <ele>379</ele>
        <time>2017-04-17T15:04:02Z</time>
      </trkpt>
      <trkpt lat="46.23801" lon="2.47698">
        <ele>379</ele>
        <time>2017-04-17T15:04:05Z</time>
      </trkpt>
      <trkpt lat="46.23797" lon="2.47698">
        <ele>379</ele>
        <time>2017-04-17T15:04:09Z</time>
      </trkpt>
      <trkpt lat="46.23793" lon="2.47698">
        <ele>379</ele>
        <time>2017-04-17T15:04:12Z</time>
      </trkpt>
      <trkpt lat="46.23789" lon="2.47696">
        <ele>379</ele>
        <time>2017-04-17T15:04:16Z</time>
      </trkpt>
      <trkpt lat="46.23785" lon="2.47694">
        <ele>379</ele>
        <time>2017-04-17T15:04:19Z</time>
      </trkpt>
      <trkpt lat="46.23782" lon="2.47693">
        <ele>379</ele>
        <time>2017-04-17T15:04:22Z</time>
      </trkpt>
      <trkpt lat="46.23778" lon="2.47691">
        <ele>379</ele>
        <time>2017-04-17T15:04:26Z</time>
      </trkpt>
      <trkpt lat="46.23773" lon="2.4769">
        <ele>379</ele>
        <time>2017-04-17T15:04:30Z</time>
      </trkpt>
      <trkpt lat="46.23768" lon="2.4769">
        <ele>379</ele>
        <time>2017-04-17T15:04:34Z</time>
      </trkpt>
      <trkpt lat="46.23764" lon="2.47687">
        <ele>380</ele>
        <time>2017-04-17T15:04:38Z</time>
      </trkpt>
      <trkpt lat="46.2376" lon="2.47686">
        <ele>380</ele>
        <time>2017-04-17T15:04:41Z</time>
      </trkpt>
      <trkpt lat="46.23756" lon="2.47686">
        <ele>380</ele>
        <time>2017-04-17T15:04:44Z</time>
      </trkpt>
      <trkpt lat="46.23751" lon="2.47684">
        <ele>380</ele>
        <time>2017-04-17T15:04:48Z</time>
      </trkpt>
      <trkpt lat="46.23748" lon="2.47684">
        <ele>380</ele>
        <time>2017-04-17T15:04:51Z</time>
      </trkpt>
      <trkpt lat="46.23745" lon="2.47683">
        <ele>380</ele>
        <time>2017-04-17T15:04:54Z</time>
      </trkpt>
      <trkpt lat="46.23742" lon="2.47682">
        <ele>380</ele>
        <time>2017-04-17T15:04:57Z</time>
      </trkpt>
      <trkpt lat="46.23738" lon="2.4768">
        <ele>380</ele>
        <time>2017-04-17T15:05:01Z</time>
      </trkpt>
      <trkpt lat="46.23735" lon="2.4768">
        <ele>381</ele>
        <time>2017-04-17T15:05:05Z</time>
      </trkpt>
      <trkpt lat="46.23729" lon="2.47677">
        <ele>382</ele>
        <time>2017-04-17T15:05:09Z</time>
      </trkpt>
      <trkpt lat="46.23726" lon="2.47675">
        <ele>382</ele>
        <time>2017-04-17T15:05:12Z</time>
      </trkpt>
      <trkpt lat="46.23722" lon="2.47674">
        <ele>383</ele>
        <time>2017-04-17T15:05:16Z</time>
      </trkpt>
      <trkpt lat="46.23717" lon="2.47671">
        <ele>383</ele>
        <time>2017-04-17T15:05:20Z</time>
      </trkpt>
      <trkpt lat="46.23714" lon="2.4767">
        <ele>383</ele>
        <time>2017-04-17T15:05:23Z</time>
      </trkpt>
      <trkpt lat="46.23711" lon="2.47668">
        <ele>383</ele>
        <time>2017-04-17T15:05:26Z</time>
      </trkpt>
      <trkpt lat="46.23707" lon="2.47665">
        <ele>383</ele>
        <time>2017-04-17T15:05:30Z</time>
      </trkpt>
      <trkpt lat="46.23703" lon="2.47663">
        <ele>383</ele>
        <time>2017-04-17T15:05:33Z</time>
      </trkpt>
      <trkpt lat="46.23698" lon="2.4766">
        <ele>383</ele>
        <time>2017-04-17T15:05:37Z</time>
      </trkpt>
      <trkpt lat="46.23695" lon="2.47658">
        <ele>383</ele>
        <time>2017-04-17T15:05:40Z</time>
      </trkpt>
      <trkpt lat="46.23691" lon="2.47657">
        <ele>383</ele>
        <time>2017-04-17T15:05:43Z</time>
      </trkpt>
      <trkpt lat="46.23688" lon="2.47656">
        <ele>384</ele>
        <time>2017-04-17T15:05:46Z</time>
      </trkpt>
      <trkpt lat="46.23684" lon="2.47654">
        <ele>385</ele>
        <time>2017-04-17T15:05:49Z</time>
      </trkpt>
      <trkpt lat="46.2368" lon="2.47654">
        <ele>386</ele>
        <time>2017-04-17T15:05:52Z</time>
      </trkpt>
      <trkpt lat="46.23676" lon="2.47654">
        <ele>386</ele>
        <time>2017-04-17T15:05:55Z</time>
      </trkpt>
      <trkpt lat="46.23671" lon="2.47654">
        <ele>386</ele>
        <time>2017-04-17T15:05:58Z</time>
      </trkpt>
      <trkpt lat="46.23667" lon="2.47655">
        <ele>387</ele>
        <time>2017-04-17T15:06:01Z</time>
      </trkpt>
      <trkpt lat="46.23663" lon="2.47655">
        <ele>387</ele>
        <time>2017-04-17T15:06:04Z</time>
      </trkpt>
      <trkpt lat="46.23657" lon="2.47657">
        <ele>387</ele>
        <time>2017-04-17T15:06:09Z</time>
      </trkpt>
      <trkpt lat="46.23652" lon="2.47659">
        <ele>387</ele>
        <time>2017-04-17T15:06:13Z</time>
      </trkpt>
      <trkpt lat="46.23647" lon="2.4766">
        <ele>387</ele>
        <time>2017-04-17T15:06:16Z</time>
      </trkpt>
      <trkpt lat="46.23643" lon="2.47661">
        <ele>387</ele>
        <time>2017-04-17T15:06:19Z</time>
      </trkpt>
      <trkpt lat="46.23638" lon="2.47663">
        <ele>387</ele>
        <time>2017-04-17T15:06:23Z</time>
      </trkpt>
      <trkpt lat="46.23634" lon="2.47664">
        <ele>387</ele>
        <time>2017-04-17T15:06:26Z</time>
      </trkpt>
      <trkpt lat="46.2363" lon="2.47666">
        <ele>387</ele>
        <time>2017-04-17T15:06:29Z</time>
      </trkpt>
      <trkpt lat="46.23626" lon="2.47667">
        <ele>388</ele>
        <time>2017-04-17T15:06:32Z</time>
      </trkpt>
      <trkpt lat="46.23621" lon="2.47667">
        <ele>388</ele>
        <time>2017-04-17T15:06:37Z</time>
      </trkpt>
      <trkpt lat="46.23618" lon="2.47666">
        <ele>388</ele>
        <time>2017-04-17T15:06:41Z</time>
      </trkpt>
      <trkpt lat="46.23616" lon="2.4767">
        <ele>388</ele>
        <time>2017-04-17T15:06:45Z</time>
      </trkpt>
      <trkpt lat="46.23613" lon="2.47674">
        <ele>388</ele>
        <time>2017-04-17T15:06:49Z</time>
      </trkpt>
      <trkpt lat="46.23609" lon="2.47678">
        <ele>388</ele>
        <time>2017-04-17T15:06:53Z</time>
      </trkpt>
      <trkpt lat="46.23608" lon="2.47683">
        <ele>388</ele>
        <time>2017-04-17T15:06:57Z</time>
      </trkpt>
      <trkpt lat="46.23612" lon="2.47686">
        <ele>388</ele>
        <time>2017-04-17T15:07:01Z</time>
      </trkpt>
      <trkpt lat="46.23617" lon="2.47688">
        <ele>388</ele>
        <time>2017-04-17T15:07:04Z</time>
      </trkpt>
      <trkpt lat="46.23621" lon="2.4769">
        <ele>388</ele>
        <time>2017-04-17T15:07:07Z</time>
      </trkpt>
      <trkpt lat="46.23626" lon="2.47693">
        <ele>388</ele>
        <time>2017-04-17T15:07:11Z</time>
      </trkpt>
      <trkpt lat="46.2363" lon="2.47695">
        <ele>388</ele>
        <time>2017-04-17T15:07:14Z</time>
      </trkpt>
      <trkpt lat="46.23634" lon="2.47697">
        <ele>388</ele>
        <time>2017-04-17T15:07:17Z</time>
      </trkpt>
      <trkpt lat="46.23637" lon="2.47698">
        <ele>388</ele>
        <time>2017-04-17T15:07:20Z</time>
      </trkpt>
      <trkpt lat="46.23642" lon="2.47701">
        <ele>388</ele>
        <time>2017-04-17T15:07:24Z</time>
      </trkpt>
      <trkpt lat="46.23647" lon="2.47703">
        <ele>388</ele>
        <time>2017-04-17T15:07:27Z</time>
      </trkpt>
      <trkpt lat="46.23652" lon="2.47705">
        <ele>387</ele>
        <time>2017-04-17T15:07:31Z</time>
      </trkpt>
      <trkpt lat="46.23656" lon="2.47707">
        <ele>387</ele>
        <time>2017-04-17T15:07:34Z</time>
      </trkpt>
      <trkpt lat="46.23661" lon="2.47709">
        <ele>387</ele>
        <time>2017-04-17T15:07:37Z</time>
      </trkpt>
      <trkpt lat="46.23666" lon="2.47712">
        <ele>387</ele>
        <time>2017-04-17T15:07:41Z</time>
      </trkpt>
      <trkpt lat="46.2367" lon="2.47714">
        <ele>387</ele>
        <time>2017-04-17T15:07:44Z</time>
      </trkpt>
      <trkpt lat="46.23674" lon="2.47716">
        <ele>387</ele>
        <time>2017-04-17T15:07:47Z</time>
      </trkpt>
      <trkpt lat="46.2368" lon="2.4772">
        <ele>387</ele>
        <time>2017-04-17T15:07:51Z</time>
      </trkpt>
      <trkpt lat="46.23684" lon="2.47722">
        <ele>387</ele>
        <time>2017-04-17T15:07:54Z</time>
      </trkpt>
      <trkpt lat="46.23688" lon="2.47724">
        <ele>387</ele>
        <time>2017-04-17T15:07:57Z</time>
      </trkpt>
      <trkpt lat="46.23694" lon="2.47726">
        <ele>387</ele>
        <time>2017-04-17T15:08:01Z</time>
      </trkpt>
      <trkpt lat="46.23698" lon="2.47728">
        <ele>387</ele>
        <time>2017-04-17T15:08:04Z</time>
      </trkpt>
      <trkpt lat="46.23703" lon="2.4773">
        <ele>387</ele>
        <time>2017-04-17T15:08:07Z</time>
      </trkpt>
      <trkpt lat="46.23708" lon="2.47733">
        <ele>387</ele>
        <time>2017-04-17T15:08:11Z</time>
      </trkpt>
      <trkpt lat="46.23712" lon="2.47735">
        <ele>387</ele>
        <time>2017-04-17T15:08:14Z</time>
      </trkpt>
      <trkpt lat="46.23717" lon="2.47737">
        <ele>387</ele>
        <time>2017-04-17T15:08:17Z</time>
      </trkpt>
      <trkpt lat="46.23721" lon="2.47739">
        <ele>387</ele>
        <time>2017-04-17T15:08:20Z</time>
      </trkpt>
      <trkpt lat="46.23727" lon="2.47741">
        <ele>387</ele>
        <time>2017-04-17T15:08:24Z</time>
      </trkpt>
      <trkpt lat="46.2373" lon="2.47743">
        <ele>387</ele>
        <time>2017-04-17T15:08:27Z</time>
      </trkpt>
      <trkpt lat="46.23735" lon="2.47744">
        <ele>386</ele>
        <time>2017-04-17T15:08:30Z</time>
      </trkpt>
      <trkpt lat="46.23739" lon="2.47746">
        <ele>386</ele>
        <time>2017-04-17T15:08:33Z</time>
      </trkpt>
      <trkpt lat="46.23744" lon="2.47749">
        <ele>385</ele>
        <time>2017-04-17T15:08:37Z</time>
      </trkpt>
      <trkpt lat="46.23748" lon="2.47751">
        <ele>385</ele>
        <time>2017-04-17T15:08:40Z</time>
      </trkpt>
      <trkpt lat="46.23752" lon="2.47753">
        <ele>385</ele>
        <time>2017-04-17T15:08:43Z</time>
      </trkpt>
      <trkpt lat="46.23756" lon="2.47756">
        <ele>385</ele>
        <time>2017-04-17T15:08:46Z</time>
      </trkpt>
      <trkpt lat="46.23761" lon="2.47759">
        <ele>385</ele>
        <time>2017-04-17T15:08:50Z</time>
      </trkpt>
      <trkpt lat="46.23765" lon="2.4776">
        <ele>384</ele>
        <time>2017-04-17T15:08:53Z</time>
      </trkpt>
      <trkpt lat="46.23769" lon="2.47762">
        <ele>384</ele>
        <time>2017-04-17T15:08:56Z</time>
      </trkpt>
      <trkpt lat="46.23774" lon="2.47764">
        <ele>384</ele>
        <time>2017-04-17T15:08:59Z</time>
      </trkpt>
      <trkpt lat="46.23778" lon="2.47766">
        <ele>384</ele>
        <time>2017-04-17T15:09:02Z</time>
      </trkpt>
      <trkpt lat="46.23783" lon="2.47768">
        <ele>384</ele>
        <time>2017-04-17T15:09:06Z</time>
      </trkpt>
      <trkpt lat="46.23787" lon="2.47771">
        <ele>384</ele>
        <time>2017-04-17T15:09:09Z</time>
      </trkpt>
      <trkpt lat="46.23791" lon="2.47773">
        <ele>384</ele>
        <time>2017-04-17T15:09:12Z</time>
      </trkpt>
      <trkpt lat="46.23796" lon="2.47776">
        <ele>384</ele>
        <time>2017-04-17T15:09:16Z</time>
      </trkpt>
      <trkpt lat="46.238" lon="2.47778">
        <ele>384</ele>
        <time>2017-04-17T15:09:19Z</time>
      </trkpt>
      <trkpt lat="46.23804" lon="2.4778">
        <ele>384</ele>
        <time>2017-04-17T15:09:22Z</time>
      </trkpt>
      <trkpt lat="46.2381" lon="2.47783">
        <ele>384</ele>
        <time>2017-04-17T15:09:26Z</time>
      </trkpt>
      <trkpt lat="46.23814" lon="2.47785">
        <ele>384</ele>
        <time>2017-04-17T15:09:29Z</time>
      </trkpt>
      <trkpt lat="46.23818" lon="2.47786">
        <ele>384</ele>
        <time>2017-04-17T15:09:32Z</time>
      </trkpt>
      <trkpt lat="46.23824" lon="2.47788">
        <ele>383</ele>
        <time>2017-04-17T15:09:36Z</time>
      </trkpt>
      <trkpt lat="46.23827" lon="2.4779">
        <ele>382</ele>
        <time>2017-04-17T15:09:39Z</time>
      </trkpt>
      <trkpt lat="46.23832" lon="2.47792">
        <ele>382</ele>
        <time>2017-04-17T15:09:42Z</time>
      </trkpt>
      <trkpt lat="46.23836" lon="2.47794">
        <ele>382</ele>
        <time>2017-04-17T15:09:45Z</time>
      </trkpt>
      <trkpt lat="46.23841" lon="2.47797">
        <ele>382</ele>
        <time>2017-04-17T15:09:49Z</time>
      </trkpt>
      <trkpt lat="46.23846" lon="2.47799">
        <ele>382</ele>
        <time>2017-04-17T15:09:52Z</time>
      </trkpt>
      <trkpt lat="46.2385" lon="2.478">
        <ele>382</ele>
        <time>2017-04-17T15:09:55Z</time>
      </trkpt>
      <trkpt lat="46.23855" lon="2.47802">
        <ele>382</ele>
        <time>2017-04-17T15:09:58Z</time>
      </trkpt>
      <trkpt lat="46.2386" lon="2.47805">
        <ele>381</ele>
        <time>2017-04-17T15:10:02Z</time>
      </trkpt>
      <trkpt lat="46.23865" lon="2.47807">
        <ele>380</ele>
        <time>2017-04-17T15:10:05Z</time>
      </trkpt>
      <trkpt lat="46.23869" lon="2.47809">
        <ele>380</ele>
        <time>2017-04-17T15:10:08Z</time>
      </trkpt>
      <trkpt lat="46.23875" lon="2.47812">
        <ele>380</ele>
        <time>2017-04-17T15:10:12Z</time>
      </trkpt>
      <trkpt lat="46.23879" lon="2.47814">
        <ele>379</ele>
        <time>2017-04-17T15:10:15Z</time>
      </trkpt>
      <trkpt lat="46.23883" lon="2.47816">
        <ele>379</ele>
        <time>2017-04-17T15:10:18Z</time>
      </trkpt>
      <trkpt lat="46.23887" lon="2.47818">
        <ele>379</ele>
        <time>2017-04-17T15:10:21Z</time>
      </trkpt>
      <trkpt lat="46.23891" lon="2.4782">
        <ele>379</ele>
        <time>2017-04-17T15:10:24Z</time>
      </trkpt>
      <trkpt lat="46.23896" lon="2.47822">
        <ele>379</ele>
        <time>2017-04-17T15:10:27Z</time>
      </trkpt>
      <trkpt lat="46.239" lon="2.47824">
        <ele>379</ele>
        <time>2017-04-17T15:10:30Z</time>
      </trkpt>
      <trkpt lat="46.23906" lon="2.47827">
        <ele>378</ele>
        <time>2017-04-17T15:10:34Z</time>
      </trkpt>
      <trkpt lat="46.2391" lon="2.47828">
        <ele>378</ele>
        <time>2017-04-17T15:10:37Z</time>
      </trkpt>
      <trkpt lat="46.23914" lon="2.4783">
        <ele>377</ele>
        <time>2017-04-17T15:10:40Z</time>
      </trkpt>
      <trkpt lat="46.23918" lon="2.47832">
        <ele>377</ele>
        <time>2017-04-17T15:10:43Z</time>
      </trkpt>
      <trkpt lat="46.23922" lon="2.47834">
        <ele>377</ele>
        <time>2017-04-17T15:10:46Z</time>
      </trkpt>
      <trkpt lat="46.23927" lon="2.47839">
        <ele>376</ele>
        <time>2017-04-17T15:10:50Z</time>
      </trkpt>
      <trkpt lat="46.23931" lon="2.47844">
        <ele>376</ele>
        <time>2017-04-17T15:10:54Z</time>
      </trkpt>
      <trkpt lat="46.23936" lon="2.47848">
        <ele>376</ele>
        <time>2017-04-17T15:10:58Z</time>
      </trkpt>
      <trkpt lat="46.23941" lon="2.47851">
        <ele>376</ele>
        <time>2017-04-17T15:11:01Z</time>
      </trkpt>
      <trkpt lat="46.23942" lon="2.47854">
        <ele>376</ele>
        <time>2017-04-17T15:11:05Z</time>
      </trkpt>
      <trkpt lat="46.23946" lon="2.47859">
        <ele>376</ele>
        <time>2017-04-17T15:11:09Z</time>
      </trkpt>
      <trkpt lat="46.23951" lon="2.47863">
        <ele>376</ele>
        <time>2017-04-17T15:11:13Z</time>
      </trkpt>
      <trkpt lat="46.23955" lon="2.47867">
        <ele>376</ele>
        <time>2017-04-17T15:11:17Z</time>
      </trkpt>
      <trkpt lat="46.23959" lon="2.4787">
        <ele>376</ele>
        <time>2017-04-17T15:11:20Z</time>
      </trkpt>
      <trkpt lat="46.23962" lon="2.47872">
        <ele>376</ele>
        <time>2017-04-17T15:11:23Z</time>
      </trkpt>
      <trkpt lat="46.23967" lon="2.47875">
        <ele>376</ele>
        <time>2017-04-17T15:11:27Z</time>
      </trkpt>
      <trkpt lat="46.23971" lon="2.47877">
        <ele>376</ele>
        <time>2017-04-17T15:11:30Z</time>
      </trkpt>
      <trkpt lat="46.23975" lon="2.47879">
        <ele>376</ele>
        <time>2017-04-17T15:11:33Z</time>
      </trkpt>
      <trkpt lat="46.2398" lon="2.47882">
        <ele>376</ele>
        <time>2017-04-17T15:11:37Z</time>
      </trkpt>
      <trkpt lat="46.23983" lon="2.47884">
        <ele>376</ele>
        <time>2017-04-17T15:11:40Z</time>
      </trkpt>
      <trkpt lat="46.23987" lon="2.47886">
        <ele>376</ele>
        <time>2017-04-17T15:11:43Z</time>
      </trkpt>
      <trkpt lat="46.23992" lon="2.47888">
        <ele>376</ele>
        <time>2017-04-17T15:11:47Z</time>
      </trkpt>
      <trkpt lat="46.23996" lon="2.4789">
        <ele>376</ele>
        <time>2017-04-17T15:11:50Z</time>
      </trkpt>
      <trkpt lat="46.23999" lon="2.47892">
        <ele>376</ele>
        <time>2017-04-17T15:11:53Z</time>
      </trkpt>
      <trkpt lat="46.24004" lon="2.47895">
        <ele>376</ele>
        <time>2017-04-17T15:11:57Z</time>
      </trkpt>
      <trkpt lat="46.24008" lon="2.47898">
        <ele>376</ele>
        <time>2017-04-17T15:12:00Z</time>
      </trkpt>
      <trkpt lat="46.24012" lon="2.47901">
        <ele>376</ele>
        <time>2017-04-17T15:12:04Z</time>
      </trkpt>
      <trkpt lat="46.24017" lon="2.47906">
        <ele>376</ele>
        <time>2017-04-17T15:12:08Z</time>
      </trkpt>
      <trkpt lat="46.24019" lon="2.47911">
        <ele>376</ele>
        <time>2017-04-17T15:12:11Z</time>
      </trkpt>
      <trkpt lat="46.24021" lon="2.47916">
        <ele>376</ele>
        <time>2017-04-17T15:12:14Z</time>
      </trkpt>
      <trkpt lat="46.24023" lon="2.47923">
        <ele>376</ele>
        <time>2017-04-17T15:12:18Z</time>
      </trkpt>
      <trkpt lat="46.24023" lon="2.47929">
        <ele>376</ele>
        <time>2017-04-17T15:12:21Z</time>
      </trkpt>
      <trkpt lat="46.24023" lon="2.47934">
        <ele>376</ele>
        <time>2017-04-17T15:12:24Z</time>
      </trkpt>
      <trkpt lat="46.24024" lon="2.47935">
        <ele>376</ele>
        <time>2017-04-17T15:12:25Z</time>
      </trkpt>
    </trkseg>
  </trk>
</gpx>